<?xml version="1.0" encoding="UTF-8" standalone="no" ?>
<gpx xmlns="http://www.topografix.com/GPX/1/1" xmlns:xsi="http://www.w3.org/2001/XMLSchema-instance" xsi:schemaLocation="http://www.topografix.com/GPX/1/1 http://www.topografix.com/GPX/1/1/gpx.xsd" version="1.1" creator="VisuGPX - https://www.visugpx.com">
  <metadata>
    <name>Morgunganga</name>
  </metadata>
  <trk>
    <name><![CDATA[Morgunganga]]></name>
    <trkseg>
      <trkpt lat="49.29641" lon="-0.31621">
        <ele>10.9</ele>
        <time>2021-02-21T08:38:25Z</time>
      </trkpt>
      <trkpt lat="49.29641" lon="-0.31621">
        <ele>10.9</ele>
        <time>2021-02-21T08:38:27Z</time>
      </trkpt>
      <trkpt lat="49.29641" lon="-0.31621">
        <ele>10.9</ele>
        <time>2021-02-21T08:38:28Z</time>
      </trkpt>
      <trkpt lat="49.29643" lon="-0.31622">
        <ele>10.9</ele>
        <time>2021-02-21T08:38:30Z</time>
      </trkpt>
      <trkpt lat="49.29645" lon="-0.31622">
        <ele>10.9</ele>
        <time>2021-02-21T08:38:31Z</time>
      </trkpt>
      <trkpt lat="49.29647" lon="-0.31622">
        <ele>10.9</ele>
        <time>2021-02-21T08:38:32Z</time>
      </trkpt>
      <trkpt lat="49.29651" lon="-0.31623">
        <ele>10.9</ele>
        <time>2021-02-21T08:38:34Z</time>
      </trkpt>
      <trkpt lat="49.29654" lon="-0.31624">
        <ele>10.9</ele>
        <time>2021-02-21T08:38:35Z</time>
      </trkpt>
      <trkpt lat="49.29658" lon="-0.31625">
        <ele>10.9</ele>
        <time>2021-02-21T08:38:36Z</time>
      </trkpt>
      <trkpt lat="49.29659" lon="-0.31625">
        <ele>10.9</ele>
        <time>2021-02-21T08:38:37Z</time>
      </trkpt>
      <trkpt lat="49.29663" lon="-0.31625">
        <ele>10.9</ele>
        <time>2021-02-21T08:38:39Z</time>
      </trkpt>
      <trkpt lat="49.29666" lon="-0.31626">
        <ele>10.9</ele>
        <time>2021-02-21T08:38:40Z</time>
      </trkpt>
      <trkpt lat="49.2967" lon="-0.31628">
        <ele>10.9</ele>
        <time>2021-02-21T08:38:42Z</time>
      </trkpt>
      <trkpt lat="49.29672" lon="-0.31629">
        <ele>10.9</ele>
        <time>2021-02-21T08:38:43Z</time>
      </trkpt>
      <trkpt lat="49.29676" lon="-0.31631">
        <ele>11</ele>
        <time>2021-02-21T08:38:45Z</time>
      </trkpt>
      <trkpt lat="49.29678" lon="-0.31631">
        <ele>11</ele>
        <time>2021-02-21T08:38:46Z</time>
      </trkpt>
      <trkpt lat="49.29681" lon="-0.31632">
        <ele>11</ele>
        <time>2021-02-21T08:38:49Z</time>
      </trkpt>
      <trkpt lat="49.29684" lon="-0.31633">
        <ele>11</ele>
        <time>2021-02-21T08:38:50Z</time>
      </trkpt>
      <trkpt lat="49.29685" lon="-0.31633">
        <ele>11</ele>
        <time>2021-02-21T08:38:51Z</time>
      </trkpt>
      <trkpt lat="49.29687" lon="-0.31634">
        <ele>11</ele>
        <time>2021-02-21T08:38:52Z</time>
      </trkpt>
      <trkpt lat="49.29688" lon="-0.31635">
        <ele>11</ele>
        <time>2021-02-21T08:38:54Z</time>
      </trkpt>
      <trkpt lat="49.29691" lon="-0.31637">
        <ele>11</ele>
        <time>2021-02-21T08:38:55Z</time>
      </trkpt>
      <trkpt lat="49.29692" lon="-0.31638">
        <ele>11</ele>
        <time>2021-02-21T08:38:56Z</time>
      </trkpt>
      <trkpt lat="49.29696" lon="-0.31641">
        <ele>11</ele>
        <time>2021-02-21T08:38:58Z</time>
      </trkpt>
      <trkpt lat="49.29698" lon="-0.31643">
        <ele>11</ele>
        <time>2021-02-21T08:38:59Z</time>
      </trkpt>
      <trkpt lat="49.29701" lon="-0.31646">
        <ele>11</ele>
        <time>2021-02-21T08:39:01Z</time>
      </trkpt>
      <trkpt lat="49.29704" lon="-0.31648">
        <ele>11</ele>
        <time>2021-02-21T08:39:02Z</time>
      </trkpt>
      <trkpt lat="49.29706" lon="-0.3165">
        <ele>10.9</ele>
        <time>2021-02-21T08:39:03Z</time>
      </trkpt>
      <trkpt lat="49.2971" lon="-0.31653">
        <ele>10.9</ele>
        <time>2021-02-21T08:39:05Z</time>
      </trkpt>
      <trkpt lat="49.29713" lon="-0.31655">
        <ele>10.9</ele>
        <time>2021-02-21T08:39:06Z</time>
      </trkpt>
      <trkpt lat="49.29716" lon="-0.31657">
        <ele>10.9</ele>
        <time>2021-02-21T08:39:08Z</time>
      </trkpt>
      <trkpt lat="49.29718" lon="-0.3166">
        <ele>10.9</ele>
        <time>2021-02-21T08:39:09Z</time>
      </trkpt>
      <trkpt lat="49.29722" lon="-0.31663">
        <ele>10.8</ele>
        <time>2021-02-21T08:39:12Z</time>
      </trkpt>
      <trkpt lat="49.29723" lon="-0.31664">
        <ele>10.8</ele>
        <time>2021-02-21T08:39:13Z</time>
      </trkpt>
      <trkpt lat="49.29724" lon="-0.31665">
        <ele>10.8</ele>
        <time>2021-02-21T08:39:14Z</time>
      </trkpt>
      <trkpt lat="49.29727" lon="-0.31667">
        <ele>10.8</ele>
        <time>2021-02-21T08:39:16Z</time>
      </trkpt>
      <trkpt lat="49.29728" lon="-0.31668">
        <ele>10.8</ele>
        <time>2021-02-21T08:39:17Z</time>
      </trkpt>
      <trkpt lat="49.29731" lon="-0.3167">
        <ele>10.7</ele>
        <time>2021-02-21T08:39:19Z</time>
      </trkpt>
      <trkpt lat="49.29732" lon="-0.31671">
        <ele>10.7</ele>
        <time>2021-02-21T08:39:20Z</time>
      </trkpt>
      <trkpt lat="49.29734" lon="-0.31673">
        <ele>10.7</ele>
        <time>2021-02-21T08:39:22Z</time>
      </trkpt>
      <trkpt lat="49.29736" lon="-0.31673">
        <ele>10.7</ele>
        <time>2021-02-21T08:39:23Z</time>
      </trkpt>
      <trkpt lat="49.29738" lon="-0.31675">
        <ele>10.6</ele>
        <time>2021-02-21T08:39:24Z</time>
      </trkpt>
      <trkpt lat="49.29739" lon="-0.31676">
        <ele>10.6</ele>
        <time>2021-02-21T08:39:25Z</time>
      </trkpt>
      <trkpt lat="49.29741" lon="-0.31677">
        <ele>10.6</ele>
        <time>2021-02-21T08:39:26Z</time>
      </trkpt>
      <trkpt lat="49.29744" lon="-0.31678">
        <ele>10.6</ele>
        <time>2021-02-21T08:39:28Z</time>
      </trkpt>
      <trkpt lat="49.29746" lon="-0.3168">
        <ele>10.6</ele>
        <time>2021-02-21T08:39:29Z</time>
      </trkpt>
      <trkpt lat="49.29748" lon="-0.31681">
        <ele>10.5</ele>
        <time>2021-02-21T08:39:31Z</time>
      </trkpt>
      <trkpt lat="49.2975" lon="-0.31683">
        <ele>10.5</ele>
        <time>2021-02-21T08:39:32Z</time>
      </trkpt>
      <trkpt lat="49.29751" lon="-0.31683">
        <ele>10.5</ele>
        <time>2021-02-21T08:39:33Z</time>
      </trkpt>
      <trkpt lat="49.29753" lon="-0.31686">
        <ele>10.5</ele>
        <time>2021-02-21T08:39:36Z</time>
      </trkpt>
      <trkpt lat="49.29756" lon="-0.31688">
        <ele>10.4</ele>
        <time>2021-02-21T08:39:38Z</time>
      </trkpt>
      <trkpt lat="49.29758" lon="-0.31689">
        <ele>10.4</ele>
        <time>2021-02-21T08:39:39Z</time>
      </trkpt>
      <trkpt lat="49.29761" lon="-0.31691">
        <ele>10.4</ele>
        <time>2021-02-21T08:39:41Z</time>
      </trkpt>
      <trkpt lat="49.29763" lon="-0.31693">
        <ele>10.3</ele>
        <time>2021-02-21T08:39:42Z</time>
      </trkpt>
      <trkpt lat="49.29764" lon="-0.31694">
        <ele>10.3</ele>
        <time>2021-02-21T08:39:43Z</time>
      </trkpt>
      <trkpt lat="49.29766" lon="-0.31695">
        <ele>10.3</ele>
        <time>2021-02-21T08:39:44Z</time>
      </trkpt>
      <trkpt lat="49.29769" lon="-0.31698">
        <ele>10.2</ele>
        <time>2021-02-21T08:39:46Z</time>
      </trkpt>
      <trkpt lat="49.29772" lon="-0.31701">
        <ele>10.2</ele>
        <time>2021-02-21T08:39:48Z</time>
      </trkpt>
      <trkpt lat="49.29773" lon="-0.31702">
        <ele>10.2</ele>
        <time>2021-02-21T08:39:49Z</time>
      </trkpt>
      <trkpt lat="49.29775" lon="-0.31704">
        <ele>10.1</ele>
        <time>2021-02-21T08:39:50Z</time>
      </trkpt>
      <trkpt lat="49.29777" lon="-0.31706">
        <ele>10.1</ele>
        <time>2021-02-21T08:39:52Z</time>
      </trkpt>
      <trkpt lat="49.2978" lon="-0.31709">
        <ele>10.1</ele>
        <time>2021-02-21T08:39:53Z</time>
      </trkpt>
      <trkpt lat="49.29781" lon="-0.3171">
        <ele>10.1</ele>
        <time>2021-02-21T08:39:54Z</time>
      </trkpt>
      <trkpt lat="49.29784" lon="-0.31712">
        <ele>10</ele>
        <time>2021-02-21T08:39:56Z</time>
      </trkpt>
      <trkpt lat="49.29786" lon="-0.31715">
        <ele>10</ele>
        <time>2021-02-21T08:39:59Z</time>
      </trkpt>
      <trkpt lat="49.29787" lon="-0.31717">
        <ele>10</ele>
        <time>2021-02-21T08:40:00Z</time>
      </trkpt>
      <trkpt lat="49.29789" lon="-0.31718">
        <ele>10</ele>
        <time>2021-02-21T08:40:01Z</time>
      </trkpt>
      <trkpt lat="49.29792" lon="-0.31721">
        <ele>9.9</ele>
        <time>2021-02-21T08:40:03Z</time>
      </trkpt>
      <trkpt lat="49.29793" lon="-0.31722">
        <ele>9.9</ele>
        <time>2021-02-21T08:40:04Z</time>
      </trkpt>
      <trkpt lat="49.29795" lon="-0.31724">
        <ele>9.8</ele>
        <time>2021-02-21T08:40:05Z</time>
      </trkpt>
      <trkpt lat="49.29796" lon="-0.31725">
        <ele>9.8</ele>
        <time>2021-02-21T08:40:07Z</time>
      </trkpt>
      <trkpt lat="49.29798" lon="-0.31727">
        <ele>9.8</ele>
        <time>2021-02-21T08:40:08Z</time>
      </trkpt>
      <trkpt lat="49.298" lon="-0.31728">
        <ele>9.7</ele>
        <time>2021-02-21T08:40:10Z</time>
      </trkpt>
      <trkpt lat="49.29803" lon="-0.31731">
        <ele>9.7</ele>
        <time>2021-02-21T08:40:11Z</time>
      </trkpt>
      <trkpt lat="49.29804" lon="-0.31731">
        <ele>9.7</ele>
        <time>2021-02-21T08:40:12Z</time>
      </trkpt>
      <trkpt lat="49.29805" lon="-0.31733">
        <ele>9.6</ele>
        <time>2021-02-21T08:40:13Z</time>
      </trkpt>
      <trkpt lat="49.29808" lon="-0.31736">
        <ele>9.6</ele>
        <time>2021-02-21T08:40:15Z</time>
      </trkpt>
      <trkpt lat="49.2981" lon="-0.31738">
        <ele>9.5</ele>
        <time>2021-02-21T08:40:16Z</time>
      </trkpt>
      <trkpt lat="49.29812" lon="-0.3174">
        <ele>9.4</ele>
        <time>2021-02-21T08:40:18Z</time>
      </trkpt>
      <trkpt lat="49.29815" lon="-0.31742">
        <ele>9.4</ele>
        <time>2021-02-21T08:40:21Z</time>
      </trkpt>
      <trkpt lat="49.29817" lon="-0.31744">
        <ele>9.3</ele>
        <time>2021-02-21T08:40:22Z</time>
      </trkpt>
      <trkpt lat="49.29819" lon="-0.31747">
        <ele>9.3</ele>
        <time>2021-02-21T08:40:24Z</time>
      </trkpt>
      <trkpt lat="49.29822" lon="-0.31749">
        <ele>9.2</ele>
        <time>2021-02-21T08:40:25Z</time>
      </trkpt>
      <trkpt lat="49.29823" lon="-0.3175">
        <ele>9.1</ele>
        <time>2021-02-21T08:40:26Z</time>
      </trkpt>
      <trkpt lat="49.29826" lon="-0.31753">
        <ele>9</ele>
        <time>2021-02-21T08:40:28Z</time>
      </trkpt>
      <trkpt lat="49.29827" lon="-0.31754">
        <ele>9</ele>
        <time>2021-02-21T08:40:29Z</time>
      </trkpt>
      <trkpt lat="49.2983" lon="-0.31756">
        <ele>8.9</ele>
        <time>2021-02-21T08:40:31Z</time>
      </trkpt>
      <trkpt lat="49.29831" lon="-0.31757">
        <ele>8.9</ele>
        <time>2021-02-21T08:40:32Z</time>
      </trkpt>
      <trkpt lat="49.29834" lon="-0.31759">
        <ele>8.8</ele>
        <time>2021-02-21T08:40:33Z</time>
      </trkpt>
      <trkpt lat="49.29835" lon="-0.3176">
        <ele>8.8</ele>
        <time>2021-02-21T08:40:34Z</time>
      </trkpt>
      <trkpt lat="49.29838" lon="-0.31763">
        <ele>8.7</ele>
        <time>2021-02-21T08:40:36Z</time>
      </trkpt>
      <trkpt lat="49.29839" lon="-0.31763">
        <ele>8.6</ele>
        <time>2021-02-21T08:40:37Z</time>
      </trkpt>
      <trkpt lat="49.29842" lon="-0.31765">
        <ele>8.6</ele>
        <time>2021-02-21T08:40:38Z</time>
      </trkpt>
      <trkpt lat="49.29844" lon="-0.31768">
        <ele>8.5</ele>
        <time>2021-02-21T08:40:40Z</time>
      </trkpt>
      <trkpt lat="49.29847" lon="-0.3177">
        <ele>8.5</ele>
        <time>2021-02-21T08:40:41Z</time>
      </trkpt>
      <trkpt lat="49.2985" lon="-0.31773">
        <ele>8.4</ele>
        <time>2021-02-21T08:40:44Z</time>
      </trkpt>
      <trkpt lat="49.29853" lon="-0.31776">
        <ele>8.3</ele>
        <time>2021-02-21T08:40:46Z</time>
      </trkpt>
      <trkpt lat="49.29856" lon="-0.31778">
        <ele>8.2</ele>
        <time>2021-02-21T08:40:47Z</time>
      </trkpt>
      <trkpt lat="49.29858" lon="-0.3178">
        <ele>8.1</ele>
        <time>2021-02-21T08:40:48Z</time>
      </trkpt>
      <trkpt lat="49.29861" lon="-0.31782">
        <ele>8</ele>
        <time>2021-02-21T08:40:50Z</time>
      </trkpt>
      <trkpt lat="49.29862" lon="-0.31783">
        <ele>8</ele>
        <time>2021-02-21T08:40:51Z</time>
      </trkpt>
      <trkpt lat="49.29864" lon="-0.31785">
        <ele>7.9</ele>
        <time>2021-02-21T08:40:52Z</time>
      </trkpt>
      <trkpt lat="49.29866" lon="-0.31786">
        <ele>7.8</ele>
        <time>2021-02-21T08:40:54Z</time>
      </trkpt>
      <trkpt lat="49.29868" lon="-0.31788">
        <ele>7.7</ele>
        <time>2021-02-21T08:40:55Z</time>
      </trkpt>
      <trkpt lat="49.29871" lon="-0.31789">
        <ele>7.7</ele>
        <time>2021-02-21T08:40:57Z</time>
      </trkpt>
      <trkpt lat="49.29874" lon="-0.3179">
        <ele>7.6</ele>
        <time>2021-02-21T08:40:58Z</time>
      </trkpt>
      <trkpt lat="49.29875" lon="-0.3179">
        <ele>7.6</ele>
        <time>2021-02-21T08:40:59Z</time>
      </trkpt>
      <trkpt lat="49.29876" lon="-0.31791">
        <ele>7.5</ele>
        <time>2021-02-21T08:41:00Z</time>
      </trkpt>
      <trkpt lat="49.29878" lon="-0.31792">
        <ele>7.5</ele>
        <time>2021-02-21T08:41:02Z</time>
      </trkpt>
      <trkpt lat="49.2988" lon="-0.31793">
        <ele>7.4</ele>
        <time>2021-02-21T08:41:03Z</time>
      </trkpt>
      <trkpt lat="49.29883" lon="-0.31794">
        <ele>7.4</ele>
        <time>2021-02-21T08:41:05Z</time>
      </trkpt>
      <trkpt lat="49.29886" lon="-0.31794">
        <ele>7.3</ele>
        <time>2021-02-21T08:41:08Z</time>
      </trkpt>
      <trkpt lat="49.29887" lon="-0.31794">
        <ele>7.3</ele>
        <time>2021-02-21T08:41:09Z</time>
      </trkpt>
      <trkpt lat="49.29888" lon="-0.31793">
        <ele>7.3</ele>
        <time>2021-02-21T08:41:10Z</time>
      </trkpt>
      <trkpt lat="49.2989" lon="-0.31791">
        <ele>7.1</ele>
        <time>2021-02-21T08:41:12Z</time>
      </trkpt>
      <trkpt lat="49.29891" lon="-0.31789">
        <ele>7.1</ele>
        <time>2021-02-21T08:41:13Z</time>
      </trkpt>
      <trkpt lat="49.29892" lon="-0.31787">
        <ele>7.1</ele>
        <time>2021-02-21T08:41:14Z</time>
      </trkpt>
      <trkpt lat="49.29894" lon="-0.31786">
        <ele>7.1</ele>
        <time>2021-02-21T08:41:15Z</time>
      </trkpt>
      <trkpt lat="49.29895" lon="-0.31784">
        <ele>7.1</ele>
        <time>2021-02-21T08:41:16Z</time>
      </trkpt>
      <trkpt lat="49.29897" lon="-0.3178">
        <ele>7</ele>
        <time>2021-02-21T08:41:18Z</time>
      </trkpt>
      <trkpt lat="49.29898" lon="-0.31779">
        <ele>7</ele>
        <time>2021-02-21T08:41:19Z</time>
      </trkpt>
      <trkpt lat="49.29899" lon="-0.31777">
        <ele>7</ele>
        <time>2021-02-21T08:41:20Z</time>
      </trkpt>
      <trkpt lat="49.299" lon="-0.31775">
        <ele>7</ele>
        <time>2021-02-21T08:41:21Z</time>
      </trkpt>
      <trkpt lat="49.29902" lon="-0.31771">
        <ele>7</ele>
        <time>2021-02-21T08:41:23Z</time>
      </trkpt>
      <trkpt lat="49.29903" lon="-0.31768">
        <ele>7</ele>
        <time>2021-02-21T08:41:24Z</time>
      </trkpt>
      <trkpt lat="49.29905" lon="-0.31765">
        <ele>7</ele>
        <time>2021-02-21T08:41:26Z</time>
      </trkpt>
      <trkpt lat="49.29907" lon="-0.31758">
        <ele>7</ele>
        <time>2021-02-21T08:41:28Z</time>
      </trkpt>
      <trkpt lat="49.29908" lon="-0.31756">
        <ele>7</ele>
        <time>2021-02-21T08:41:31Z</time>
      </trkpt>
      <trkpt lat="49.29909" lon="-0.31753">
        <ele>7</ele>
        <time>2021-02-21T08:41:32Z</time>
      </trkpt>
      <trkpt lat="49.2991" lon="-0.31751">
        <ele>7</ele>
        <time>2021-02-21T08:41:33Z</time>
      </trkpt>
      <trkpt lat="49.29911" lon="-0.31745">
        <ele>7</ele>
        <time>2021-02-21T08:41:35Z</time>
      </trkpt>
      <trkpt lat="49.29912" lon="-0.31743">
        <ele>7</ele>
        <time>2021-02-21T08:41:36Z</time>
      </trkpt>
      <trkpt lat="49.29913" lon="-0.31736">
        <ele>7</ele>
        <time>2021-02-21T08:41:38Z</time>
      </trkpt>
      <trkpt lat="49.29914" lon="-0.31731">
        <ele>7</ele>
        <time>2021-02-21T08:41:39Z</time>
      </trkpt>
      <trkpt lat="49.29915" lon="-0.31727">
        <ele>7</ele>
        <time>2021-02-21T08:41:41Z</time>
      </trkpt>
      <trkpt lat="49.29917" lon="-0.31724">
        <ele>7</ele>
        <time>2021-02-21T08:41:42Z</time>
      </trkpt>
      <trkpt lat="49.29918" lon="-0.3172">
        <ele>7</ele>
        <time>2021-02-21T08:41:44Z</time>
      </trkpt>
      <trkpt lat="49.2992" lon="-0.31715">
        <ele>7</ele>
        <time>2021-02-21T08:41:45Z</time>
      </trkpt>
      <trkpt lat="49.29921" lon="-0.31713">
        <ele>7</ele>
        <time>2021-02-21T08:41:46Z</time>
      </trkpt>
      <trkpt lat="49.29923" lon="-0.3171">
        <ele>7</ele>
        <time>2021-02-21T08:41:48Z</time>
      </trkpt>
      <trkpt lat="49.29924" lon="-0.31707">
        <ele>7</ele>
        <time>2021-02-21T08:41:49Z</time>
      </trkpt>
      <trkpt lat="49.29925" lon="-0.31704">
        <ele>7</ele>
        <time>2021-02-21T08:41:51Z</time>
      </trkpt>
      <trkpt lat="49.29928" lon="-0.317">
        <ele>7</ele>
        <time>2021-02-21T08:41:53Z</time>
      </trkpt>
      <trkpt lat="49.29929" lon="-0.31698">
        <ele>7</ele>
        <time>2021-02-21T08:41:54Z</time>
      </trkpt>
      <trkpt lat="49.29932" lon="-0.31694">
        <ele>7</ele>
        <time>2021-02-21T08:41:56Z</time>
      </trkpt>
      <trkpt lat="49.29932" lon="-0.31693">
        <ele>7</ele>
        <time>2021-02-21T08:41:57Z</time>
      </trkpt>
      <trkpt lat="49.29934" lon="-0.31691">
        <ele>7</ele>
        <time>2021-02-21T08:41:58Z</time>
      </trkpt>
      <trkpt lat="49.29936" lon="-0.31688">
        <ele>7</ele>
        <time>2021-02-21T08:42:00Z</time>
      </trkpt>
      <trkpt lat="49.29939" lon="-0.31685">
        <ele>7</ele>
        <time>2021-02-21T08:42:02Z</time>
      </trkpt>
      <trkpt lat="49.29939" lon="-0.31685">
        <ele>7</ele>
        <time>2021-02-21T08:42:03Z</time>
      </trkpt>
      <trkpt lat="49.29942" lon="-0.31682">
        <ele>6.9</ele>
        <time>2021-02-21T08:42:04Z</time>
      </trkpt>
      <trkpt lat="49.29943" lon="-0.31681">
        <ele>6.9</ele>
        <time>2021-02-21T08:42:05Z</time>
      </trkpt>
      <trkpt lat="49.29946" lon="-0.3168">
        <ele>6.9</ele>
        <time>2021-02-21T08:42:07Z</time>
      </trkpt>
      <trkpt lat="49.29947" lon="-0.31679">
        <ele>6.9</ele>
        <time>2021-02-21T08:42:08Z</time>
      </trkpt>
      <trkpt lat="49.2995" lon="-0.31678">
        <ele>6.9</ele>
        <time>2021-02-21T08:42:10Z</time>
      </trkpt>
      <trkpt lat="49.29952" lon="-0.31678">
        <ele>6.8</ele>
        <time>2021-02-21T08:42:11Z</time>
      </trkpt>
      <trkpt lat="49.29955" lon="-0.31677">
        <ele>6.8</ele>
        <time>2021-02-21T08:42:13Z</time>
      </trkpt>
      <trkpt lat="49.29956" lon="-0.31677">
        <ele>6.8</ele>
        <time>2021-02-21T08:42:14Z</time>
      </trkpt>
      <trkpt lat="49.29958" lon="-0.31677">
        <ele>6.7</ele>
        <time>2021-02-21T08:42:16Z</time>
      </trkpt>
      <trkpt lat="49.29961" lon="-0.31676">
        <ele>6.7</ele>
        <time>2021-02-21T08:42:17Z</time>
      </trkpt>
      <trkpt lat="49.29962" lon="-0.31676">
        <ele>6.7</ele>
        <time>2021-02-21T08:42:18Z</time>
      </trkpt>
      <trkpt lat="49.29967" lon="-0.31677">
        <ele>6.6</ele>
        <time>2021-02-21T08:42:20Z</time>
      </trkpt>
      <trkpt lat="49.29969" lon="-0.31677">
        <ele>6.6</ele>
        <time>2021-02-21T08:42:22Z</time>
      </trkpt>
      <trkpt lat="49.29971" lon="-0.31678">
        <ele>6.5</ele>
        <time>2021-02-21T08:42:23Z</time>
      </trkpt>
      <trkpt lat="49.29973" lon="-0.31678">
        <ele>6.5</ele>
        <time>2021-02-21T08:42:24Z</time>
      </trkpt>
      <trkpt lat="49.29977" lon="-0.31679">
        <ele>6.5</ele>
        <time>2021-02-21T08:42:26Z</time>
      </trkpt>
      <trkpt lat="49.29978" lon="-0.31679">
        <ele>6.5</ele>
        <time>2021-02-21T08:42:27Z</time>
      </trkpt>
      <trkpt lat="49.2998" lon="-0.3168">
        <ele>6.4</ele>
        <time>2021-02-21T08:42:28Z</time>
      </trkpt>
      <trkpt lat="49.29983" lon="-0.3168">
        <ele>6.4</ele>
        <time>2021-02-21T08:42:30Z</time>
      </trkpt>
      <trkpt lat="49.29986" lon="-0.31682">
        <ele>6.3</ele>
        <time>2021-02-21T08:42:32Z</time>
      </trkpt>
      <trkpt lat="49.29988" lon="-0.31684">
        <ele>6.3</ele>
        <time>2021-02-21T08:42:33Z</time>
      </trkpt>
      <trkpt lat="49.29991" lon="-0.31687">
        <ele>6.3</ele>
        <time>2021-02-21T08:42:35Z</time>
      </trkpt>
      <trkpt lat="49.29994" lon="-0.31689">
        <ele>6.2</ele>
        <time>2021-02-21T08:42:36Z</time>
      </trkpt>
      <trkpt lat="49.29997" lon="-0.31691">
        <ele>6.2</ele>
        <time>2021-02-21T08:42:39Z</time>
      </trkpt>
      <trkpt lat="49.3" lon="-0.31694">
        <ele>6.2</ele>
        <time>2021-02-21T08:42:41Z</time>
      </trkpt>
      <trkpt lat="49.30003" lon="-0.31696">
        <ele>6.1</ele>
        <time>2021-02-21T08:42:42Z</time>
      </trkpt>
      <trkpt lat="49.30004" lon="-0.31697">
        <ele>6.1</ele>
        <time>2021-02-21T08:42:43Z</time>
      </trkpt>
      <trkpt lat="49.30007" lon="-0.317">
        <ele>6.1</ele>
        <time>2021-02-21T08:42:45Z</time>
      </trkpt>
      <trkpt lat="49.30008" lon="-0.31701">
        <ele>6.1</ele>
        <time>2021-02-21T08:42:46Z</time>
      </trkpt>
      <trkpt lat="49.3001" lon="-0.31704">
        <ele>6.1</ele>
        <time>2021-02-21T08:42:47Z</time>
      </trkpt>
      <trkpt lat="49.30012" lon="-0.31708">
        <ele>6.1</ele>
        <time>2021-02-21T08:42:49Z</time>
      </trkpt>
      <trkpt lat="49.30013" lon="-0.31709">
        <ele>6</ele>
        <time>2021-02-21T08:42:50Z</time>
      </trkpt>
      <trkpt lat="49.30015" lon="-0.31711">
        <ele>6</ele>
        <time>2021-02-21T08:42:51Z</time>
      </trkpt>
      <trkpt lat="49.30017" lon="-0.31714">
        <ele>6</ele>
        <time>2021-02-21T08:42:53Z</time>
      </trkpt>
      <trkpt lat="49.30018" lon="-0.31715">
        <ele>6</ele>
        <time>2021-02-21T08:42:54Z</time>
      </trkpt>
      <trkpt lat="49.3002" lon="-0.31717">
        <ele>6</ele>
        <time>2021-02-21T08:42:55Z</time>
      </trkpt>
      <trkpt lat="49.30022" lon="-0.31718">
        <ele>6</ele>
        <time>2021-02-21T08:42:56Z</time>
      </trkpt>
      <trkpt lat="49.30024" lon="-0.3172">
        <ele>6</ele>
        <time>2021-02-21T08:42:58Z</time>
      </trkpt>
      <trkpt lat="49.30026" lon="-0.31722">
        <ele>5.9</ele>
        <time>2021-02-21T08:42:59Z</time>
      </trkpt>
      <trkpt lat="49.30028" lon="-0.31724">
        <ele>5.9</ele>
        <time>2021-02-21T08:43:02Z</time>
      </trkpt>
      <trkpt lat="49.3003" lon="-0.31725">
        <ele>5.9</ele>
        <time>2021-02-21T08:43:03Z</time>
      </trkpt>
      <trkpt lat="49.30032" lon="-0.31727">
        <ele>5.9</ele>
        <time>2021-02-21T08:43:05Z</time>
      </trkpt>
      <trkpt lat="49.30038" lon="-0.3174">
        <ele>5.9</ele>
        <time>2021-02-21T08:43:07Z</time>
      </trkpt>
      <trkpt lat="49.30039" lon="-0.31738">
        <ele>5.9</ele>
        <time>2021-02-21T08:43:09Z</time>
      </trkpt>
      <trkpt lat="49.3004" lon="-0.31738">
        <ele>5.9</ele>
        <time>2021-02-21T08:43:10Z</time>
      </trkpt>
      <trkpt lat="49.30041" lon="-0.31737">
        <ele>5.9</ele>
        <time>2021-02-21T08:43:12Z</time>
      </trkpt>
      <trkpt lat="49.30043" lon="-0.31736">
        <ele>5.9</ele>
        <time>2021-02-21T08:43:13Z</time>
      </trkpt>
      <trkpt lat="49.30044" lon="-0.31735">
        <ele>6</ele>
        <time>2021-02-21T08:43:14Z</time>
      </trkpt>
      <trkpt lat="49.30045" lon="-0.31735">
        <ele>6</ele>
        <time>2021-02-21T08:43:15Z</time>
      </trkpt>
      <trkpt lat="49.30057" lon="-0.31727">
        <ele>6</ele>
        <time>2021-02-21T08:43:17Z</time>
      </trkpt>
      <trkpt lat="49.30058" lon="-0.31725">
        <ele>6</ele>
        <time>2021-02-21T08:43:18Z</time>
      </trkpt>
      <trkpt lat="49.30058" lon="-0.31718">
        <ele>6</ele>
        <time>2021-02-21T08:43:20Z</time>
      </trkpt>
      <trkpt lat="49.30061" lon="-0.31714">
        <ele>6.1</ele>
        <time>2021-02-21T08:43:21Z</time>
      </trkpt>
      <trkpt lat="49.30065" lon="-0.31707">
        <ele>6.1</ele>
        <time>2021-02-21T08:43:23Z</time>
      </trkpt>
      <trkpt lat="49.30067" lon="-0.31702">
        <ele>6.2</ele>
        <time>2021-02-21T08:43:24Z</time>
      </trkpt>
      <trkpt lat="49.30069" lon="-0.31695">
        <ele>6.2</ele>
        <time>2021-02-21T08:43:27Z</time>
      </trkpt>
      <trkpt lat="49.30069" lon="-0.31693">
        <ele>6.2</ele>
        <time>2021-02-21T08:43:28Z</time>
      </trkpt>
      <trkpt lat="49.30069" lon="-0.31691">
        <ele>6.2</ele>
        <time>2021-02-21T08:43:29Z</time>
      </trkpt>
      <trkpt lat="49.30071" lon="-0.31687">
        <ele>6.4</ele>
        <time>2021-02-21T08:43:31Z</time>
      </trkpt>
      <trkpt lat="49.30072" lon="-0.31686">
        <ele>6.4</ele>
        <time>2021-02-21T08:43:32Z</time>
      </trkpt>
      <trkpt lat="49.30074" lon="-0.31685">
        <ele>6.4</ele>
        <time>2021-02-21T08:43:34Z</time>
      </trkpt>
      <trkpt lat="49.30075" lon="-0.31685">
        <ele>6.4</ele>
        <time>2021-02-21T08:43:35Z</time>
      </trkpt>
      <trkpt lat="49.30077" lon="-0.31686">
        <ele>6.4</ele>
        <time>2021-02-21T08:43:36Z</time>
      </trkpt>
      <trkpt lat="49.30079" lon="-0.31688">
        <ele>6.4</ele>
        <time>2021-02-21T08:43:38Z</time>
      </trkpt>
      <trkpt lat="49.30081" lon="-0.3169">
        <ele>6.5</ele>
        <time>2021-02-21T08:43:39Z</time>
      </trkpt>
      <trkpt lat="49.30084" lon="-0.31692">
        <ele>6.5</ele>
        <time>2021-02-21T08:43:41Z</time>
      </trkpt>
      <trkpt lat="49.30087" lon="-0.31695">
        <ele>6.5</ele>
        <time>2021-02-21T08:43:42Z</time>
      </trkpt>
      <trkpt lat="49.30088" lon="-0.31697">
        <ele>6.5</ele>
        <time>2021-02-21T08:43:43Z</time>
      </trkpt>
      <trkpt lat="49.30091" lon="-0.317">
        <ele>6.5</ele>
        <time>2021-02-21T08:43:45Z</time>
      </trkpt>
      <trkpt lat="49.30093" lon="-0.31703">
        <ele>6.6</ele>
        <time>2021-02-21T08:43:46Z</time>
      </trkpt>
      <trkpt lat="49.30097" lon="-0.31707">
        <ele>6.6</ele>
        <time>2021-02-21T08:43:49Z</time>
      </trkpt>
      <trkpt lat="49.30099" lon="-0.31708">
        <ele>6.6</ele>
        <time>2021-02-21T08:43:50Z</time>
      </trkpt>
      <trkpt lat="49.301" lon="-0.3171">
        <ele>6.6</ele>
        <time>2021-02-21T08:43:51Z</time>
      </trkpt>
      <trkpt lat="49.30105" lon="-0.31713">
        <ele>6.7</ele>
        <time>2021-02-21T08:43:53Z</time>
      </trkpt>
      <trkpt lat="49.30107" lon="-0.31714">
        <ele>6.7</ele>
        <time>2021-02-21T08:43:54Z</time>
      </trkpt>
      <trkpt lat="49.30109" lon="-0.31715">
        <ele>6.7</ele>
        <time>2021-02-21T08:43:55Z</time>
      </trkpt>
      <trkpt lat="49.30114" lon="-0.31718">
        <ele>6.8</ele>
        <time>2021-02-21T08:43:57Z</time>
      </trkpt>
      <trkpt lat="49.30115" lon="-0.31719">
        <ele>6.8</ele>
        <time>2021-02-21T08:43:59Z</time>
      </trkpt>
      <trkpt lat="49.30116" lon="-0.3172">
        <ele>6.8</ele>
        <time>2021-02-21T08:44:00Z</time>
      </trkpt>
      <trkpt lat="49.30119" lon="-0.31721">
        <ele>6.9</ele>
        <time>2021-02-21T08:44:02Z</time>
      </trkpt>
      <trkpt lat="49.30122" lon="-0.31724">
        <ele>6.9</ele>
        <time>2021-02-21T08:44:03Z</time>
      </trkpt>
      <trkpt lat="49.30124" lon="-0.31726">
        <ele>6.9</ele>
        <time>2021-02-21T08:44:05Z</time>
      </trkpt>
      <trkpt lat="49.30127" lon="-0.31728">
        <ele>7</ele>
        <time>2021-02-21T08:44:06Z</time>
      </trkpt>
      <trkpt lat="49.30129" lon="-0.31728">
        <ele>7</ele>
        <time>2021-02-21T08:44:08Z</time>
      </trkpt>
      <trkpt lat="49.3013" lon="-0.31728">
        <ele>7</ele>
        <time>2021-02-21T08:44:09Z</time>
      </trkpt>
      <trkpt lat="49.30131" lon="-0.31728">
        <ele>7</ele>
        <time>2021-02-21T08:44:10Z</time>
      </trkpt>
      <trkpt lat="49.30133" lon="-0.31728">
        <ele>7</ele>
        <time>2021-02-21T08:44:13Z</time>
      </trkpt>
      <trkpt lat="49.30136" lon="-0.31725">
        <ele>7</ele>
        <time>2021-02-21T08:44:15Z</time>
      </trkpt>
      <trkpt lat="49.30137" lon="-0.31725">
        <ele>7</ele>
        <time>2021-02-21T08:44:16Z</time>
      </trkpt>
      <trkpt lat="49.3014" lon="-0.31722">
        <ele>7</ele>
        <time>2021-02-21T08:44:17Z</time>
      </trkpt>
      <trkpt lat="49.30141" lon="-0.3172">
        <ele>7</ele>
        <time>2021-02-21T08:44:19Z</time>
      </trkpt>
      <trkpt lat="49.30142" lon="-0.31719">
        <ele>7</ele>
        <time>2021-02-21T08:44:20Z</time>
      </trkpt>
      <trkpt lat="49.30143" lon="-0.31717">
        <ele>7</ele>
        <time>2021-02-21T08:44:21Z</time>
      </trkpt>
      <trkpt lat="49.30147" lon="-0.31712">
        <ele>7.1</ele>
        <time>2021-02-21T08:44:23Z</time>
      </trkpt>
      <trkpt lat="49.30148" lon="-0.3171">
        <ele>7.1</ele>
        <time>2021-02-21T08:44:25Z</time>
      </trkpt>
      <trkpt lat="49.3015" lon="-0.31709">
        <ele>7.1</ele>
        <time>2021-02-21T08:44:26Z</time>
      </trkpt>
      <trkpt lat="49.30151" lon="-0.31707">
        <ele>7.1</ele>
        <time>2021-02-21T08:44:27Z</time>
      </trkpt>
      <trkpt lat="49.30153" lon="-0.31704">
        <ele>7.2</ele>
        <time>2021-02-21T08:44:29Z</time>
      </trkpt>
      <trkpt lat="49.30155" lon="-0.31701">
        <ele>7.2</ele>
        <time>2021-02-21T08:44:30Z</time>
      </trkpt>
      <trkpt lat="49.30157" lon="-0.31699">
        <ele>7.2</ele>
        <time>2021-02-21T08:44:32Z</time>
      </trkpt>
      <trkpt lat="49.30159" lon="-0.31695">
        <ele>7.2</ele>
        <time>2021-02-21T08:44:33Z</time>
      </trkpt>
      <trkpt lat="49.3016" lon="-0.31694">
        <ele>7.3</ele>
        <time>2021-02-21T08:44:35Z</time>
      </trkpt>
      <trkpt lat="49.30162" lon="-0.31691">
        <ele>7.3</ele>
        <time>2021-02-21T08:44:37Z</time>
      </trkpt>
      <trkpt lat="49.30163" lon="-0.31689">
        <ele>7.3</ele>
        <time>2021-02-21T08:44:38Z</time>
      </trkpt>
      <trkpt lat="49.30165" lon="-0.31687">
        <ele>7.3</ele>
        <time>2021-02-21T08:44:39Z</time>
      </trkpt>
      <trkpt lat="49.30166" lon="-0.31685">
        <ele>7.3</ele>
        <time>2021-02-21T08:44:40Z</time>
      </trkpt>
      <trkpt lat="49.30167" lon="-0.31683">
        <ele>7.3</ele>
        <time>2021-02-21T08:44:42Z</time>
      </trkpt>
      <trkpt lat="49.30169" lon="-0.31681">
        <ele>7.3</ele>
        <time>2021-02-21T08:44:43Z</time>
      </trkpt>
      <trkpt lat="49.3017" lon="-0.3168">
        <ele>7.3</ele>
        <time>2021-02-21T08:44:44Z</time>
      </trkpt>
      <trkpt lat="49.30171" lon="-0.31679">
        <ele>7.3</ele>
        <time>2021-02-21T08:44:45Z</time>
      </trkpt>
      <trkpt lat="49.30173" lon="-0.31677">
        <ele>7.3</ele>
        <time>2021-02-21T08:44:47Z</time>
      </trkpt>
      <trkpt lat="49.30174" lon="-0.31675">
        <ele>7.3</ele>
        <time>2021-02-21T08:44:48Z</time>
      </trkpt>
      <trkpt lat="49.30176" lon="-0.31674">
        <ele>7.3</ele>
        <time>2021-02-21T08:44:50Z</time>
      </trkpt>
      <trkpt lat="49.30177" lon="-0.31672">
        <ele>7.3</ele>
        <time>2021-02-21T08:44:51Z</time>
      </trkpt>
      <trkpt lat="49.30179" lon="-0.3167">
        <ele>7.3</ele>
        <time>2021-02-21T08:44:52Z</time>
      </trkpt>
      <trkpt lat="49.30181" lon="-0.31668">
        <ele>7.3</ele>
        <time>2021-02-21T08:44:54Z</time>
      </trkpt>
      <trkpt lat="49.30181" lon="-0.31667">
        <ele>7.3</ele>
        <time>2021-02-21T08:44:55Z</time>
      </trkpt>
      <trkpt lat="49.30184" lon="-0.31664">
        <ele>7.3</ele>
        <time>2021-02-21T08:44:58Z</time>
      </trkpt>
      <trkpt lat="49.30185" lon="-0.31663">
        <ele>7.4</ele>
        <time>2021-02-21T08:44:59Z</time>
      </trkpt>
      <trkpt lat="49.30186" lon="-0.31662">
        <ele>7.4</ele>
        <time>2021-02-21T08:45:00Z</time>
      </trkpt>
      <trkpt lat="49.30189" lon="-0.31659">
        <ele>7.4</ele>
        <time>2021-02-21T08:45:02Z</time>
      </trkpt>
      <trkpt lat="49.30191" lon="-0.31658">
        <ele>7.4</ele>
        <time>2021-02-21T08:45:03Z</time>
      </trkpt>
      <trkpt lat="49.30192" lon="-0.31656">
        <ele>7.4</ele>
        <time>2021-02-21T08:45:04Z</time>
      </trkpt>
      <trkpt lat="49.30194" lon="-0.31653">
        <ele>7.4</ele>
        <time>2021-02-21T08:45:05Z</time>
      </trkpt>
      <trkpt lat="49.30195" lon="-0.31652">
        <ele>7.4</ele>
        <time>2021-02-21T08:45:06Z</time>
      </trkpt>
      <trkpt lat="49.30198" lon="-0.3165">
        <ele>7.5</ele>
        <time>2021-02-21T08:45:08Z</time>
      </trkpt>
      <trkpt lat="49.30199" lon="-0.31649">
        <ele>7.5</ele>
        <time>2021-02-21T08:45:09Z</time>
      </trkpt>
      <trkpt lat="49.30201" lon="-0.31646">
        <ele>7.5</ele>
        <time>2021-02-21T08:45:10Z</time>
      </trkpt>
      <trkpt lat="49.30202" lon="-0.31645">
        <ele>7.5</ele>
        <time>2021-02-21T08:45:11Z</time>
      </trkpt>
      <trkpt lat="49.30204" lon="-0.31641">
        <ele>7.6</ele>
        <time>2021-02-21T08:45:13Z</time>
      </trkpt>
      <trkpt lat="49.30205" lon="-0.3164">
        <ele>7.6</ele>
        <time>2021-02-21T08:45:14Z</time>
      </trkpt>
      <trkpt lat="49.30206" lon="-0.31638">
        <ele>7.6</ele>
        <time>2021-02-21T08:45:15Z</time>
      </trkpt>
      <trkpt lat="49.30208" lon="-0.31635">
        <ele>7.6</ele>
        <time>2021-02-21T08:45:17Z</time>
      </trkpt>
      <trkpt lat="49.30209" lon="-0.31633">
        <ele>7.6</ele>
        <time>2021-02-21T08:45:18Z</time>
      </trkpt>
      <trkpt lat="49.30211" lon="-0.3163">
        <ele>7.6</ele>
        <time>2021-02-21T08:45:21Z</time>
      </trkpt>
      <trkpt lat="49.30215" lon="-0.31626">
        <ele>7.7</ele>
        <time>2021-02-21T08:45:23Z</time>
      </trkpt>
      <trkpt lat="49.30216" lon="-0.31624">
        <ele>7.7</ele>
        <time>2021-02-21T08:45:24Z</time>
      </trkpt>
      <trkpt lat="49.30217" lon="-0.31622">
        <ele>7.7</ele>
        <time>2021-02-21T08:45:25Z</time>
      </trkpt>
      <trkpt lat="49.3022" lon="-0.31618">
        <ele>7.8</ele>
        <time>2021-02-21T08:45:27Z</time>
      </trkpt>
      <trkpt lat="49.3022" lon="-0.31617">
        <ele>7.8</ele>
        <time>2021-02-21T08:45:28Z</time>
      </trkpt>
      <trkpt lat="49.30223" lon="-0.31613">
        <ele>7.9</ele>
        <time>2021-02-21T08:45:30Z</time>
      </trkpt>
      <trkpt lat="49.30223" lon="-0.31612">
        <ele>7.9</ele>
        <time>2021-02-21T08:45:31Z</time>
      </trkpt>
      <trkpt lat="49.30226" lon="-0.31609">
        <ele>8</ele>
        <time>2021-02-21T08:45:32Z</time>
      </trkpt>
      <trkpt lat="49.30226" lon="-0.31608">
        <ele>8</ele>
        <time>2021-02-21T08:45:33Z</time>
      </trkpt>
      <trkpt lat="49.30227" lon="-0.31606">
        <ele>8</ele>
        <time>2021-02-21T08:45:34Z</time>
      </trkpt>
      <trkpt lat="49.30229" lon="-0.31604">
        <ele>8.1</ele>
        <time>2021-02-21T08:45:36Z</time>
      </trkpt>
      <trkpt lat="49.30232" lon="-0.316">
        <ele>8.1</ele>
        <time>2021-02-21T08:45:38Z</time>
      </trkpt>
      <trkpt lat="49.30233" lon="-0.31599">
        <ele>8.1</ele>
        <time>2021-02-21T08:45:39Z</time>
      </trkpt>
      <trkpt lat="49.30235" lon="-0.31596">
        <ele>8.1</ele>
        <time>2021-02-21T08:45:40Z</time>
      </trkpt>
      <trkpt lat="49.30236" lon="-0.31595">
        <ele>8.1</ele>
        <time>2021-02-21T08:45:41Z</time>
      </trkpt>
      <trkpt lat="49.30237" lon="-0.31593">
        <ele>8.1</ele>
        <time>2021-02-21T08:45:42Z</time>
      </trkpt>
      <trkpt lat="49.30239" lon="-0.31591">
        <ele>8.1</ele>
        <time>2021-02-21T08:45:45Z</time>
      </trkpt>
      <trkpt lat="49.3024" lon="-0.31588">
        <ele>8.1</ele>
        <time>2021-02-21T08:45:46Z</time>
      </trkpt>
      <trkpt lat="49.30242" lon="-0.31586">
        <ele>8.1</ele>
        <time>2021-02-21T08:45:48Z</time>
      </trkpt>
      <trkpt lat="49.30245" lon="-0.31584">
        <ele>8</ele>
        <time>2021-02-21T08:45:49Z</time>
      </trkpt>
      <trkpt lat="49.30245" lon="-0.31583">
        <ele>8</ele>
        <time>2021-02-21T08:45:50Z</time>
      </trkpt>
      <trkpt lat="49.30248" lon="-0.3158">
        <ele>8</ele>
        <time>2021-02-21T08:45:52Z</time>
      </trkpt>
      <trkpt lat="49.30249" lon="-0.31579">
        <ele>8</ele>
        <time>2021-02-21T08:45:53Z</time>
      </trkpt>
      <trkpt lat="49.30251" lon="-0.31577">
        <ele>8</ele>
        <time>2021-02-21T08:45:55Z</time>
      </trkpt>
      <trkpt lat="49.30253" lon="-0.31575">
        <ele>8</ele>
        <time>2021-02-21T08:45:57Z</time>
      </trkpt>
      <trkpt lat="49.30254" lon="-0.31574">
        <ele>8</ele>
        <time>2021-02-21T08:45:58Z</time>
      </trkpt>
      <trkpt lat="49.30256" lon="-0.31572">
        <ele>8</ele>
        <time>2021-02-21T08:45:59Z</time>
      </trkpt>
      <trkpt lat="49.30258" lon="-0.3157">
        <ele>8</ele>
        <time>2021-02-21T08:46:01Z</time>
      </trkpt>
      <trkpt lat="49.30259" lon="-0.31569">
        <ele>8</ele>
        <time>2021-02-21T08:46:02Z</time>
      </trkpt>
      <trkpt lat="49.30262" lon="-0.31566">
        <ele>7.9</ele>
        <time>2021-02-21T08:46:03Z</time>
      </trkpt>
      <trkpt lat="49.30263" lon="-0.31565">
        <ele>7.8</ele>
        <time>2021-02-21T08:46:04Z</time>
      </trkpt>
      <trkpt lat="49.30264" lon="-0.31564">
        <ele>7.7</ele>
        <time>2021-02-21T08:46:05Z</time>
      </trkpt>
      <trkpt lat="49.30265" lon="-0.31562">
        <ele>7.5</ele>
        <time>2021-02-21T08:46:08Z</time>
      </trkpt>
      <trkpt lat="49.30267" lon="-0.31561">
        <ele>7.4</ele>
        <time>2021-02-21T08:46:09Z</time>
      </trkpt>
      <trkpt lat="49.30269" lon="-0.3156">
        <ele>7.3</ele>
        <time>2021-02-21T08:46:11Z</time>
      </trkpt>
      <trkpt lat="49.30271" lon="-0.3156">
        <ele>7.3</ele>
        <time>2021-02-21T08:46:12Z</time>
      </trkpt>
      <trkpt lat="49.30273" lon="-0.3156">
        <ele>7.3</ele>
        <time>2021-02-21T08:46:14Z</time>
      </trkpt>
      <trkpt lat="49.30276" lon="-0.31562">
        <ele>7.3</ele>
        <time>2021-02-21T08:46:15Z</time>
      </trkpt>
      <trkpt lat="49.30277" lon="-0.31563">
        <ele>7.3</ele>
        <time>2021-02-21T08:46:16Z</time>
      </trkpt>
      <trkpt lat="49.3028" lon="-0.31566">
        <ele>7.3</ele>
        <time>2021-02-21T08:46:18Z</time>
      </trkpt>
      <trkpt lat="49.30281" lon="-0.31566">
        <ele>7.3</ele>
        <time>2021-02-21T08:46:19Z</time>
      </trkpt>
      <trkpt lat="49.30282" lon="-0.31568">
        <ele>7.3</ele>
        <time>2021-02-21T08:46:20Z</time>
      </trkpt>
      <trkpt lat="49.30284" lon="-0.3157">
        <ele>7.3</ele>
        <time>2021-02-21T08:46:22Z</time>
      </trkpt>
      <trkpt lat="49.30288" lon="-0.31574">
        <ele>7.2</ele>
        <time>2021-02-21T08:46:24Z</time>
      </trkpt>
      <trkpt lat="49.30289" lon="-0.31575">
        <ele>7.2</ele>
        <time>2021-02-21T08:46:25Z</time>
      </trkpt>
      <trkpt lat="49.30291" lon="-0.31577">
        <ele>7.2</ele>
        <time>2021-02-21T08:46:26Z</time>
      </trkpt>
      <trkpt lat="49.30294" lon="-0.31579">
        <ele>7.2</ele>
        <time>2021-02-21T08:46:28Z</time>
      </trkpt>
      <trkpt lat="49.30294" lon="-0.3158">
        <ele>7.2</ele>
        <time>2021-02-21T08:46:30Z</time>
      </trkpt>
      <trkpt lat="49.30296" lon="-0.31582">
        <ele>7.2</ele>
        <time>2021-02-21T08:46:31Z</time>
      </trkpt>
      <trkpt lat="49.30298" lon="-0.31585">
        <ele>7.2</ele>
        <time>2021-02-21T08:46:33Z</time>
      </trkpt>
      <trkpt lat="49.303" lon="-0.31588">
        <ele>7.2</ele>
        <time>2021-02-21T08:46:34Z</time>
      </trkpt>
      <trkpt lat="49.30302" lon="-0.3159">
        <ele>7.2</ele>
        <time>2021-02-21T08:46:35Z</time>
      </trkpt>
      <trkpt lat="49.30303" lon="-0.31592">
        <ele>7.2</ele>
        <time>2021-02-21T08:46:37Z</time>
      </trkpt>
      <trkpt lat="49.30305" lon="-0.31594">
        <ele>6.7</ele>
        <time>2021-02-21T08:46:38Z</time>
      </trkpt>
      <trkpt lat="49.30306" lon="-0.31595">
        <ele>6.5</ele>
        <time>2021-02-21T08:46:40Z</time>
      </trkpt>
      <trkpt lat="49.30308" lon="-0.31596">
        <ele>6.2</ele>
        <time>2021-02-21T08:46:42Z</time>
      </trkpt>
      <trkpt lat="49.3031" lon="-0.31595">
        <ele>6.1</ele>
        <time>2021-02-21T08:46:43Z</time>
      </trkpt>
      <trkpt lat="49.30312" lon="-0.31595">
        <ele>5.8</ele>
        <time>2021-02-21T08:46:44Z</time>
      </trkpt>
      <trkpt lat="49.30313" lon="-0.31594">
        <ele>5.6</ele>
        <time>2021-02-21T08:46:45Z</time>
      </trkpt>
      <trkpt lat="49.30317" lon="-0.31593">
        <ele>5.3</ele>
        <time>2021-02-21T08:46:47Z</time>
      </trkpt>
      <trkpt lat="49.30317" lon="-0.31593">
        <ele>5.1</ele>
        <time>2021-02-21T08:46:48Z</time>
      </trkpt>
      <trkpt lat="49.3032" lon="-0.31592">
        <ele>4.9</ele>
        <time>2021-02-21T08:46:49Z</time>
      </trkpt>
      <trkpt lat="49.30321" lon="-0.31592">
        <ele>4.8</ele>
        <time>2021-02-21T08:46:50Z</time>
      </trkpt>
      <trkpt lat="49.30323" lon="-0.31591">
        <ele>4.6</ele>
        <time>2021-02-21T08:46:53Z</time>
      </trkpt>
      <trkpt lat="49.30324" lon="-0.3159">
        <ele>4.5</ele>
        <time>2021-02-21T08:46:54Z</time>
      </trkpt>
      <trkpt lat="49.30326" lon="-0.31589">
        <ele>4.4</ele>
        <time>2021-02-21T08:46:55Z</time>
      </trkpt>
      <trkpt lat="49.30327" lon="-0.31588">
        <ele>4.3</ele>
        <time>2021-02-21T08:46:56Z</time>
      </trkpt>
      <trkpt lat="49.30328" lon="-0.31587">
        <ele>4.2</ele>
        <time>2021-02-21T08:46:57Z</time>
      </trkpt>
      <trkpt lat="49.3033" lon="-0.31586">
        <ele>4.1</ele>
        <time>2021-02-21T08:46:58Z</time>
      </trkpt>
      <trkpt lat="49.30333" lon="-0.31585">
        <ele>3.8</ele>
        <time>2021-02-21T08:47:00Z</time>
      </trkpt>
      <trkpt lat="49.30334" lon="-0.31585">
        <ele>3.8</ele>
        <time>2021-02-21T08:47:01Z</time>
      </trkpt>
      <trkpt lat="49.30335" lon="-0.31584">
        <ele>3.7</ele>
        <time>2021-02-21T08:47:02Z</time>
      </trkpt>
      <trkpt lat="49.30337" lon="-0.31583">
        <ele>3.5</ele>
        <time>2021-02-21T08:47:03Z</time>
      </trkpt>
      <trkpt lat="49.3034" lon="-0.31583">
        <ele>3.2</ele>
        <time>2021-02-21T08:47:05Z</time>
      </trkpt>
      <trkpt lat="49.30341" lon="-0.31582">
        <ele>3.2</ele>
        <time>2021-02-21T08:47:06Z</time>
      </trkpt>
      <trkpt lat="49.30344" lon="-0.31581">
        <ele>3</ele>
        <time>2021-02-21T08:47:07Z</time>
      </trkpt>
      <trkpt lat="49.30345" lon="-0.3158">
        <ele>2.8</ele>
        <time>2021-02-21T08:47:08Z</time>
      </trkpt>
      <trkpt lat="49.30348" lon="-0.31579">
        <ele>2.5</ele>
        <time>2021-02-21T08:47:09Z</time>
      </trkpt>
      <trkpt lat="49.3035" lon="-0.31579">
        <ele>2.5</ele>
        <time>2021-02-21T08:47:11Z</time>
      </trkpt>
      <trkpt lat="49.30351" lon="-0.31578">
        <ele>2.2</ele>
        <time>2021-02-21T08:47:12Z</time>
      </trkpt>
      <trkpt lat="49.30352" lon="-0.31578">
        <ele>2.2</ele>
        <time>2021-02-21T08:47:13Z</time>
      </trkpt>
      <trkpt lat="49.30355" lon="-0.31576">
        <ele>1.8</ele>
        <time>2021-02-21T08:47:14Z</time>
      </trkpt>
      <trkpt lat="49.30356" lon="-0.31575">
        <ele>1.5</ele>
        <time>2021-02-21T08:47:16Z</time>
      </trkpt>
      <trkpt lat="49.30359" lon="-0.31573">
        <ele>1.1</ele>
        <time>2021-02-21T08:47:17Z</time>
      </trkpt>
      <trkpt lat="49.30359" lon="-0.31573">
        <ele>1</ele>
        <time>2021-02-21T08:47:18Z</time>
      </trkpt>
      <trkpt lat="49.30362" lon="-0.31569">
        <ele>0.6</ele>
        <time>2021-02-21T08:47:20Z</time>
      </trkpt>
      <trkpt lat="49.30364" lon="-0.31566">
        <ele>0.1</ele>
        <time>2021-02-21T08:47:21Z</time>
      </trkpt>
      <trkpt lat="49.30365" lon="-0.31565">
        <ele>0.1</ele>
        <time>2021-02-21T08:47:22Z</time>
      </trkpt>
      <trkpt lat="49.30366" lon="-0.31563">
        <ele>-0.1</ele>
        <time>2021-02-21T08:47:23Z</time>
      </trkpt>
      <trkpt lat="49.30367" lon="-0.31561">
        <ele>-0.2</ele>
        <time>2021-02-21T08:47:24Z</time>
      </trkpt>
      <trkpt lat="49.30368" lon="-0.31559">
        <ele>-0.4</ele>
        <time>2021-02-21T08:47:25Z</time>
      </trkpt>
      <trkpt lat="49.30369" lon="-0.31558">
        <ele>-0.3</ele>
        <time>2021-02-21T08:47:26Z</time>
      </trkpt>
      <trkpt lat="49.3037" lon="-0.31554">
        <ele>-0.5</ele>
        <time>2021-02-21T08:47:28Z</time>
      </trkpt>
      <trkpt lat="49.3037" lon="-0.31552">
        <ele>-0.5</ele>
        <time>2021-02-21T08:47:29Z</time>
      </trkpt>
      <trkpt lat="49.3037" lon="-0.31548">
        <ele>-0.5</ele>
        <time>2021-02-21T08:47:30Z</time>
      </trkpt>
      <trkpt lat="49.3037" lon="-0.31546">
        <ele>-0.6</ele>
        <time>2021-02-21T08:47:31Z</time>
      </trkpt>
      <trkpt lat="49.3037" lon="-0.31544">
        <ele>-0.6</ele>
        <time>2021-02-21T08:47:32Z</time>
      </trkpt>
      <trkpt lat="49.3037" lon="-0.31541">
        <ele>-0.6</ele>
        <time>2021-02-21T08:47:33Z</time>
      </trkpt>
      <trkpt lat="49.3037" lon="-0.31537">
        <ele>-0.6</ele>
        <time>2021-02-21T08:47:35Z</time>
      </trkpt>
      <trkpt lat="49.3037" lon="-0.31535">
        <ele>-0.6</ele>
        <time>2021-02-21T08:47:36Z</time>
      </trkpt>
      <trkpt lat="49.3037" lon="-0.3153">
        <ele>-0.6</ele>
        <time>2021-02-21T08:47:37Z</time>
      </trkpt>
      <trkpt lat="49.3037" lon="-0.31529">
        <ele>-0.6</ele>
        <time>2021-02-21T08:47:38Z</time>
      </trkpt>
      <trkpt lat="49.30369" lon="-0.31526">
        <ele>-0.8</ele>
        <time>2021-02-21T08:47:40Z</time>
      </trkpt>
      <trkpt lat="49.30368" lon="-0.31524">
        <ele>-0.7</ele>
        <time>2021-02-21T08:47:41Z</time>
      </trkpt>
      <trkpt lat="49.30367" lon="-0.31518">
        <ele>-0.7</ele>
        <time>2021-02-21T08:47:43Z</time>
      </trkpt>
      <trkpt lat="49.30366" lon="-0.31517">
        <ele>-0.7</ele>
        <time>2021-02-21T08:47:44Z</time>
      </trkpt>
      <trkpt lat="49.30366" lon="-0.31511">
        <ele>-0.7</ele>
        <time>2021-02-21T08:47:46Z</time>
      </trkpt>
      <trkpt lat="49.30365" lon="-0.3151">
        <ele>-0.7</ele>
        <time>2021-02-21T08:47:47Z</time>
      </trkpt>
      <trkpt lat="49.30364" lon="-0.31504">
        <ele>-0.6</ele>
        <time>2021-02-21T08:47:49Z</time>
      </trkpt>
      <trkpt lat="49.30364" lon="-0.31503">
        <ele>-0.5</ele>
        <time>2021-02-21T08:47:50Z</time>
      </trkpt>
      <trkpt lat="49.30362" lon="-0.315">
        <ele>-0.5</ele>
        <time>2021-02-21T08:47:52Z</time>
      </trkpt>
      <trkpt lat="49.30362" lon="-0.31499">
        <ele>-0.5</ele>
        <time>2021-02-21T08:47:53Z</time>
      </trkpt>
      <trkpt lat="49.30361" lon="-0.31496">
        <ele>-0.4</ele>
        <time>2021-02-21T08:47:54Z</time>
      </trkpt>
      <trkpt lat="49.3036" lon="-0.31493">
        <ele>-0.4</ele>
        <time>2021-02-21T08:47:56Z</time>
      </trkpt>
      <trkpt lat="49.30359" lon="-0.3149">
        <ele>-0.3</ele>
        <time>2021-02-21T08:47:57Z</time>
      </trkpt>
      <trkpt lat="49.30359" lon="-0.31488">
        <ele>-0.3</ele>
        <time>2021-02-21T08:47:58Z</time>
      </trkpt>
      <trkpt lat="49.30358" lon="-0.31484">
        <ele>-0.2</ele>
        <time>2021-02-21T08:48:00Z</time>
      </trkpt>
      <trkpt lat="49.30357" lon="-0.31481">
        <ele>-0.2</ele>
        <time>2021-02-21T08:48:01Z</time>
      </trkpt>
      <trkpt lat="49.30357" lon="-0.31479">
        <ele>-0.2</ele>
        <time>2021-02-21T08:48:03Z</time>
      </trkpt>
      <trkpt lat="49.30356" lon="-0.31477">
        <ele>-0.2</ele>
        <time>2021-02-21T08:48:04Z</time>
      </trkpt>
      <trkpt lat="49.30355" lon="-0.31473">
        <ele>-0.2</ele>
        <time>2021-02-21T08:48:06Z</time>
      </trkpt>
      <trkpt lat="49.30353" lon="-0.31468">
        <ele>-0.2</ele>
        <time>2021-02-21T08:48:08Z</time>
      </trkpt>
      <trkpt lat="49.30352" lon="-0.31467">
        <ele>-0.2</ele>
        <time>2021-02-21T08:48:09Z</time>
      </trkpt>
      <trkpt lat="49.30351" lon="-0.31464">
        <ele>-0.3</ele>
        <time>2021-02-21T08:48:11Z</time>
      </trkpt>
      <trkpt lat="49.3035" lon="-0.31459">
        <ele>-0.3</ele>
        <time>2021-02-21T08:48:13Z</time>
      </trkpt>
      <trkpt lat="49.30349" lon="-0.31454">
        <ele>-0.4</ele>
        <time>2021-02-21T08:48:15Z</time>
      </trkpt>
      <trkpt lat="49.30348" lon="-0.31449">
        <ele>-0.4</ele>
        <time>2021-02-21T08:48:17Z</time>
      </trkpt>
      <trkpt lat="49.30347" lon="-0.31446">
        <ele>-0.4</ele>
        <time>2021-02-21T08:48:18Z</time>
      </trkpt>
      <trkpt lat="49.30347" lon="-0.31443">
        <ele>-0.4</ele>
        <time>2021-02-21T08:48:20Z</time>
      </trkpt>
      <trkpt lat="49.30346" lon="-0.31441">
        <ele>-0.4</ele>
        <time>2021-02-21T08:48:21Z</time>
      </trkpt>
      <trkpt lat="49.30346" lon="-0.31439">
        <ele>-0.4</ele>
        <time>2021-02-21T08:48:22Z</time>
      </trkpt>
      <trkpt lat="49.30346" lon="-0.31438">
        <ele>-0.4</ele>
        <time>2021-02-21T08:48:23Z</time>
      </trkpt>
      <trkpt lat="49.30345" lon="-0.31436">
        <ele>-0.4</ele>
        <time>2021-02-21T08:48:26Z</time>
      </trkpt>
      <trkpt lat="49.30345" lon="-0.31435">
        <ele>-0.4</ele>
        <time>2021-02-21T08:48:27Z</time>
      </trkpt>
      <trkpt lat="49.30345" lon="-0.31434">
        <ele>-0.4</ele>
        <time>2021-02-21T08:48:28Z</time>
      </trkpt>
      <trkpt lat="49.30344" lon="-0.31433">
        <ele>-0.4</ele>
        <time>2021-02-21T08:48:29Z</time>
      </trkpt>
      <trkpt lat="49.30343" lon="-0.3143">
        <ele>-0.3</ele>
        <time>2021-02-21T08:48:31Z</time>
      </trkpt>
      <trkpt lat="49.30342" lon="-0.31427">
        <ele>-0.3</ele>
        <time>2021-02-21T08:48:33Z</time>
      </trkpt>
      <trkpt lat="49.30341" lon="-0.31425">
        <ele>-0.2</ele>
        <time>2021-02-21T08:48:34Z</time>
      </trkpt>
      <trkpt lat="49.3034" lon="-0.31422">
        <ele>-0.2</ele>
        <time>2021-02-21T08:48:35Z</time>
      </trkpt>
      <trkpt lat="49.30338" lon="-0.31418">
        <ele>-0.2</ele>
        <time>2021-02-21T08:48:36Z</time>
      </trkpt>
      <trkpt lat="49.30338" lon="-0.31416">
        <ele>-0.2</ele>
        <time>2021-02-21T08:48:37Z</time>
      </trkpt>
      <trkpt lat="49.30337" lon="-0.31412">
        <ele>-0.2</ele>
        <time>2021-02-21T08:48:39Z</time>
      </trkpt>
      <trkpt lat="49.30334" lon="-0.31406">
        <ele>-0.2</ele>
        <time>2021-02-21T08:48:41Z</time>
      </trkpt>
      <trkpt lat="49.30332" lon="-0.31402">
        <ele>-0.2</ele>
        <time>2021-02-21T08:48:42Z</time>
      </trkpt>
      <trkpt lat="49.30331" lon="-0.31397">
        <ele>-0.2</ele>
        <time>2021-02-21T08:48:44Z</time>
      </trkpt>
      <trkpt lat="49.30328" lon="-0.31392">
        <ele>-0.2</ele>
        <time>2021-02-21T08:48:46Z</time>
      </trkpt>
      <trkpt lat="49.30327" lon="-0.31388">
        <ele>-0.2</ele>
        <time>2021-02-21T08:48:47Z</time>
      </trkpt>
      <trkpt lat="49.30325" lon="-0.31382">
        <ele>-0.2</ele>
        <time>2021-02-21T08:48:50Z</time>
      </trkpt>
      <trkpt lat="49.30324" lon="-0.3138">
        <ele>-0.3</ele>
        <time>2021-02-21T08:48:51Z</time>
      </trkpt>
      <trkpt lat="49.30324" lon="-0.31378">
        <ele>-0.3</ele>
        <time>2021-02-21T08:48:52Z</time>
      </trkpt>
      <trkpt lat="49.30322" lon="-0.31375">
        <ele>-0.3</ele>
        <time>2021-02-21T08:48:54Z</time>
      </trkpt>
      <trkpt lat="49.30321" lon="-0.31372">
        <ele>-0.3</ele>
        <time>2021-02-21T08:48:55Z</time>
      </trkpt>
      <trkpt lat="49.30321" lon="-0.3137">
        <ele>-0.3</ele>
        <time>2021-02-21T08:48:56Z</time>
      </trkpt>
      <trkpt lat="49.30319" lon="-0.31368">
        <ele>-0.3</ele>
        <time>2021-02-21T08:48:57Z</time>
      </trkpt>
      <trkpt lat="49.30318" lon="-0.31366">
        <ele>-0.4</ele>
        <time>2021-02-21T08:48:59Z</time>
      </trkpt>
      <trkpt lat="49.30318" lon="-0.31364">
        <ele>-0.4</ele>
        <time>2021-02-21T08:49:00Z</time>
      </trkpt>
      <trkpt lat="49.30316" lon="-0.31361">
        <ele>-0.4</ele>
        <time>2021-02-21T08:49:02Z</time>
      </trkpt>
      <trkpt lat="49.30316" lon="-0.31359">
        <ele>-0.4</ele>
        <time>2021-02-21T08:49:03Z</time>
      </trkpt>
      <trkpt lat="49.30315" lon="-0.31357">
        <ele>-0.4</ele>
        <time>2021-02-21T08:49:04Z</time>
      </trkpt>
      <trkpt lat="49.30313" lon="-0.31353">
        <ele>-0.4</ele>
        <time>2021-02-21T08:49:06Z</time>
      </trkpt>
      <trkpt lat="49.30311" lon="-0.31349">
        <ele>-0.4</ele>
        <time>2021-02-21T08:49:08Z</time>
      </trkpt>
      <trkpt lat="49.30309" lon="-0.31345">
        <ele>-0.5</ele>
        <time>2021-02-21T08:49:09Z</time>
      </trkpt>
      <trkpt lat="49.30308" lon="-0.31344">
        <ele>-0.5</ele>
        <time>2021-02-21T08:49:10Z</time>
      </trkpt>
      <trkpt lat="49.30307" lon="-0.3134">
        <ele>-0.5</ele>
        <time>2021-02-21T08:49:12Z</time>
      </trkpt>
      <trkpt lat="49.30307" lon="-0.31338">
        <ele>-0.5</ele>
        <time>2021-02-21T08:49:14Z</time>
      </trkpt>
      <trkpt lat="49.30306" lon="-0.31337">
        <ele>-0.5</ele>
        <time>2021-02-21T08:49:15Z</time>
      </trkpt>
      <trkpt lat="49.30306" lon="-0.31335">
        <ele>-0.5</ele>
        <time>2021-02-21T08:49:16Z</time>
      </trkpt>
      <trkpt lat="49.30306" lon="-0.31333">
        <ele>-0.5</ele>
        <time>2021-02-21T08:49:17Z</time>
      </trkpt>
      <trkpt lat="49.30306" lon="-0.31329">
        <ele>-0.4</ele>
        <time>2021-02-21T08:49:18Z</time>
      </trkpt>
      <trkpt lat="49.30306" lon="-0.31326">
        <ele>-0.4</ele>
        <time>2021-02-21T08:49:20Z</time>
      </trkpt>
      <trkpt lat="49.30306" lon="-0.31324">
        <ele>-0.4</ele>
        <time>2021-02-21T08:49:21Z</time>
      </trkpt>
      <trkpt lat="49.30306" lon="-0.31321">
        <ele>-0.4</ele>
        <time>2021-02-21T08:49:22Z</time>
      </trkpt>
      <trkpt lat="49.30306" lon="-0.31319">
        <ele>-0.4</ele>
        <time>2021-02-21T08:49:24Z</time>
      </trkpt>
      <trkpt lat="49.30306" lon="-0.31317">
        <ele>-0.4</ele>
        <time>2021-02-21T08:49:25Z</time>
      </trkpt>
      <trkpt lat="49.30306" lon="-0.31314">
        <ele>-0.3</ele>
        <time>2021-02-21T08:49:26Z</time>
      </trkpt>
      <trkpt lat="49.30306" lon="-0.31311">
        <ele>-0.3</ele>
        <time>2021-02-21T08:49:28Z</time>
      </trkpt>
      <trkpt lat="49.30305" lon="-0.31309">
        <ele>-0.3</ele>
        <time>2021-02-21T08:49:29Z</time>
      </trkpt>
      <trkpt lat="49.30305" lon="-0.31307">
        <ele>-0.3</ele>
        <time>2021-02-21T08:49:30Z</time>
      </trkpt>
      <trkpt lat="49.30304" lon="-0.31306">
        <ele>-0.3</ele>
        <time>2021-02-21T08:49:31Z</time>
      </trkpt>
      <trkpt lat="49.30303" lon="-0.31305">
        <ele>-0.3</ele>
        <time>2021-02-21T08:49:32Z</time>
      </trkpt>
      <trkpt lat="49.30302" lon="-0.31302">
        <ele>-0.2</ele>
        <time>2021-02-21T08:49:35Z</time>
      </trkpt>
      <trkpt lat="49.303" lon="-0.31298">
        <ele>-0.2</ele>
        <time>2021-02-21T08:49:37Z</time>
      </trkpt>
      <trkpt lat="49.303" lon="-0.31294">
        <ele>-0.2</ele>
        <time>2021-02-21T08:49:38Z</time>
      </trkpt>
      <trkpt lat="49.30299" lon="-0.3129">
        <ele>-0.2</ele>
        <time>2021-02-21T08:49:40Z</time>
      </trkpt>
      <trkpt lat="49.30297" lon="-0.31284">
        <ele>-0.2</ele>
        <time>2021-02-21T08:49:42Z</time>
      </trkpt>
      <trkpt lat="49.30296" lon="-0.31282">
        <ele>-0.2</ele>
        <time>2021-02-21T08:49:43Z</time>
      </trkpt>
      <trkpt lat="49.30296" lon="-0.3128">
        <ele>-0.2</ele>
        <time>2021-02-21T08:49:44Z</time>
      </trkpt>
      <trkpt lat="49.30294" lon="-0.31276">
        <ele>-0.2</ele>
        <time>2021-02-21T08:49:45Z</time>
      </trkpt>
      <trkpt lat="49.30293" lon="-0.31271">
        <ele>-0.2</ele>
        <time>2021-02-21T08:49:47Z</time>
      </trkpt>
      <trkpt lat="49.30292" lon="-0.31268">
        <ele>-0.2</ele>
        <time>2021-02-21T08:49:48Z</time>
      </trkpt>
      <trkpt lat="49.30292" lon="-0.31264">
        <ele>-0.2</ele>
        <time>2021-02-21T08:49:50Z</time>
      </trkpt>
      <trkpt lat="49.30291" lon="-0.3126">
        <ele>-0.2</ele>
        <time>2021-02-21T08:49:52Z</time>
      </trkpt>
      <trkpt lat="49.3029" lon="-0.31255">
        <ele>-0.2</ele>
        <time>2021-02-21T08:49:53Z</time>
      </trkpt>
      <trkpt lat="49.30289" lon="-0.31251">
        <ele>-0.2</ele>
        <time>2021-02-21T08:49:55Z</time>
      </trkpt>
      <trkpt lat="49.30288" lon="-0.31246">
        <ele>-0.2</ele>
        <time>2021-02-21T08:49:56Z</time>
      </trkpt>
      <trkpt lat="49.30287" lon="-0.31243">
        <ele>-0.2</ele>
        <time>2021-02-21T08:49:59Z</time>
      </trkpt>
      <trkpt lat="49.30286" lon="-0.31239">
        <ele>-0.2</ele>
        <time>2021-02-21T08:50:01Z</time>
      </trkpt>
      <trkpt lat="49.30286" lon="-0.31236">
        <ele>-0.2</ele>
        <time>2021-02-21T08:50:02Z</time>
      </trkpt>
      <trkpt lat="49.30285" lon="-0.31232">
        <ele>-0.2</ele>
        <time>2021-02-21T08:50:04Z</time>
      </trkpt>
      <trkpt lat="49.30283" lon="-0.31227">
        <ele>-0.2</ele>
        <time>2021-02-21T08:50:06Z</time>
      </trkpt>
      <trkpt lat="49.30283" lon="-0.31225">
        <ele>-0.2</ele>
        <time>2021-02-21T08:50:07Z</time>
      </trkpt>
      <trkpt lat="49.30282" lon="-0.31221">
        <ele>-0.1</ele>
        <time>2021-02-21T08:50:09Z</time>
      </trkpt>
      <trkpt lat="49.30281" lon="-0.31216">
        <ele>-0.1</ele>
        <time>2021-02-21T08:50:11Z</time>
      </trkpt>
      <trkpt lat="49.30281" lon="-0.31213">
        <ele>-0.1</ele>
        <time>2021-02-21T08:50:12Z</time>
      </trkpt>
      <trkpt lat="49.3028" lon="-0.3121">
        <ele>-0.1</ele>
        <time>2021-02-21T08:50:14Z</time>
      </trkpt>
      <trkpt lat="49.30279" lon="-0.31205">
        <ele>-0.1</ele>
        <time>2021-02-21T08:50:15Z</time>
      </trkpt>
      <trkpt lat="49.30278" lon="-0.31204">
        <ele>-0.1</ele>
        <time>2021-02-21T08:50:16Z</time>
      </trkpt>
      <trkpt lat="49.30277" lon="-0.312">
        <ele>-0.1</ele>
        <time>2021-02-21T08:50:18Z</time>
      </trkpt>
      <trkpt lat="49.30277" lon="-0.31198">
        <ele>-0.1</ele>
        <time>2021-02-21T08:50:19Z</time>
      </trkpt>
      <trkpt lat="49.30276" lon="-0.31196">
        <ele>-0.1</ele>
        <time>2021-02-21T08:50:21Z</time>
      </trkpt>
      <trkpt lat="49.30275" lon="-0.31194">
        <ele>-0.1</ele>
        <time>2021-02-21T08:50:22Z</time>
      </trkpt>
      <trkpt lat="49.30274" lon="-0.31189">
        <ele>-0.2</ele>
        <time>2021-02-21T08:50:24Z</time>
      </trkpt>
      <trkpt lat="49.30273" lon="-0.31186">
        <ele>-0.2</ele>
        <time>2021-02-21T08:50:25Z</time>
      </trkpt>
      <trkpt lat="49.30272" lon="-0.31182">
        <ele>-0.2</ele>
        <time>2021-02-21T08:50:27Z</time>
      </trkpt>
      <trkpt lat="49.30271" lon="-0.3118">
        <ele>-0.2</ele>
        <time>2021-02-21T08:50:28Z</time>
      </trkpt>
      <trkpt lat="49.3027" lon="-0.31178">
        <ele>-0.2</ele>
        <time>2021-02-21T08:50:29Z</time>
      </trkpt>
      <trkpt lat="49.30269" lon="-0.31174">
        <ele>-0.2</ele>
        <time>2021-02-21T08:50:31Z</time>
      </trkpt>
      <trkpt lat="49.30268" lon="-0.31171">
        <ele>-0.2</ele>
        <time>2021-02-21T08:50:33Z</time>
      </trkpt>
      <trkpt lat="49.30267" lon="-0.31168">
        <ele>-0.2</ele>
        <time>2021-02-21T08:50:34Z</time>
      </trkpt>
      <trkpt lat="49.30266" lon="-0.31164">
        <ele>-0.1</ele>
        <time>2021-02-21T08:50:36Z</time>
      </trkpt>
      <trkpt lat="49.30265" lon="-0.3116">
        <ele>-0.1</ele>
        <time>2021-02-21T08:50:37Z</time>
      </trkpt>
      <trkpt lat="49.30264" lon="-0.31158">
        <ele>-0.1</ele>
        <time>2021-02-21T08:50:38Z</time>
      </trkpt>
      <trkpt lat="49.30263" lon="-0.31154">
        <ele>-0.1</ele>
        <time>2021-02-21T08:50:40Z</time>
      </trkpt>
      <trkpt lat="49.30263" lon="-0.31153">
        <ele>-0.1</ele>
        <time>2021-02-21T08:50:41Z</time>
      </trkpt>
      <trkpt lat="49.30262" lon="-0.3115">
        <ele>-0.1</ele>
        <time>2021-02-21T08:50:42Z</time>
      </trkpt>
      <trkpt lat="49.30261" lon="-0.31147">
        <ele>-0.1</ele>
        <time>2021-02-21T08:50:45Z</time>
      </trkpt>
      <trkpt lat="49.3026" lon="-0.31144">
        <ele>-0.1</ele>
        <time>2021-02-21T08:50:46Z</time>
      </trkpt>
      <trkpt lat="49.30259" lon="-0.3114">
        <ele>-0.1</ele>
        <time>2021-02-21T08:50:48Z</time>
      </trkpt>
      <trkpt lat="49.30258" lon="-0.31136">
        <ele>-0.1</ele>
        <time>2021-02-21T08:50:49Z</time>
      </trkpt>
      <trkpt lat="49.30258" lon="-0.31134">
        <ele>-0.1</ele>
        <time>2021-02-21T08:50:50Z</time>
      </trkpt>
      <trkpt lat="49.30257" lon="-0.3113">
        <ele>-0.1</ele>
        <time>2021-02-21T08:50:52Z</time>
      </trkpt>
      <trkpt lat="49.30257" lon="-0.31127">
        <ele>-0.1</ele>
        <time>2021-02-21T08:50:53Z</time>
      </trkpt>
      <trkpt lat="49.30257" lon="-0.31125">
        <ele>-0.1</ele>
        <time>2021-02-21T08:50:54Z</time>
      </trkpt>
      <trkpt lat="49.30256" lon="-0.31122">
        <ele>-0.1</ele>
        <time>2021-02-21T08:50:55Z</time>
      </trkpt>
      <trkpt lat="49.30256" lon="-0.31119">
        <ele>-0.1</ele>
        <time>2021-02-21T08:50:57Z</time>
      </trkpt>
      <trkpt lat="49.30256" lon="-0.31116">
        <ele>-0.1</ele>
        <time>2021-02-21T08:50:58Z</time>
      </trkpt>
      <trkpt lat="49.30256" lon="-0.31115">
        <ele>-0.1</ele>
        <time>2021-02-21T08:50:59Z</time>
      </trkpt>
      <trkpt lat="49.30256" lon="-0.31114">
        <ele>-0.1</ele>
        <time>2021-02-21T08:51:00Z</time>
      </trkpt>
      <trkpt lat="49.30255" lon="-0.31111">
        <ele>-0.1</ele>
        <time>2021-02-21T08:51:02Z</time>
      </trkpt>
      <trkpt lat="49.30255" lon="-0.31109">
        <ele>-0.1</ele>
        <time>2021-02-21T08:51:03Z</time>
      </trkpt>
      <trkpt lat="49.30255" lon="-0.31107">
        <ele>-0.1</ele>
        <time>2021-02-21T08:51:04Z</time>
      </trkpt>
      <trkpt lat="49.30255" lon="-0.31105">
        <ele>-0.1</ele>
        <time>2021-02-21T08:51:05Z</time>
      </trkpt>
      <trkpt lat="49.30254" lon="-0.31102">
        <ele>-0.1</ele>
        <time>2021-02-21T08:51:07Z</time>
      </trkpt>
      <trkpt lat="49.30254" lon="-0.311">
        <ele>-0.1</ele>
        <time>2021-02-21T08:51:08Z</time>
      </trkpt>
      <trkpt lat="49.30253" lon="-0.31098">
        <ele>-0.1</ele>
        <time>2021-02-21T08:51:10Z</time>
      </trkpt>
      <trkpt lat="49.30253" lon="-0.31096">
        <ele>-0.1</ele>
        <time>2021-02-21T08:51:11Z</time>
      </trkpt>
      <trkpt lat="49.30252" lon="-0.31094">
        <ele>-0.1</ele>
        <time>2021-02-21T08:51:12Z</time>
      </trkpt>
      <trkpt lat="49.30252" lon="-0.31092">
        <ele>-0.1</ele>
        <time>2021-02-21T08:51:13Z</time>
      </trkpt>
      <trkpt lat="49.30252" lon="-0.31086">
        <ele>-0.1</ele>
        <time>2021-02-21T08:51:15Z</time>
      </trkpt>
      <trkpt lat="49.30253" lon="-0.31085">
        <ele>-0.1</ele>
        <time>2021-02-21T08:51:16Z</time>
      </trkpt>
      <trkpt lat="49.30253" lon="-0.31083">
        <ele>-0.1</ele>
        <time>2021-02-21T08:51:18Z</time>
      </trkpt>
      <trkpt lat="49.30254" lon="-0.31082">
        <ele>-0.1</ele>
        <time>2021-02-21T08:51:20Z</time>
      </trkpt>
      <trkpt lat="49.30254" lon="-0.3108">
        <ele>-0.1</ele>
        <time>2021-02-21T08:51:21Z</time>
      </trkpt>
      <trkpt lat="49.30255" lon="-0.31079">
        <ele>-0.1</ele>
        <time>2021-02-21T08:51:22Z</time>
      </trkpt>
      <trkpt lat="49.30256" lon="-0.31077">
        <ele>-0.1</ele>
        <time>2021-02-21T08:51:23Z</time>
      </trkpt>
      <trkpt lat="49.30257" lon="-0.31076">
        <ele>-0.1</ele>
        <time>2021-02-21T08:51:24Z</time>
      </trkpt>
      <trkpt lat="49.30259" lon="-0.31072">
        <time>2021-02-21T08:51:25Z</time>
      </trkpt>
      <trkpt lat="49.3026" lon="-0.31071">
        <time>2021-02-21T08:51:26Z</time>
      </trkpt>
      <trkpt lat="49.30262" lon="-0.31068">
        <time>2021-02-21T08:51:28Z</time>
      </trkpt>
      <trkpt lat="49.30263" lon="-0.31067">
        <time>2021-02-21T08:51:30Z</time>
      </trkpt>
      <trkpt lat="49.30265" lon="-0.31064">
        <time>2021-02-21T08:51:31Z</time>
      </trkpt>
      <trkpt lat="49.30266" lon="-0.31062">
        <time>2021-02-21T08:51:32Z</time>
      </trkpt>
      <trkpt lat="49.30267" lon="-0.3106">
        <time>2021-02-21T08:51:33Z</time>
      </trkpt>
      <trkpt lat="49.30269" lon="-0.31057">
        <time>2021-02-21T08:51:35Z</time>
      </trkpt>
      <trkpt lat="49.3027" lon="-0.31055">
        <time>2021-02-21T08:51:36Z</time>
      </trkpt>
      <trkpt lat="49.30271" lon="-0.31053">
        <time>2021-02-21T08:51:37Z</time>
      </trkpt>
      <trkpt lat="49.30271" lon="-0.3105">
        <time>2021-02-21T08:51:38Z</time>
      </trkpt>
      <trkpt lat="49.30272" lon="-0.31048">
        <time>2021-02-21T08:51:39Z</time>
      </trkpt>
      <trkpt lat="49.30273" lon="-0.31043">
        <time>2021-02-21T08:51:40Z</time>
      </trkpt>
      <trkpt lat="49.30273" lon="-0.31042">
        <time>2021-02-21T08:51:41Z</time>
      </trkpt>
      <trkpt lat="49.30273" lon="-0.31038">
        <time>2021-02-21T08:51:42Z</time>
      </trkpt>
      <trkpt lat="49.30274" lon="-0.31033">
        <time>2021-02-21T08:51:44Z</time>
      </trkpt>
      <trkpt lat="49.30274" lon="-0.31028">
        <time>2021-02-21T08:51:46Z</time>
      </trkpt>
      <trkpt lat="49.30274" lon="-0.31023">
        <time>2021-02-21T08:51:47Z</time>
      </trkpt>
      <trkpt lat="49.30273" lon="-0.31021">
        <time>2021-02-21T08:51:48Z</time>
      </trkpt>
      <trkpt lat="49.30273" lon="-0.31017">
        <time>2021-02-21T08:51:49Z</time>
      </trkpt>
      <trkpt lat="49.30273" lon="-0.31015">
        <time>2021-02-21T08:51:50Z</time>
      </trkpt>
      <trkpt lat="49.30272" lon="-0.31012">
        <time>2021-02-21T08:51:51Z</time>
      </trkpt>
      <trkpt lat="49.30271" lon="-0.31009">
        <time>2021-02-21T08:51:54Z</time>
      </trkpt>
      <trkpt lat="49.3027" lon="-0.31007">
        <time>2021-02-21T08:51:55Z</time>
      </trkpt>
      <trkpt lat="49.30269" lon="-0.31005">
        <time>2021-02-21T08:51:56Z</time>
      </trkpt>
      <trkpt lat="49.30267" lon="-0.31003">
        <time>2021-02-21T08:51:57Z</time>
      </trkpt>
      <trkpt lat="49.30265" lon="-0.31">
        <time>2021-02-21T08:51:59Z</time>
      </trkpt>
      <trkpt lat="49.30264" lon="-0.30998">
        <time>2021-02-21T08:52:00Z</time>
      </trkpt>
      <trkpt lat="49.30262" lon="-0.30995">
        <time>2021-02-21T08:52:02Z</time>
      </trkpt>
      <trkpt lat="49.30261" lon="-0.30994">
        <time>2021-02-21T08:52:03Z</time>
      </trkpt>
      <trkpt lat="49.3026" lon="-0.30992">
        <time>2021-02-21T08:52:04Z</time>
      </trkpt>
      <trkpt lat="49.30259" lon="-0.3099">
        <time>2021-02-21T08:52:05Z</time>
      </trkpt>
      <trkpt lat="49.30258" lon="-0.30989">
        <time>2021-02-21T08:52:06Z</time>
      </trkpt>
      <trkpt lat="49.30256" lon="-0.30988">
        <time>2021-02-21T08:52:07Z</time>
      </trkpt>
      <trkpt lat="49.30255" lon="-0.30987">
        <time>2021-02-21T08:52:08Z</time>
      </trkpt>
      <trkpt lat="49.30254" lon="-0.30986">
        <time>2021-02-21T08:52:09Z</time>
      </trkpt>
      <trkpt lat="49.30253" lon="-0.30984">
        <time>2021-02-21T08:52:10Z</time>
      </trkpt>
      <trkpt lat="49.30252" lon="-0.30983">
        <time>2021-02-21T08:52:12Z</time>
      </trkpt>
      <trkpt lat="49.3025" lon="-0.30982">
        <ele>1</ele>
        <time>2021-02-21T08:52:13Z</time>
      </trkpt>
      <trkpt lat="49.30247" lon="-0.30981">
        <ele>0.1</ele>
        <time>2021-02-21T08:52:14Z</time>
      </trkpt>
      <trkpt lat="49.30246" lon="-0.3098">
        <ele>0.1</ele>
        <time>2021-02-21T08:52:15Z</time>
      </trkpt>
      <trkpt lat="49.30243" lon="-0.30981">
        <ele>0.1</ele>
        <time>2021-02-21T08:52:17Z</time>
      </trkpt>
      <trkpt lat="49.30242" lon="-0.30981">
        <ele>0.1</ele>
        <time>2021-02-21T08:52:18Z</time>
      </trkpt>
      <trkpt lat="49.30239" lon="-0.30983">
        <ele>0.1</ele>
        <time>2021-02-21T08:52:19Z</time>
      </trkpt>
      <trkpt lat="49.30238" lon="-0.30984">
        <ele>0.1</ele>
        <time>2021-02-21T08:52:20Z</time>
      </trkpt>
      <trkpt lat="49.30236" lon="-0.30989">
        <ele>0.1</ele>
        <time>2021-02-21T08:52:22Z</time>
      </trkpt>
      <trkpt lat="49.30235" lon="-0.30991">
        <ele>0.1</ele>
        <time>2021-02-21T08:52:23Z</time>
      </trkpt>
      <trkpt lat="49.30234" lon="-0.30996">
        <ele>0.1</ele>
        <time>2021-02-21T08:52:24Z</time>
      </trkpt>
      <trkpt lat="49.30234" lon="-0.30997">
        <ele>0.1</ele>
        <time>2021-02-21T08:52:25Z</time>
      </trkpt>
      <trkpt lat="49.30233" lon="-0.30999">
        <ele>0.1</ele>
        <time>2021-02-21T08:52:26Z</time>
      </trkpt>
      <trkpt lat="49.30233" lon="-0.31002">
        <ele>0.1</ele>
        <time>2021-02-21T08:52:28Z</time>
      </trkpt>
      <trkpt lat="49.30233" lon="-0.31005">
        <ele>0.1</ele>
        <time>2021-02-21T08:52:29Z</time>
      </trkpt>
      <trkpt lat="49.30233" lon="-0.31007">
        <ele>0.1</ele>
        <time>2021-02-21T08:52:30Z</time>
      </trkpt>
      <trkpt lat="49.30233" lon="-0.3101">
        <ele>0.1</ele>
        <time>2021-02-21T08:52:31Z</time>
      </trkpt>
      <trkpt lat="49.30233" lon="-0.31013">
        <ele>0.1</ele>
        <time>2021-02-21T08:52:32Z</time>
      </trkpt>
      <trkpt lat="49.30233" lon="-0.31017">
        <ele>0.1</ele>
        <time>2021-02-21T08:52:34Z</time>
      </trkpt>
      <trkpt lat="49.30233" lon="-0.3102">
        <ele>0.1</ele>
        <time>2021-02-21T08:52:35Z</time>
      </trkpt>
      <trkpt lat="49.30234" lon="-0.31022">
        <ele>0.1</ele>
        <time>2021-02-21T08:52:36Z</time>
      </trkpt>
      <trkpt lat="49.30235" lon="-0.31024">
        <ele>0.1</ele>
        <time>2021-02-21T08:52:37Z</time>
      </trkpt>
      <trkpt lat="49.30236" lon="-0.31026">
        <ele>0.1</ele>
        <time>2021-02-21T08:52:38Z</time>
      </trkpt>
      <trkpt lat="49.30237" lon="-0.31028">
        <ele>0.1</ele>
        <time>2021-02-21T08:52:40Z</time>
      </trkpt>
      <trkpt lat="49.30238" lon="-0.31031">
        <ele>0.1</ele>
        <time>2021-02-21T08:52:42Z</time>
      </trkpt>
      <trkpt lat="49.30239" lon="-0.31033">
        <ele>0.1</ele>
        <time>2021-02-21T08:52:44Z</time>
      </trkpt>
      <trkpt lat="49.30238" lon="-0.31033">
        <ele>0.1</ele>
        <time>2021-02-21T08:52:45Z</time>
      </trkpt>
      <trkpt lat="49.30236" lon="-0.31034">
        <ele>0.1</ele>
        <time>2021-02-21T08:52:47Z</time>
      </trkpt>
      <trkpt lat="49.30236" lon="-0.31033">
        <ele>0.1</ele>
        <time>2021-02-21T08:52:48Z</time>
      </trkpt>
      <trkpt lat="49.30234" lon="-0.31032">
        <ele>0.1</ele>
        <time>2021-02-21T08:52:49Z</time>
      </trkpt>
      <trkpt lat="49.30232" lon="-0.3103">
        <ele>0.1</ele>
        <time>2021-02-21T08:52:50Z</time>
      </trkpt>
      <trkpt lat="49.30231" lon="-0.31028">
        <ele>0.1</ele>
        <time>2021-02-21T08:52:52Z</time>
      </trkpt>
      <trkpt lat="49.30228" lon="-0.31025">
        <ele>0.1</ele>
        <time>2021-02-21T08:52:53Z</time>
      </trkpt>
      <trkpt lat="49.30228" lon="-0.31024">
        <ele>0.1</ele>
        <time>2021-02-21T08:52:54Z</time>
      </trkpt>
      <trkpt lat="49.30227" lon="-0.31023">
        <ele>0.1</ele>
        <time>2021-02-21T08:52:55Z</time>
      </trkpt>
      <trkpt lat="49.30225" lon="-0.31021">
        <ele>0.2</ele>
        <time>2021-02-21T08:52:57Z</time>
      </trkpt>
      <trkpt lat="49.30223" lon="-0.31019">
        <ele>0.2</ele>
        <time>2021-02-21T08:52:58Z</time>
      </trkpt>
      <trkpt lat="49.30221" lon="-0.31017">
        <ele>0.2</ele>
        <time>2021-02-21T08:53:00Z</time>
      </trkpt>
      <trkpt lat="49.3022" lon="-0.31016">
        <ele>0.2</ele>
        <time>2021-02-21T08:53:01Z</time>
      </trkpt>
      <trkpt lat="49.30217" lon="-0.31012">
        <ele>0.2</ele>
        <time>2021-02-21T08:53:03Z</time>
      </trkpt>
      <trkpt lat="49.30217" lon="-0.31012">
        <ele>0.2</ele>
        <time>2021-02-21T08:53:04Z</time>
      </trkpt>
      <trkpt lat="49.30216" lon="-0.3101">
        <ele>0.2</ele>
        <time>2021-02-21T08:53:05Z</time>
      </trkpt>
      <trkpt lat="49.30214" lon="-0.31007">
        <ele>0.2</ele>
        <time>2021-02-21T08:53:07Z</time>
      </trkpt>
      <trkpt lat="49.30212" lon="-0.31003">
        <ele>0.2</ele>
        <time>2021-02-21T08:53:08Z</time>
      </trkpt>
      <trkpt lat="49.30211" lon="-0.31">
        <ele>0.2</ele>
        <time>2021-02-21T08:53:09Z</time>
      </trkpt>
      <trkpt lat="49.3021" lon="-0.30999">
        <ele>0.2</ele>
        <time>2021-02-21T08:53:10Z</time>
      </trkpt>
      <trkpt lat="49.30209" lon="-0.30996">
        <ele>0.2</ele>
        <time>2021-02-21T08:53:11Z</time>
      </trkpt>
      <trkpt lat="49.30209" lon="-0.30994">
        <ele>0.2</ele>
        <time>2021-02-21T08:53:12Z</time>
      </trkpt>
      <trkpt lat="49.30209" lon="-0.3099">
        <ele>0.2</ele>
        <time>2021-02-21T08:53:14Z</time>
      </trkpt>
      <trkpt lat="49.30209" lon="-0.30986">
        <ele>0.2</ele>
        <time>2021-02-21T08:53:16Z</time>
      </trkpt>
      <trkpt lat="49.30209" lon="-0.30983">
        <ele>0.2</ele>
        <time>2021-02-21T08:53:17Z</time>
      </trkpt>
      <trkpt lat="49.30209" lon="-0.30979">
        <ele>0.2</ele>
        <time>2021-02-21T08:53:19Z</time>
      </trkpt>
      <trkpt lat="49.3021" lon="-0.30975">
        <ele>0.2</ele>
        <time>2021-02-21T08:53:20Z</time>
      </trkpt>
      <trkpt lat="49.3021" lon="-0.30973">
        <ele>0.2</ele>
        <time>2021-02-21T08:53:21Z</time>
      </trkpt>
      <trkpt lat="49.30211" lon="-0.30969">
        <ele>0.2</ele>
        <time>2021-02-21T08:53:22Z</time>
      </trkpt>
      <trkpt lat="49.30211" lon="-0.30967">
        <ele>0.2</ele>
        <time>2021-02-21T08:53:23Z</time>
      </trkpt>
      <trkpt lat="49.30214" lon="-0.30962">
        <ele>0.2</ele>
        <time>2021-02-21T08:53:26Z</time>
      </trkpt>
      <trkpt lat="49.30215" lon="-0.30959">
        <ele>0.2</ele>
        <time>2021-02-21T08:53:27Z</time>
      </trkpt>
      <trkpt lat="49.30216" lon="-0.30954">
        <ele>0.2</ele>
        <time>2021-02-21T08:53:29Z</time>
      </trkpt>
      <trkpt lat="49.30216" lon="-0.30953">
        <ele>0.2</ele>
        <time>2021-02-21T08:53:30Z</time>
      </trkpt>
      <trkpt lat="49.30217" lon="-0.30952">
        <ele>0.2</ele>
        <time>2021-02-21T08:53:32Z</time>
      </trkpt>
      <trkpt lat="49.30218" lon="-0.3095">
        <ele>0.2</ele>
        <time>2021-02-21T08:53:33Z</time>
      </trkpt>
      <trkpt lat="49.30218" lon="-0.30949">
        <ele>0.2</ele>
        <time>2021-02-21T08:53:34Z</time>
      </trkpt>
      <trkpt lat="49.30218" lon="-0.30946">
        <ele>0.2</ele>
        <time>2021-02-21T08:53:36Z</time>
      </trkpt>
      <trkpt lat="49.30218" lon="-0.30944">
        <ele>0.2</ele>
        <time>2021-02-21T08:53:37Z</time>
      </trkpt>
      <trkpt lat="49.30218" lon="-0.30943">
        <ele>0.2</ele>
        <time>2021-02-21T08:53:38Z</time>
      </trkpt>
      <trkpt lat="49.30219" lon="-0.30942">
        <ele>0.2</ele>
        <time>2021-02-21T08:53:39Z</time>
      </trkpt>
      <trkpt lat="49.3022" lon="-0.3094">
        <ele>0.2</ele>
        <time>2021-02-21T08:53:41Z</time>
      </trkpt>
      <trkpt lat="49.30221" lon="-0.30937">
        <ele>0.2</ele>
        <time>2021-02-21T08:53:42Z</time>
      </trkpt>
      <trkpt lat="49.30223" lon="-0.30934">
        <ele>0.2</ele>
        <time>2021-02-21T08:53:44Z</time>
      </trkpt>
      <trkpt lat="49.30224" lon="-0.30932">
        <ele>0.2</ele>
        <time>2021-02-21T08:53:45Z</time>
      </trkpt>
      <trkpt lat="49.30226" lon="-0.3093">
        <ele>0.2</ele>
        <time>2021-02-21T08:53:46Z</time>
      </trkpt>
      <trkpt lat="49.30227" lon="-0.30926">
        <ele>0.2</ele>
        <time>2021-02-21T08:53:47Z</time>
      </trkpt>
      <trkpt lat="49.30227" lon="-0.30925">
        <ele>0.2</ele>
        <time>2021-02-21T08:53:49Z</time>
      </trkpt>
      <trkpt lat="49.3023" lon="-0.3092">
        <ele>0.2</ele>
        <time>2021-02-21T08:53:51Z</time>
      </trkpt>
      <trkpt lat="49.3023" lon="-0.30918">
        <ele>0.2</ele>
        <time>2021-02-21T08:53:52Z</time>
      </trkpt>
      <trkpt lat="49.30231" lon="-0.30917">
        <ele>0.2</ele>
        <time>2021-02-21T08:53:53Z</time>
      </trkpt>
      <trkpt lat="49.30232" lon="-0.30913">
        <ele>0.2</ele>
        <time>2021-02-21T08:53:55Z</time>
      </trkpt>
      <trkpt lat="49.30233" lon="-0.30909">
        <ele>0.2</ele>
        <time>2021-02-21T08:53:57Z</time>
      </trkpt>
      <trkpt lat="49.30234" lon="-0.30906">
        <ele>0.2</ele>
        <time>2021-02-21T08:53:58Z</time>
      </trkpt>
      <trkpt lat="49.30235" lon="-0.30902">
        <ele>0.3</ele>
        <time>2021-02-21T08:54:00Z</time>
      </trkpt>
      <trkpt lat="49.30236" lon="-0.30895">
        <ele>0.3</ele>
        <time>2021-02-21T08:54:02Z</time>
      </trkpt>
      <trkpt lat="49.30237" lon="-0.30893">
        <ele>0.3</ele>
        <time>2021-02-21T08:54:03Z</time>
      </trkpt>
      <trkpt lat="49.30237" lon="-0.30891">
        <ele>0.3</ele>
        <time>2021-02-21T08:54:04Z</time>
      </trkpt>
      <trkpt lat="49.30238" lon="-0.30887">
        <ele>0.3</ele>
        <time>2021-02-21T08:54:06Z</time>
      </trkpt>
      <trkpt lat="49.30238" lon="-0.30882">
        <ele>0.3</ele>
        <time>2021-02-21T08:54:08Z</time>
      </trkpt>
      <trkpt lat="49.30238" lon="-0.30878">
        <ele>0.3</ele>
        <time>2021-02-21T08:54:09Z</time>
      </trkpt>
      <trkpt lat="49.30238" lon="-0.30876">
        <ele>0.3</ele>
        <time>2021-02-21T08:54:10Z</time>
      </trkpt>
      <trkpt lat="49.30237" lon="-0.30871">
        <ele>0.3</ele>
        <time>2021-02-21T08:54:13Z</time>
      </trkpt>
      <trkpt lat="49.30237" lon="-0.30869">
        <ele>0.3</ele>
        <time>2021-02-21T08:54:14Z</time>
      </trkpt>
      <trkpt lat="49.30236" lon="-0.30864">
        <ele>0.3</ele>
        <time>2021-02-21T08:54:16Z</time>
      </trkpt>
      <trkpt lat="49.30236" lon="-0.30863">
        <ele>0.3</ele>
        <time>2021-02-21T08:54:17Z</time>
      </trkpt>
      <trkpt lat="49.30235" lon="-0.30857">
        <ele>0.3</ele>
        <time>2021-02-21T08:54:19Z</time>
      </trkpt>
      <trkpt lat="49.30234" lon="-0.30855">
        <ele>0.3</ele>
        <time>2021-02-21T08:54:20Z</time>
      </trkpt>
      <trkpt lat="49.30234" lon="-0.30853">
        <ele>0.3</ele>
        <time>2021-02-21T08:54:21Z</time>
      </trkpt>
      <trkpt lat="49.30233" lon="-0.30848">
        <ele>0.3</ele>
        <time>2021-02-21T08:54:23Z</time>
      </trkpt>
      <trkpt lat="49.30233" lon="-0.30846">
        <ele>0.3</ele>
        <time>2021-02-21T08:54:24Z</time>
      </trkpt>
      <trkpt lat="49.30232" lon="-0.30844">
        <ele>0.3</ele>
        <time>2021-02-21T08:54:25Z</time>
      </trkpt>
      <trkpt lat="49.30231" lon="-0.30841">
        <ele>0.3</ele>
        <time>2021-02-21T08:54:26Z</time>
      </trkpt>
      <trkpt lat="49.3023" lon="-0.30836">
        <ele>0.3</ele>
        <time>2021-02-21T08:54:28Z</time>
      </trkpt>
      <trkpt lat="49.30229" lon="-0.30834">
        <ele>0.3</ele>
        <time>2021-02-21T08:54:29Z</time>
      </trkpt>
      <trkpt lat="49.30228" lon="-0.3083">
        <ele>0.3</ele>
        <time>2021-02-21T08:54:30Z</time>
      </trkpt>
      <trkpt lat="49.30227" lon="-0.30824">
        <ele>0.3</ele>
        <time>2021-02-21T08:54:32Z</time>
      </trkpt>
      <trkpt lat="49.30226" lon="-0.30822">
        <ele>0.3</ele>
        <time>2021-02-21T08:54:33Z</time>
      </trkpt>
      <trkpt lat="49.30225" lon="-0.30817">
        <ele>0.3</ele>
        <time>2021-02-21T08:54:36Z</time>
      </trkpt>
      <trkpt lat="49.30225" lon="-0.30816">
        <ele>0.3</ele>
        <time>2021-02-21T08:54:37Z</time>
      </trkpt>
      <trkpt lat="49.30224" lon="-0.30812">
        <ele>0.3</ele>
        <time>2021-02-21T08:54:39Z</time>
      </trkpt>
      <trkpt lat="49.30223" lon="-0.30809">
        <ele>0.3</ele>
        <time>2021-02-21T08:54:40Z</time>
      </trkpt>
      <trkpt lat="49.30222" lon="-0.30805">
        <ele>0.3</ele>
        <time>2021-02-21T08:54:42Z</time>
      </trkpt>
      <trkpt lat="49.30221" lon="-0.30802">
        <ele>0.3</ele>
        <time>2021-02-21T08:54:43Z</time>
      </trkpt>
      <trkpt lat="49.3022" lon="-0.30799">
        <ele>0.3</ele>
        <time>2021-02-21T08:54:45Z</time>
      </trkpt>
      <trkpt lat="49.30219" lon="-0.30797">
        <ele>0.3</ele>
        <time>2021-02-21T08:54:46Z</time>
      </trkpt>
      <trkpt lat="49.30218" lon="-0.30795">
        <ele>0.3</ele>
        <time>2021-02-21T08:54:47Z</time>
      </trkpt>
      <trkpt lat="49.30217" lon="-0.30792">
        <ele>0.3</ele>
        <time>2021-02-21T08:54:49Z</time>
      </trkpt>
      <trkpt lat="49.30215" lon="-0.30788">
        <ele>0.3</ele>
        <time>2021-02-21T08:54:51Z</time>
      </trkpt>
      <trkpt lat="49.30215" lon="-0.30786">
        <ele>0.3</ele>
        <time>2021-02-21T08:54:52Z</time>
      </trkpt>
      <trkpt lat="49.30213" lon="-0.30782">
        <ele>0.3</ele>
        <time>2021-02-21T08:54:54Z</time>
      </trkpt>
      <trkpt lat="49.30211" lon="-0.30777">
        <ele>0.3</ele>
        <time>2021-02-21T08:54:56Z</time>
      </trkpt>
      <trkpt lat="49.30211" lon="-0.30775">
        <ele>0.3</ele>
        <time>2021-02-21T08:54:58Z</time>
      </trkpt>
      <trkpt lat="49.3021" lon="-0.30773">
        <ele>0.4</ele>
        <time>2021-02-21T08:54:59Z</time>
      </trkpt>
      <trkpt lat="49.30209" lon="-0.3077">
        <ele>0.4</ele>
        <time>2021-02-21T08:55:01Z</time>
      </trkpt>
      <trkpt lat="49.30209" lon="-0.30768">
        <ele>0.4</ele>
        <time>2021-02-21T08:55:02Z</time>
      </trkpt>
      <trkpt lat="49.30208" lon="-0.30766">
        <ele>0.4</ele>
        <time>2021-02-21T08:55:03Z</time>
      </trkpt>
      <trkpt lat="49.30207" lon="-0.30764">
        <ele>0.4</ele>
        <time>2021-02-21T08:55:04Z</time>
      </trkpt>
      <trkpt lat="49.30206" lon="-0.30761">
        <ele>0.4</ele>
        <time>2021-02-21T08:55:05Z</time>
      </trkpt>
      <trkpt lat="49.30205" lon="-0.30758">
        <ele>0.4</ele>
        <time>2021-02-21T08:55:07Z</time>
      </trkpt>
      <trkpt lat="49.30204" lon="-0.30753">
        <ele>0.4</ele>
        <time>2021-02-21T08:55:08Z</time>
      </trkpt>
      <trkpt lat="49.30203" lon="-0.30751">
        <ele>0.4</ele>
        <time>2021-02-21T08:55:09Z</time>
      </trkpt>
      <trkpt lat="49.30201" lon="-0.30746">
        <ele>0.4</ele>
        <time>2021-02-21T08:55:11Z</time>
      </trkpt>
      <trkpt lat="49.302" lon="-0.30745">
        <ele>0.4</ele>
        <time>2021-02-21T08:55:12Z</time>
      </trkpt>
      <trkpt lat="49.30199" lon="-0.30741">
        <ele>0.4</ele>
        <time>2021-02-21T08:55:14Z</time>
      </trkpt>
      <trkpt lat="49.30198" lon="-0.3074">
        <ele>0.4</ele>
        <time>2021-02-21T08:55:15Z</time>
      </trkpt>
      <trkpt lat="49.30197" lon="-0.30736">
        <ele>0.4</ele>
        <time>2021-02-21T08:55:17Z</time>
      </trkpt>
      <trkpt lat="49.30196" lon="-0.30733">
        <ele>0.4</ele>
        <time>2021-02-21T08:55:18Z</time>
      </trkpt>
      <trkpt lat="49.30194" lon="-0.3073">
        <ele>0.4</ele>
        <time>2021-02-21T08:55:20Z</time>
      </trkpt>
      <trkpt lat="49.30192" lon="-0.30727">
        <ele>0.4</ele>
        <time>2021-02-21T08:55:23Z</time>
      </trkpt>
      <trkpt lat="49.30191" lon="-0.30725">
        <ele>0.4</ele>
        <time>2021-02-21T08:55:24Z</time>
      </trkpt>
      <trkpt lat="49.3019" lon="-0.30723">
        <ele>0.4</ele>
        <time>2021-02-21T08:55:25Z</time>
      </trkpt>
      <trkpt lat="49.30188" lon="-0.3072">
        <ele>0.4</ele>
        <time>2021-02-21T08:55:26Z</time>
      </trkpt>
      <trkpt lat="49.30187" lon="-0.30717">
        <ele>0.4</ele>
        <time>2021-02-21T08:55:28Z</time>
      </trkpt>
      <trkpt lat="49.30185" lon="-0.30715">
        <ele>0.4</ele>
        <time>2021-02-21T08:55:29Z</time>
      </trkpt>
      <trkpt lat="49.30183" lon="-0.30712">
        <ele>0.4</ele>
        <time>2021-02-21T08:55:31Z</time>
      </trkpt>
      <trkpt lat="49.30181" lon="-0.3071">
        <ele>0.4</ele>
        <time>2021-02-21T08:55:32Z</time>
      </trkpt>
      <trkpt lat="49.3018" lon="-0.30707">
        <ele>0.4</ele>
        <time>2021-02-21T08:55:34Z</time>
      </trkpt>
      <trkpt lat="49.30178" lon="-0.30704">
        <ele>0.4</ele>
        <time>2021-02-21T08:55:35Z</time>
      </trkpt>
      <trkpt lat="49.30176" lon="-0.30702">
        <ele>0.4</ele>
        <time>2021-02-21T08:55:37Z</time>
      </trkpt>
      <trkpt lat="49.30175" lon="-0.307">
        <ele>0.4</ele>
        <time>2021-02-21T08:55:38Z</time>
      </trkpt>
      <trkpt lat="49.30174" lon="-0.30698">
        <ele>0.4</ele>
        <time>2021-02-21T08:55:39Z</time>
      </trkpt>
      <trkpt lat="49.30172" lon="-0.30696">
        <ele>0.4</ele>
        <time>2021-02-21T08:55:40Z</time>
      </trkpt>
      <trkpt lat="49.30171" lon="-0.30694">
        <ele>0.4</ele>
        <time>2021-02-21T08:55:42Z</time>
      </trkpt>
      <trkpt lat="49.30168" lon="-0.3069">
        <ele>0.4</ele>
        <time>2021-02-21T08:55:43Z</time>
      </trkpt>
      <trkpt lat="49.30168" lon="-0.30689">
        <ele>0.4</ele>
        <time>2021-02-21T08:55:45Z</time>
      </trkpt>
      <trkpt lat="49.30167" lon="-0.30687">
        <ele>0.4</ele>
        <time>2021-02-21T08:55:47Z</time>
      </trkpt>
      <trkpt lat="49.30165" lon="-0.30685">
        <ele>0.4</ele>
        <time>2021-02-21T08:55:48Z</time>
      </trkpt>
      <trkpt lat="49.30164" lon="-0.30682">
        <ele>0.4</ele>
        <time>2021-02-21T08:55:49Z</time>
      </trkpt>
      <trkpt lat="49.30162" lon="-0.30679">
        <ele>0.4</ele>
        <time>2021-02-21T08:55:51Z</time>
      </trkpt>
      <trkpt lat="49.30161" lon="-0.30675">
        <ele>0.4</ele>
        <time>2021-02-21T08:55:52Z</time>
      </trkpt>
      <trkpt lat="49.30161" lon="-0.30674">
        <ele>0.4</ele>
        <time>2021-02-21T08:55:53Z</time>
      </trkpt>
      <trkpt lat="49.3016" lon="-0.30669">
        <ele>0.5</ele>
        <time>2021-02-21T08:55:54Z</time>
      </trkpt>
      <trkpt lat="49.30158" lon="-0.30666">
        <ele>0.5</ele>
        <time>2021-02-21T08:55:56Z</time>
      </trkpt>
      <trkpt lat="49.30157" lon="-0.30662">
        <ele>0.5</ele>
        <time>2021-02-21T08:55:58Z</time>
      </trkpt>
      <trkpt lat="49.30157" lon="-0.30661">
        <ele>0.5</ele>
        <time>2021-02-21T08:55:59Z</time>
      </trkpt>
      <trkpt lat="49.30155" lon="-0.30659">
        <ele>0.5</ele>
        <time>2021-02-21T08:56:00Z</time>
      </trkpt>
      <trkpt lat="49.30154" lon="-0.30656">
        <ele>0.5</ele>
        <time>2021-02-21T08:56:02Z</time>
      </trkpt>
      <trkpt lat="49.30153" lon="-0.30654">
        <ele>0.5</ele>
        <time>2021-02-21T08:56:03Z</time>
      </trkpt>
      <trkpt lat="49.30153" lon="-0.30652">
        <ele>0.5</ele>
        <time>2021-02-21T08:56:04Z</time>
      </trkpt>
      <trkpt lat="49.30151" lon="-0.30649">
        <ele>0.5</ele>
        <time>2021-02-21T08:56:06Z</time>
      </trkpt>
      <trkpt lat="49.3015" lon="-0.30645">
        <ele>0.5</ele>
        <time>2021-02-21T08:56:09Z</time>
      </trkpt>
      <trkpt lat="49.30149" lon="-0.30643">
        <ele>0.5</ele>
        <time>2021-02-21T08:56:10Z</time>
      </trkpt>
      <trkpt lat="49.30148" lon="-0.3064">
        <ele>0.5</ele>
        <time>2021-02-21T08:56:11Z</time>
      </trkpt>
      <trkpt lat="49.30147" lon="-0.30637">
        <ele>0.5</ele>
        <time>2021-02-21T08:56:13Z</time>
      </trkpt>
      <trkpt lat="49.30146" lon="-0.30632">
        <ele>0.5</ele>
        <time>2021-02-21T08:56:15Z</time>
      </trkpt>
      <trkpt lat="49.30144" lon="-0.30627">
        <ele>0.5</ele>
        <time>2021-02-21T08:56:16Z</time>
      </trkpt>
      <trkpt lat="49.30144" lon="-0.30625">
        <ele>0.5</ele>
        <time>2021-02-21T08:56:17Z</time>
      </trkpt>
      <trkpt lat="49.30142" lon="-0.3062">
        <ele>0.5</ele>
        <time>2021-02-21T08:56:19Z</time>
      </trkpt>
      <trkpt lat="49.30141" lon="-0.30618">
        <ele>0.5</ele>
        <time>2021-02-21T08:56:20Z</time>
      </trkpt>
      <trkpt lat="49.30141" lon="-0.30615">
        <ele>0.5</ele>
        <time>2021-02-21T08:56:22Z</time>
      </trkpt>
      <trkpt lat="49.3014" lon="-0.30613">
        <ele>0.5</ele>
        <time>2021-02-21T08:56:23Z</time>
      </trkpt>
      <trkpt lat="49.30139" lon="-0.30611">
        <ele>0.5</ele>
        <time>2021-02-21T08:56:24Z</time>
      </trkpt>
      <trkpt lat="49.30138" lon="-0.30608">
        <ele>0.5</ele>
        <time>2021-02-21T08:56:26Z</time>
      </trkpt>
      <trkpt lat="49.30137" lon="-0.30604">
        <ele>0.5</ele>
        <time>2021-02-21T08:56:27Z</time>
      </trkpt>
      <trkpt lat="49.30136" lon="-0.30603">
        <ele>0.5</ele>
        <time>2021-02-21T08:56:28Z</time>
      </trkpt>
      <trkpt lat="49.30136" lon="-0.30601">
        <ele>0.5</ele>
        <time>2021-02-21T08:56:31Z</time>
      </trkpt>
      <trkpt lat="49.30135" lon="-0.30598">
        <ele>0.5</ele>
        <time>2021-02-21T08:56:32Z</time>
      </trkpt>
      <trkpt lat="49.30134" lon="-0.30595">
        <ele>0.5</ele>
        <time>2021-02-21T08:56:34Z</time>
      </trkpt>
      <trkpt lat="49.30133" lon="-0.30593">
        <ele>0.5</ele>
        <time>2021-02-21T08:56:35Z</time>
      </trkpt>
      <trkpt lat="49.30132" lon="-0.3059">
        <ele>0.5</ele>
        <time>2021-02-21T08:56:36Z</time>
      </trkpt>
      <trkpt lat="49.30131" lon="-0.30587">
        <ele>0.5</ele>
        <time>2021-02-21T08:56:38Z</time>
      </trkpt>
      <trkpt lat="49.3013" lon="-0.30583">
        <ele>0.5</ele>
        <time>2021-02-21T08:56:39Z</time>
      </trkpt>
      <trkpt lat="49.3013" lon="-0.30582">
        <ele>0.5</ele>
        <time>2021-02-21T08:56:40Z</time>
      </trkpt>
      <trkpt lat="49.30129" lon="-0.30578">
        <ele>0.5</ele>
        <time>2021-02-21T08:56:42Z</time>
      </trkpt>
      <trkpt lat="49.30127" lon="-0.30574">
        <ele>0.5</ele>
        <time>2021-02-21T08:56:44Z</time>
      </trkpt>
      <trkpt lat="49.30126" lon="-0.30571">
        <ele>0.5</ele>
        <time>2021-02-21T08:56:45Z</time>
      </trkpt>
      <trkpt lat="49.30125" lon="-0.30567">
        <ele>0.5</ele>
        <time>2021-02-21T08:56:47Z</time>
      </trkpt>
      <trkpt lat="49.30125" lon="-0.30565">
        <ele>0.5</ele>
        <time>2021-02-21T08:56:48Z</time>
      </trkpt>
      <trkpt lat="49.30124" lon="-0.30563">
        <ele>0.5</ele>
        <time>2021-02-21T08:56:49Z</time>
      </trkpt>
      <trkpt lat="49.30122" lon="-0.30559">
        <ele>0.5</ele>
        <time>2021-02-21T08:56:50Z</time>
      </trkpt>
      <trkpt lat="49.30121" lon="-0.30557">
        <ele>0.6</ele>
        <time>2021-02-21T08:56:51Z</time>
      </trkpt>
      <trkpt lat="49.30119" lon="-0.30552">
        <ele>0.6</ele>
        <time>2021-02-21T08:56:54Z</time>
      </trkpt>
      <trkpt lat="49.30118" lon="-0.3055">
        <ele>0.6</ele>
        <time>2021-02-21T08:56:55Z</time>
      </trkpt>
      <trkpt lat="49.30117" lon="-0.30545">
        <ele>0.6</ele>
        <time>2021-02-21T08:56:57Z</time>
      </trkpt>
      <trkpt lat="49.30116" lon="-0.30543">
        <ele>0.6</ele>
        <time>2021-02-21T08:56:58Z</time>
      </trkpt>
      <trkpt lat="49.30115" lon="-0.30539">
        <ele>0.6</ele>
        <time>2021-02-21T08:57:00Z</time>
      </trkpt>
      <trkpt lat="49.30114" lon="-0.30537">
        <ele>0.6</ele>
        <time>2021-02-21T08:57:01Z</time>
      </trkpt>
      <trkpt lat="49.30113" lon="-0.30534">
        <ele>0.6</ele>
        <time>2021-02-21T08:57:02Z</time>
      </trkpt>
      <trkpt lat="49.30112" lon="-0.30533">
        <ele>0.6</ele>
        <time>2021-02-21T08:57:03Z</time>
      </trkpt>
      <trkpt lat="49.30111" lon="-0.30528">
        <ele>0.6</ele>
        <time>2021-02-21T08:57:05Z</time>
      </trkpt>
      <trkpt lat="49.3011" lon="-0.30527">
        <ele>0.6</ele>
        <time>2021-02-21T08:57:06Z</time>
      </trkpt>
      <trkpt lat="49.30109" lon="-0.30523">
        <ele>0.6</ele>
        <time>2021-02-21T08:57:08Z</time>
      </trkpt>
      <trkpt lat="49.30108" lon="-0.30519">
        <ele>0.6</ele>
        <time>2021-02-21T08:57:10Z</time>
      </trkpt>
      <trkpt lat="49.30106" lon="-0.30516">
        <ele>0.6</ele>
        <time>2021-02-21T08:57:11Z</time>
      </trkpt>
      <trkpt lat="49.30105" lon="-0.30512">
        <ele>0.6</ele>
        <time>2021-02-21T08:57:13Z</time>
      </trkpt>
      <trkpt lat="49.30103" lon="-0.30506">
        <ele>0.6</ele>
        <time>2021-02-21T08:57:15Z</time>
      </trkpt>
      <trkpt lat="49.30102" lon="-0.30503">
        <ele>0.6</ele>
        <time>2021-02-21T08:57:17Z</time>
      </trkpt>
      <trkpt lat="49.30101" lon="-0.30501">
        <ele>0.6</ele>
        <time>2021-02-21T08:57:18Z</time>
      </trkpt>
      <trkpt lat="49.30099" lon="-0.30496">
        <ele>0.6</ele>
        <time>2021-02-21T08:57:20Z</time>
      </trkpt>
      <trkpt lat="49.30098" lon="-0.30494">
        <ele>0.6</ele>
        <time>2021-02-21T08:57:21Z</time>
      </trkpt>
      <trkpt lat="49.30096" lon="-0.3049">
        <ele>0.6</ele>
        <time>2021-02-21T08:57:23Z</time>
      </trkpt>
      <trkpt lat="49.30095" lon="-0.30489">
        <ele>0.6</ele>
        <time>2021-02-21T08:57:24Z</time>
      </trkpt>
      <trkpt lat="49.30094" lon="-0.30487">
        <ele>0.6</ele>
        <time>2021-02-21T08:57:25Z</time>
      </trkpt>
      <trkpt lat="49.30093" lon="-0.30484">
        <ele>0.6</ele>
        <time>2021-02-21T08:57:27Z</time>
      </trkpt>
      <trkpt lat="49.30091" lon="-0.3048">
        <ele>0.6</ele>
        <time>2021-02-21T08:57:28Z</time>
      </trkpt>
      <trkpt lat="49.3009" lon="-0.30478">
        <ele>0.6</ele>
        <time>2021-02-21T08:57:29Z</time>
      </trkpt>
      <trkpt lat="49.3009" lon="-0.30476">
        <ele>0.6</ele>
        <time>2021-02-21T08:57:30Z</time>
      </trkpt>
      <trkpt lat="49.30089" lon="-0.30473">
        <ele>0.6</ele>
        <time>2021-02-21T08:57:32Z</time>
      </trkpt>
      <trkpt lat="49.30088" lon="-0.30471">
        <ele>0.6</ele>
        <time>2021-02-21T08:57:33Z</time>
      </trkpt>
      <trkpt lat="49.30087" lon="-0.30467">
        <ele>0.6</ele>
        <time>2021-02-21T08:57:35Z</time>
      </trkpt>
      <trkpt lat="49.30085" lon="-0.30463">
        <ele>0.6</ele>
        <time>2021-02-21T08:57:37Z</time>
      </trkpt>
      <trkpt lat="49.30084" lon="-0.30462">
        <ele>0.6</ele>
        <time>2021-02-21T08:57:38Z</time>
      </trkpt>
      <trkpt lat="49.30083" lon="-0.30457">
        <ele>0.6</ele>
        <time>2021-02-21T08:57:41Z</time>
      </trkpt>
      <trkpt lat="49.30082" lon="-0.30456">
        <ele>0.6</ele>
        <time>2021-02-21T08:57:42Z</time>
      </trkpt>
      <trkpt lat="49.30081" lon="-0.30452">
        <ele>0.6</ele>
        <time>2021-02-21T08:57:43Z</time>
      </trkpt>
      <trkpt lat="49.3008" lon="-0.30449">
        <ele>0.6</ele>
        <time>2021-02-21T08:57:45Z</time>
      </trkpt>
      <trkpt lat="49.30079" lon="-0.30446">
        <ele>0.6</ele>
        <time>2021-02-21T08:57:46Z</time>
      </trkpt>
      <trkpt lat="49.30078" lon="-0.30444">
        <ele>0.6</ele>
        <time>2021-02-21T08:57:48Z</time>
      </trkpt>
      <trkpt lat="49.30077" lon="-0.3044">
        <ele>0.6</ele>
        <time>2021-02-21T08:57:49Z</time>
      </trkpt>
      <trkpt lat="49.30077" lon="-0.30438">
        <ele>0.7</ele>
        <time>2021-02-21T08:57:50Z</time>
      </trkpt>
      <trkpt lat="49.30076" lon="-0.30433">
        <ele>0.7</ele>
        <time>2021-02-21T08:57:52Z</time>
      </trkpt>
      <trkpt lat="49.30075" lon="-0.30432">
        <ele>0.7</ele>
        <time>2021-02-21T08:57:53Z</time>
      </trkpt>
      <trkpt lat="49.30074" lon="-0.30428">
        <ele>0.7</ele>
        <time>2021-02-21T08:57:55Z</time>
      </trkpt>
      <trkpt lat="49.30073" lon="-0.30424">
        <ele>0.7</ele>
        <time>2021-02-21T08:57:57Z</time>
      </trkpt>
      <trkpt lat="49.30072" lon="-0.3042">
        <ele>0.7</ele>
        <time>2021-02-21T08:57:58Z</time>
      </trkpt>
      <trkpt lat="49.30072" lon="-0.30418">
        <ele>0.7</ele>
        <time>2021-02-21T08:57:59Z</time>
      </trkpt>
      <trkpt lat="49.30071" lon="-0.30413">
        <ele>0.7</ele>
        <time>2021-02-21T08:58:01Z</time>
      </trkpt>
      <trkpt lat="49.30071" lon="-0.30412">
        <ele>0.7</ele>
        <time>2021-02-21T08:58:03Z</time>
      </trkpt>
      <trkpt lat="49.3007" lon="-0.30408">
        <ele>0.7</ele>
        <time>2021-02-21T08:58:04Z</time>
      </trkpt>
      <trkpt lat="49.30069" lon="-0.30403">
        <ele>0.7</ele>
        <time>2021-02-21T08:58:06Z</time>
      </trkpt>
      <trkpt lat="49.30068" lon="-0.30401">
        <ele>0.7</ele>
        <time>2021-02-21T08:58:08Z</time>
      </trkpt>
      <trkpt lat="49.30068" lon="-0.30398">
        <ele>0.7</ele>
        <time>2021-02-21T08:58:09Z</time>
      </trkpt>
      <trkpt lat="49.30067" lon="-0.30395">
        <ele>0.7</ele>
        <time>2021-02-21T08:58:10Z</time>
      </trkpt>
      <trkpt lat="49.30067" lon="-0.30394">
        <ele>0.7</ele>
        <time>2021-02-21T08:58:11Z</time>
      </trkpt>
      <trkpt lat="49.30067" lon="-0.30393">
        <ele>0.7</ele>
        <time>2021-02-21T08:58:12Z</time>
      </trkpt>
      <trkpt lat="49.30065" lon="-0.30387">
        <ele>0.7</ele>
        <time>2021-02-21T08:58:14Z</time>
      </trkpt>
      <trkpt lat="49.30064" lon="-0.30386">
        <ele>0.7</ele>
        <time>2021-02-21T08:58:15Z</time>
      </trkpt>
      <trkpt lat="49.30064" lon="-0.30384">
        <ele>0.7</ele>
        <time>2021-02-21T08:58:16Z</time>
      </trkpt>
      <trkpt lat="49.30062" lon="-0.30379">
        <ele>0.7</ele>
        <time>2021-02-21T08:58:18Z</time>
      </trkpt>
      <trkpt lat="49.30062" lon="-0.30378">
        <ele>0.7</ele>
        <time>2021-02-21T08:58:19Z</time>
      </trkpt>
      <trkpt lat="49.30061" lon="-0.30375">
        <ele>0.7</ele>
        <time>2021-02-21T08:58:21Z</time>
      </trkpt>
      <trkpt lat="49.3006" lon="-0.30371">
        <ele>0.7</ele>
        <time>2021-02-21T08:58:23Z</time>
      </trkpt>
      <trkpt lat="49.30059" lon="-0.30366">
        <ele>0.7</ele>
        <time>2021-02-21T08:58:24Z</time>
      </trkpt>
      <trkpt lat="49.30058" lon="-0.30364">
        <ele>0.7</ele>
        <time>2021-02-21T08:58:26Z</time>
      </trkpt>
      <trkpt lat="49.30056" lon="-0.3036">
        <ele>0.7</ele>
        <time>2021-02-21T08:58:28Z</time>
      </trkpt>
      <trkpt lat="49.30056" lon="-0.30358">
        <ele>0.7</ele>
        <time>2021-02-21T08:58:29Z</time>
      </trkpt>
      <trkpt lat="49.30055" lon="-0.30354">
        <ele>0.7</ele>
        <time>2021-02-21T08:58:30Z</time>
      </trkpt>
      <trkpt lat="49.30054" lon="-0.30353">
        <ele>0.7</ele>
        <time>2021-02-21T08:58:31Z</time>
      </trkpt>
      <trkpt lat="49.30053" lon="-0.30347">
        <ele>0.7</ele>
        <time>2021-02-21T08:58:33Z</time>
      </trkpt>
      <trkpt lat="49.30053" lon="-0.30346">
        <ele>0.7</ele>
        <time>2021-02-21T08:58:34Z</time>
      </trkpt>
      <trkpt lat="49.30052" lon="-0.30344">
        <ele>0.7</ele>
        <time>2021-02-21T08:58:35Z</time>
      </trkpt>
      <trkpt lat="49.30051" lon="-0.3034">
        <ele>0.7</ele>
        <time>2021-02-21T08:58:37Z</time>
      </trkpt>
      <trkpt lat="49.3005" lon="-0.30338">
        <ele>0.7</ele>
        <time>2021-02-21T08:58:38Z</time>
      </trkpt>
      <trkpt lat="49.30049" lon="-0.30335">
        <ele>0.7</ele>
        <time>2021-02-21T08:58:39Z</time>
      </trkpt>
      <trkpt lat="49.30048" lon="-0.30331">
        <ele>0.7</ele>
        <time>2021-02-21T08:58:41Z</time>
      </trkpt>
      <trkpt lat="49.30047" lon="-0.30329">
        <ele>0.7</ele>
        <time>2021-02-21T08:58:42Z</time>
      </trkpt>
      <trkpt lat="49.30046" lon="-0.30325">
        <ele>0.7</ele>
        <time>2021-02-21T08:58:43Z</time>
      </trkpt>
      <trkpt lat="49.30045" lon="-0.30323">
        <ele>0.7</ele>
        <time>2021-02-21T08:58:44Z</time>
      </trkpt>
      <trkpt lat="49.30044" lon="-0.30318">
        <ele>0.8</ele>
        <time>2021-02-21T08:58:46Z</time>
      </trkpt>
      <trkpt lat="49.30043" lon="-0.30316">
        <ele>0.8</ele>
        <time>2021-02-21T08:58:47Z</time>
      </trkpt>
      <trkpt lat="49.30041" lon="-0.3031">
        <ele>0.8</ele>
        <time>2021-02-21T08:58:50Z</time>
      </trkpt>
      <trkpt lat="49.3004" lon="-0.30309">
        <ele>0.8</ele>
        <time>2021-02-21T08:58:51Z</time>
      </trkpt>
      <trkpt lat="49.3004" lon="-0.30307">
        <ele>0.8</ele>
        <time>2021-02-21T08:58:52Z</time>
      </trkpt>
      <trkpt lat="49.30038" lon="-0.30303">
        <ele>0.8</ele>
        <time>2021-02-21T08:58:54Z</time>
      </trkpt>
      <trkpt lat="49.30038" lon="-0.30301">
        <ele>0.8</ele>
        <time>2021-02-21T08:58:55Z</time>
      </trkpt>
      <trkpt lat="49.30037" lon="-0.30298">
        <ele>0.8</ele>
        <time>2021-02-21T08:58:57Z</time>
      </trkpt>
      <trkpt lat="49.30036" lon="-0.30297">
        <ele>0.8</ele>
        <time>2021-02-21T08:58:58Z</time>
      </trkpt>
      <trkpt lat="49.30035" lon="-0.30295">
        <ele>0.8</ele>
        <time>2021-02-21T08:58:59Z</time>
      </trkpt>
      <trkpt lat="49.30034" lon="-0.30292">
        <ele>0.8</ele>
        <time>2021-02-21T08:59:01Z</time>
      </trkpt>
      <trkpt lat="49.30032" lon="-0.30286">
        <ele>0.8</ele>
        <time>2021-02-21T08:59:03Z</time>
      </trkpt>
      <trkpt lat="49.30031" lon="-0.30284">
        <ele>0.8</ele>
        <time>2021-02-21T08:59:04Z</time>
      </trkpt>
      <trkpt lat="49.30031" lon="-0.30283">
        <ele>0.8</ele>
        <time>2021-02-21T08:59:05Z</time>
      </trkpt>
      <trkpt lat="49.30029" lon="-0.30278">
        <ele>0.8</ele>
        <time>2021-02-21T08:59:07Z</time>
      </trkpt>
      <trkpt lat="49.30028" lon="-0.30276">
        <ele>0.8</ele>
        <time>2021-02-21T08:59:08Z</time>
      </trkpt>
      <trkpt lat="49.30027" lon="-0.30275">
        <ele>0.8</ele>
        <time>2021-02-21T08:59:09Z</time>
      </trkpt>
      <trkpt lat="49.30027" lon="-0.30273">
        <ele>0.8</ele>
        <time>2021-02-21T08:59:10Z</time>
      </trkpt>
      <trkpt lat="49.30026" lon="-0.3027">
        <ele>0.8</ele>
        <time>2021-02-21T08:59:12Z</time>
      </trkpt>
      <trkpt lat="49.30025" lon="-0.30267">
        <ele>0.8</ele>
        <time>2021-02-21T08:59:14Z</time>
      </trkpt>
      <trkpt lat="49.30023" lon="-0.30265">
        <ele>0.8</ele>
        <time>2021-02-21T08:59:15Z</time>
      </trkpt>
      <trkpt lat="49.30022" lon="-0.30262">
        <ele>0.8</ele>
        <time>2021-02-21T08:59:17Z</time>
      </trkpt>
      <trkpt lat="49.30021" lon="-0.3026">
        <ele>0.8</ele>
        <time>2021-02-21T08:59:18Z</time>
      </trkpt>
      <trkpt lat="49.3002" lon="-0.30257">
        <ele>0.8</ele>
        <time>2021-02-21T08:59:20Z</time>
      </trkpt>
      <trkpt lat="49.30019" lon="-0.30253">
        <ele>0.8</ele>
        <time>2021-02-21T08:59:21Z</time>
      </trkpt>
      <trkpt lat="49.30018" lon="-0.30252">
        <ele>0.8</ele>
        <time>2021-02-21T08:59:22Z</time>
      </trkpt>
      <trkpt lat="49.30017" lon="-0.30248">
        <ele>0.8</ele>
        <time>2021-02-21T08:59:24Z</time>
      </trkpt>
      <trkpt lat="49.30017" lon="-0.30245">
        <ele>0.8</ele>
        <time>2021-02-21T08:59:25Z</time>
      </trkpt>
      <trkpt lat="49.30016" lon="-0.30242">
        <ele>0.8</ele>
        <time>2021-02-21T08:59:27Z</time>
      </trkpt>
      <trkpt lat="49.30015" lon="-0.30237">
        <ele>0.8</ele>
        <time>2021-02-21T08:59:29Z</time>
      </trkpt>
      <trkpt lat="49.30014" lon="-0.30234">
        <ele>0.8</ele>
        <time>2021-02-21T08:59:30Z</time>
      </trkpt>
      <trkpt lat="49.30014" lon="-0.30231">
        <ele>0.8</ele>
        <time>2021-02-21T08:59:32Z</time>
      </trkpt>
      <trkpt lat="49.30013" lon="-0.30227">
        <ele>0.8</ele>
        <time>2021-02-21T08:59:35Z</time>
      </trkpt>
      <trkpt lat="49.30012" lon="-0.30224">
        <ele>0.8</ele>
        <time>2021-02-21T08:59:36Z</time>
      </trkpt>
      <trkpt lat="49.30011" lon="-0.30222">
        <ele>0.8</ele>
        <time>2021-02-21T08:59:37Z</time>
      </trkpt>
      <trkpt lat="49.3001" lon="-0.30218">
        <ele>0.8</ele>
        <time>2021-02-21T08:59:38Z</time>
      </trkpt>
      <trkpt lat="49.30009" lon="-0.30216">
        <ele>0.8</ele>
        <time>2021-02-21T08:59:40Z</time>
      </trkpt>
      <trkpt lat="49.30008" lon="-0.30213">
        <ele>0.8</ele>
        <time>2021-02-21T08:59:41Z</time>
      </trkpt>
      <trkpt lat="49.30007" lon="-0.3021">
        <ele>0.8</ele>
        <time>2021-02-21T08:59:43Z</time>
      </trkpt>
      <trkpt lat="49.30005" lon="-0.30207">
        <ele>0.9</ele>
        <time>2021-02-21T08:59:45Z</time>
      </trkpt>
      <trkpt lat="49.30004" lon="-0.30203">
        <ele>0.9</ele>
        <time>2021-02-21T08:59:46Z</time>
      </trkpt>
      <trkpt lat="49.30002" lon="-0.30198">
        <ele>0.9</ele>
        <time>2021-02-21T08:59:48Z</time>
      </trkpt>
      <trkpt lat="49.30001" lon="-0.30195">
        <ele>0.9</ele>
        <time>2021-02-21T08:59:49Z</time>
      </trkpt>
      <trkpt lat="49.3" lon="-0.30191">
        <ele>0.9</ele>
        <time>2021-02-21T08:59:51Z</time>
      </trkpt>
      <trkpt lat="49.29999" lon="-0.30187">
        <ele>0.9</ele>
        <time>2021-02-21T08:59:53Z</time>
      </trkpt>
      <trkpt lat="49.29998" lon="-0.30185">
        <ele>0.9</ele>
        <time>2021-02-21T08:59:54Z</time>
      </trkpt>
      <trkpt lat="49.29997" lon="-0.3018">
        <ele>0.9</ele>
        <time>2021-02-21T08:59:56Z</time>
      </trkpt>
      <trkpt lat="49.29996" lon="-0.30176">
        <ele>0.9</ele>
        <time>2021-02-21T08:59:58Z</time>
      </trkpt>
      <trkpt lat="49.29996" lon="-0.30174">
        <ele>0.9</ele>
        <time>2021-02-21T08:59:59Z</time>
      </trkpt>
      <trkpt lat="49.29995" lon="-0.30169">
        <ele>0.9</ele>
        <time>2021-02-21T09:00:01Z</time>
      </trkpt>
      <trkpt lat="49.29994" lon="-0.30168">
        <ele>0.9</ele>
        <time>2021-02-21T09:00:02Z</time>
      </trkpt>
      <trkpt lat="49.29994" lon="-0.30166">
        <ele>0.9</ele>
        <time>2021-02-21T09:00:03Z</time>
      </trkpt>
      <trkpt lat="49.29993" lon="-0.30162">
        <ele>0.9</ele>
        <time>2021-02-21T09:00:05Z</time>
      </trkpt>
      <trkpt lat="49.29992" lon="-0.30158">
        <ele>0.9</ele>
        <time>2021-02-21T09:00:06Z</time>
      </trkpt>
      <trkpt lat="49.29992" lon="-0.30156">
        <ele>0.9</ele>
        <time>2021-02-21T09:00:07Z</time>
      </trkpt>
      <trkpt lat="49.29991" lon="-0.30151">
        <ele>0.9</ele>
        <time>2021-02-21T09:00:09Z</time>
      </trkpt>
      <trkpt lat="49.2999" lon="-0.30149">
        <ele>0.9</ele>
        <time>2021-02-21T09:00:10Z</time>
      </trkpt>
      <trkpt lat="49.29989" lon="-0.30144">
        <ele>0.9</ele>
        <time>2021-02-21T09:00:12Z</time>
      </trkpt>
      <trkpt lat="49.29989" lon="-0.30142">
        <ele>0.9</ele>
        <time>2021-02-21T09:00:13Z</time>
      </trkpt>
      <trkpt lat="49.29988" lon="-0.30137">
        <ele>0.9</ele>
        <time>2021-02-21T09:00:15Z</time>
      </trkpt>
      <trkpt lat="49.29988" lon="-0.30136">
        <ele>0.9</ele>
        <time>2021-02-21T09:00:16Z</time>
      </trkpt>
      <trkpt lat="49.29987" lon="-0.30132">
        <ele>0.9</ele>
        <time>2021-02-21T09:00:17Z</time>
      </trkpt>
      <trkpt lat="49.29986" lon="-0.30129">
        <ele>0.9</ele>
        <time>2021-02-21T09:00:19Z</time>
      </trkpt>
      <trkpt lat="49.29986" lon="-0.30126">
        <ele>0.9</ele>
        <time>2021-02-21T09:00:20Z</time>
      </trkpt>
      <trkpt lat="49.29985" lon="-0.30122">
        <ele>0.9</ele>
        <time>2021-02-21T09:00:23Z</time>
      </trkpt>
      <trkpt lat="49.29984" lon="-0.30118">
        <ele>0.9</ele>
        <time>2021-02-21T09:00:25Z</time>
      </trkpt>
      <trkpt lat="49.29983" lon="-0.30114">
        <ele>0.9</ele>
        <time>2021-02-21T09:00:26Z</time>
      </trkpt>
      <trkpt lat="49.29982" lon="-0.30111">
        <ele>0.9</ele>
        <time>2021-02-21T09:00:28Z</time>
      </trkpt>
      <trkpt lat="49.29981" lon="-0.30105">
        <ele>0.9</ele>
        <time>2021-02-21T09:00:30Z</time>
      </trkpt>
      <trkpt lat="49.2998" lon="-0.30103">
        <ele>0.9</ele>
        <time>2021-02-21T09:00:31Z</time>
      </trkpt>
      <trkpt lat="49.29979" lon="-0.30101">
        <ele>0.9</ele>
        <time>2021-02-21T09:00:32Z</time>
      </trkpt>
      <trkpt lat="49.29978" lon="-0.30097">
        <ele>0.9</ele>
        <time>2021-02-21T09:00:34Z</time>
      </trkpt>
      <trkpt lat="49.29977" lon="-0.30096">
        <ele>0.9</ele>
        <time>2021-02-21T09:00:35Z</time>
      </trkpt>
      <trkpt lat="49.29975" lon="-0.30091">
        <ele>0.9</ele>
        <time>2021-02-21T09:00:37Z</time>
      </trkpt>
      <trkpt lat="49.29975" lon="-0.30089">
        <ele>0.9</ele>
        <time>2021-02-21T09:00:38Z</time>
      </trkpt>
      <trkpt lat="49.29973" lon="-0.30085">
        <ele>0.9</ele>
        <time>2021-02-21T09:00:40Z</time>
      </trkpt>
      <trkpt lat="49.29972" lon="-0.30083">
        <ele>0.9</ele>
        <time>2021-02-21T09:00:41Z</time>
      </trkpt>
      <trkpt lat="49.29971" lon="-0.30079">
        <ele>0.9</ele>
        <time>2021-02-21T09:00:43Z</time>
      </trkpt>
      <trkpt lat="49.2997" lon="-0.30077">
        <ele>1</ele>
        <time>2021-02-21T09:00:45Z</time>
      </trkpt>
      <trkpt lat="49.29968" lon="-0.30072">
        <ele>1</ele>
        <time>2021-02-21T09:00:47Z</time>
      </trkpt>
      <trkpt lat="49.29968" lon="-0.30071">
        <ele>1</ele>
        <time>2021-02-21T09:00:48Z</time>
      </trkpt>
      <trkpt lat="49.29967" lon="-0.30067">
        <ele>1</ele>
        <time>2021-02-21T09:00:50Z</time>
      </trkpt>
      <trkpt lat="49.29967" lon="-0.30065">
        <ele>1</ele>
        <time>2021-02-21T09:00:51Z</time>
      </trkpt>
      <trkpt lat="49.29966" lon="-0.30063">
        <ele>1</ele>
        <time>2021-02-21T09:00:52Z</time>
      </trkpt>
      <trkpt lat="49.29966" lon="-0.30059">
        <ele>1</ele>
        <time>2021-02-21T09:00:54Z</time>
      </trkpt>
      <trkpt lat="49.29965" lon="-0.30057">
        <ele>1</ele>
        <time>2021-02-21T09:00:55Z</time>
      </trkpt>
      <trkpt lat="49.29965" lon="-0.30055">
        <ele>1</ele>
        <time>2021-02-21T09:00:57Z</time>
      </trkpt>
      <trkpt lat="49.29964" lon="-0.30054">
        <ele>1</ele>
        <time>2021-02-21T09:00:58Z</time>
      </trkpt>
      <trkpt lat="49.29963" lon="-0.30052">
        <ele>1</ele>
        <time>2021-02-21T09:01:00Z</time>
      </trkpt>
      <trkpt lat="49.29963" lon="-0.3005">
        <ele>1</ele>
        <time>2021-02-21T09:01:01Z</time>
      </trkpt>
      <trkpt lat="49.29962" lon="-0.30045">
        <ele>1</ele>
        <time>2021-02-21T09:01:03Z</time>
      </trkpt>
      <trkpt lat="49.29961" lon="-0.30043">
        <ele>1</ele>
        <time>2021-02-21T09:01:04Z</time>
      </trkpt>
      <trkpt lat="49.2996" lon="-0.30036">
        <ele>1</ele>
        <time>2021-02-21T09:01:06Z</time>
      </trkpt>
      <trkpt lat="49.29959" lon="-0.30034">
        <ele>1</ele>
        <time>2021-02-21T09:01:08Z</time>
      </trkpt>
      <trkpt lat="49.29959" lon="-0.30032">
        <ele>1</ele>
        <time>2021-02-21T09:01:09Z</time>
      </trkpt>
      <trkpt lat="49.29957" lon="-0.30024">
        <ele>1</ele>
        <time>2021-02-21T09:01:11Z</time>
      </trkpt>
      <trkpt lat="49.29956" lon="-0.30022">
        <ele>1</ele>
        <time>2021-02-21T09:01:12Z</time>
      </trkpt>
      <trkpt lat="49.29955" lon="-0.30019">
        <ele>1</ele>
        <time>2021-02-21T09:01:13Z</time>
      </trkpt>
      <trkpt lat="49.29954" lon="-0.30014">
        <ele>1</ele>
        <time>2021-02-21T09:01:15Z</time>
      </trkpt>
      <trkpt lat="49.29953" lon="-0.3001">
        <ele>1</ele>
        <time>2021-02-21T09:01:16Z</time>
      </trkpt>
      <trkpt lat="49.29952" lon="-0.30008">
        <ele>1</ele>
        <time>2021-02-21T09:01:17Z</time>
      </trkpt>
      <trkpt lat="49.29951" lon="-0.30006">
        <ele>1</ele>
        <time>2021-02-21T09:01:18Z</time>
      </trkpt>
      <trkpt lat="49.2995" lon="-0.30002">
        <ele>1</ele>
        <time>2021-02-21T09:01:20Z</time>
      </trkpt>
      <trkpt lat="49.29948" lon="-0.29997">
        <ele>1</ele>
        <time>2021-02-21T09:01:21Z</time>
      </trkpt>
      <trkpt lat="49.29948" lon="-0.29995">
        <ele>1</ele>
        <time>2021-02-21T09:01:22Z</time>
      </trkpt>
      <trkpt lat="49.29946" lon="-0.2999">
        <ele>1</ele>
        <time>2021-02-21T09:01:24Z</time>
      </trkpt>
      <trkpt lat="49.29946" lon="-0.29989">
        <ele>1</ele>
        <time>2021-02-21T09:01:25Z</time>
      </trkpt>
      <trkpt lat="49.29945" lon="-0.29986">
        <ele>1</ele>
        <time>2021-02-21T09:01:27Z</time>
      </trkpt>
      <trkpt lat="49.29945" lon="-0.29984">
        <ele>1</ele>
        <time>2021-02-21T09:01:28Z</time>
      </trkpt>
      <trkpt lat="49.29944" lon="-0.29981">
        <ele>1</ele>
        <time>2021-02-21T09:01:29Z</time>
      </trkpt>
      <trkpt lat="49.29944" lon="-0.29979">
        <ele>1</ele>
        <time>2021-02-21T09:01:31Z</time>
      </trkpt>
      <trkpt lat="49.29943" lon="-0.29975">
        <ele>1</ele>
        <time>2021-02-21T09:01:32Z</time>
      </trkpt>
      <trkpt lat="49.29942" lon="-0.2997">
        <ele>1</ele>
        <time>2021-02-21T09:01:34Z</time>
      </trkpt>
      <trkpt lat="49.29941" lon="-0.29969">
        <ele>1</ele>
        <time>2021-02-21T09:01:35Z</time>
      </trkpt>
      <trkpt lat="49.29941" lon="-0.29966">
        <ele>1</ele>
        <time>2021-02-21T09:01:36Z</time>
      </trkpt>
      <trkpt lat="49.2994" lon="-0.29963">
        <ele>1</ele>
        <time>2021-02-21T09:01:38Z</time>
      </trkpt>
      <trkpt lat="49.29939" lon="-0.2996">
        <ele>1</ele>
        <time>2021-02-21T09:01:39Z</time>
      </trkpt>
      <trkpt lat="49.29938" lon="-0.29957">
        <ele>1.1</ele>
        <time>2021-02-21T09:01:41Z</time>
      </trkpt>
      <trkpt lat="49.29937" lon="-0.29953">
        <ele>1.1</ele>
        <time>2021-02-21T09:01:42Z</time>
      </trkpt>
      <trkpt lat="49.29937" lon="-0.29951">
        <ele>1.1</ele>
        <time>2021-02-21T09:01:44Z</time>
      </trkpt>
      <trkpt lat="49.29936" lon="-0.29949">
        <ele>1.1</ele>
        <time>2021-02-21T09:01:45Z</time>
      </trkpt>
      <trkpt lat="49.29935" lon="-0.29946">
        <ele>1.1</ele>
        <time>2021-02-21T09:01:46Z</time>
      </trkpt>
      <trkpt lat="49.29933" lon="-0.29942">
        <ele>1.1</ele>
        <time>2021-02-21T09:01:48Z</time>
      </trkpt>
      <trkpt lat="49.29932" lon="-0.29941">
        <ele>1.1</ele>
        <time>2021-02-21T09:01:49Z</time>
      </trkpt>
      <trkpt lat="49.29931" lon="-0.29937">
        <ele>1.1</ele>
        <time>2021-02-21T09:01:50Z</time>
      </trkpt>
      <trkpt lat="49.2993" lon="-0.29932">
        <ele>1.1</ele>
        <time>2021-02-21T09:01:52Z</time>
      </trkpt>
      <trkpt lat="49.2993" lon="-0.29931">
        <ele>1.1</ele>
        <time>2021-02-21T09:01:54Z</time>
      </trkpt>
      <trkpt lat="49.29929" lon="-0.29927">
        <ele>1.1</ele>
        <time>2021-02-21T09:01:55Z</time>
      </trkpt>
      <trkpt lat="49.29928" lon="-0.29925">
        <ele>1.1</ele>
        <time>2021-02-21T09:01:56Z</time>
      </trkpt>
      <trkpt lat="49.29927" lon="-0.29922">
        <ele>1.1</ele>
        <time>2021-02-21T09:01:58Z</time>
      </trkpt>
      <trkpt lat="49.29926" lon="-0.29917">
        <ele>1.1</ele>
        <time>2021-02-21T09:02:00Z</time>
      </trkpt>
      <trkpt lat="49.29925" lon="-0.29914">
        <ele>1.1</ele>
        <time>2021-02-21T09:02:01Z</time>
      </trkpt>
      <trkpt lat="49.29924" lon="-0.29911">
        <ele>1.1</ele>
        <time>2021-02-21T09:02:03Z</time>
      </trkpt>
      <trkpt lat="49.29922" lon="-0.29907">
        <ele>1.1</ele>
        <time>2021-02-21T09:02:05Z</time>
      </trkpt>
      <trkpt lat="49.29922" lon="-0.29904">
        <ele>1.1</ele>
        <time>2021-02-21T09:02:06Z</time>
      </trkpt>
      <trkpt lat="49.29921" lon="-0.29901">
        <ele>1.1</ele>
        <time>2021-02-21T09:02:07Z</time>
      </trkpt>
      <trkpt lat="49.2992" lon="-0.29897">
        <ele>1.1</ele>
        <time>2021-02-21T09:02:09Z</time>
      </trkpt>
      <trkpt lat="49.2992" lon="-0.29895">
        <ele>1.1</ele>
        <time>2021-02-21T09:02:10Z</time>
      </trkpt>
      <trkpt lat="49.29919" lon="-0.29893">
        <ele>1.1</ele>
        <time>2021-02-21T09:02:11Z</time>
      </trkpt>
      <trkpt lat="49.29918" lon="-0.29889">
        <ele>1.1</ele>
        <time>2021-02-21T09:02:13Z</time>
      </trkpt>
      <trkpt lat="49.29917" lon="-0.29885">
        <ele>1.1</ele>
        <time>2021-02-21T09:02:15Z</time>
      </trkpt>
      <trkpt lat="49.29917" lon="-0.29882">
        <ele>1.1</ele>
        <time>2021-02-21T09:02:17Z</time>
      </trkpt>
      <trkpt lat="49.29916" lon="-0.2988">
        <ele>1.1</ele>
        <time>2021-02-21T09:02:18Z</time>
      </trkpt>
      <trkpt lat="49.29916" lon="-0.29877">
        <ele>1.1</ele>
        <time>2021-02-21T09:02:19Z</time>
      </trkpt>
      <trkpt lat="49.29915" lon="-0.29874">
        <ele>1.1</ele>
        <time>2021-02-21T09:02:21Z</time>
      </trkpt>
      <trkpt lat="49.29914" lon="-0.2987">
        <ele>1.1</ele>
        <time>2021-02-21T09:02:22Z</time>
      </trkpt>
      <trkpt lat="49.29912" lon="-0.29868">
        <ele>1.1</ele>
        <time>2021-02-21T09:02:24Z</time>
      </trkpt>
      <trkpt lat="49.2991" lon="-0.29865">
        <ele>1.1</ele>
        <time>2021-02-21T09:02:25Z</time>
      </trkpt>
      <trkpt lat="49.29908" lon="-0.29864">
        <ele>1.1</ele>
        <time>2021-02-21T09:02:27Z</time>
      </trkpt>
      <trkpt lat="49.29907" lon="-0.29863">
        <ele>1.1</ele>
        <time>2021-02-21T09:02:28Z</time>
      </trkpt>
      <trkpt lat="49.29905" lon="-0.29862">
        <ele>1.1</ele>
        <time>2021-02-21T09:02:29Z</time>
      </trkpt>
      <trkpt lat="49.29901" lon="-0.29861">
        <ele>1.1</ele>
        <time>2021-02-21T09:02:31Z</time>
      </trkpt>
      <trkpt lat="49.299" lon="-0.29861">
        <ele>1.1</ele>
        <time>2021-02-21T09:02:32Z</time>
      </trkpt>
      <trkpt lat="49.29897" lon="-0.2986">
        <ele>1.1</ele>
        <time>2021-02-21T09:02:33Z</time>
      </trkpt>
      <trkpt lat="49.29896" lon="-0.2986">
        <ele>1.1</ele>
        <time>2021-02-21T09:02:34Z</time>
      </trkpt>
      <trkpt lat="49.29893" lon="-0.29859">
        <ele>1.2</ele>
        <time>2021-02-21T09:02:36Z</time>
      </trkpt>
      <trkpt lat="49.29892" lon="-0.29859">
        <ele>1.2</ele>
        <time>2021-02-21T09:02:37Z</time>
      </trkpt>
      <trkpt lat="49.2989" lon="-0.29859">
        <ele>1.2</ele>
        <time>2021-02-21T09:02:38Z</time>
      </trkpt>
      <trkpt lat="49.29887" lon="-0.29858">
        <ele>1.2</ele>
        <time>2021-02-21T09:02:41Z</time>
      </trkpt>
      <trkpt lat="49.29884" lon="-0.29858">
        <ele>1.2</ele>
        <time>2021-02-21T09:02:43Z</time>
      </trkpt>
      <trkpt lat="49.29881" lon="-0.29857">
        <ele>1.2</ele>
        <time>2021-02-21T09:02:44Z</time>
      </trkpt>
      <trkpt lat="49.29879" lon="-0.29857">
        <ele>1.2</ele>
        <time>2021-02-21T09:02:46Z</time>
      </trkpt>
      <trkpt lat="49.29876" lon="-0.29857">
        <ele>1.2</ele>
        <time>2021-02-21T09:02:47Z</time>
      </trkpt>
      <trkpt lat="49.29875" lon="-0.29858">
        <ele>1.2</ele>
        <time>2021-02-21T09:02:48Z</time>
      </trkpt>
      <trkpt lat="49.2987" lon="-0.2986">
        <ele>1.2</ele>
        <time>2021-02-21T09:02:50Z</time>
      </trkpt>
      <trkpt lat="49.29869" lon="-0.29861">
        <ele>1.2</ele>
        <time>2021-02-21T09:02:51Z</time>
      </trkpt>
      <trkpt lat="49.29867" lon="-0.29862">
        <ele>1.2</ele>
        <time>2021-02-21T09:02:52Z</time>
      </trkpt>
      <trkpt lat="49.29864" lon="-0.29863">
        <ele>1.2</ele>
        <time>2021-02-21T09:02:53Z</time>
      </trkpt>
      <trkpt lat="49.29863" lon="-0.29864">
        <ele>1.2</ele>
        <time>2021-02-21T09:02:54Z</time>
      </trkpt>
      <trkpt lat="49.29861" lon="-0.29866">
        <ele>1.2</ele>
        <time>2021-02-21T09:02:56Z</time>
      </trkpt>
      <trkpt lat="49.2986" lon="-0.29867">
        <ele>1.2</ele>
        <time>2021-02-21T09:02:57Z</time>
      </trkpt>
      <trkpt lat="49.29858" lon="-0.29868">
        <ele>1.2</ele>
        <time>2021-02-21T09:02:58Z</time>
      </trkpt>
      <trkpt lat="49.29857" lon="-0.29871">
        <ele>1.2</ele>
        <time>2021-02-21T09:03:00Z</time>
      </trkpt>
      <trkpt lat="49.29856" lon="-0.29872">
        <ele>1.2</ele>
        <time>2021-02-21T09:03:01Z</time>
      </trkpt>
      <trkpt lat="49.29853" lon="-0.29872">
        <ele>1.2</ele>
        <time>2021-02-21T09:03:03Z</time>
      </trkpt>
      <trkpt lat="49.29852" lon="-0.29873">
        <ele>1.2</ele>
        <time>2021-02-21T09:03:04Z</time>
      </trkpt>
      <trkpt lat="49.2985" lon="-0.29875">
        <ele>1.2</ele>
        <time>2021-02-21T09:03:06Z</time>
      </trkpt>
      <trkpt lat="49.29848" lon="-0.29875">
        <ele>1.2</ele>
        <time>2021-02-21T09:03:07Z</time>
      </trkpt>
      <trkpt lat="49.29847" lon="-0.29875">
        <ele>1.2</ele>
        <time>2021-02-21T09:03:09Z</time>
      </trkpt>
      <trkpt lat="49.29846" lon="-0.29876">
        <ele>1.2</ele>
        <time>2021-02-21T09:03:10Z</time>
      </trkpt>
      <trkpt lat="49.29844" lon="-0.29876">
        <ele>1.2</ele>
        <time>2021-02-21T09:03:11Z</time>
      </trkpt>
      <trkpt lat="49.29842" lon="-0.29876">
        <ele>1.2</ele>
        <time>2021-02-21T09:03:13Z</time>
      </trkpt>
      <trkpt lat="49.2984" lon="-0.29877">
        <ele>1.2</ele>
        <time>2021-02-21T09:03:14Z</time>
      </trkpt>
      <trkpt lat="49.29837" lon="-0.29876">
        <ele>1.2</ele>
        <time>2021-02-21T09:03:16Z</time>
      </trkpt>
      <trkpt lat="49.29835" lon="-0.29876">
        <ele>1.2</ele>
        <time>2021-02-21T09:03:18Z</time>
      </trkpt>
      <trkpt lat="49.29833" lon="-0.29875">
        <ele>1.2</ele>
        <time>2021-02-21T09:03:20Z</time>
      </trkpt>
      <trkpt lat="49.29831" lon="-0.29874">
        <ele>1.2</ele>
        <time>2021-02-21T09:03:21Z</time>
      </trkpt>
      <trkpt lat="49.29831" lon="-0.29873">
        <ele>1.2</ele>
        <time>2021-02-21T09:03:22Z</time>
      </trkpt>
      <trkpt lat="49.29832" lon="-0.29871">
        <ele>1.2</ele>
        <time>2021-02-21T09:03:23Z</time>
      </trkpt>
      <trkpt lat="49.29834" lon="-0.29872">
        <ele>1.2</ele>
        <time>2021-02-21T09:03:26Z</time>
      </trkpt>
      <trkpt lat="49.29834" lon="-0.29873">
        <ele>1.2</ele>
        <time>2021-02-21T09:03:27Z</time>
      </trkpt>
      <trkpt lat="49.29834" lon="-0.29875">
        <ele>1.2</ele>
        <time>2021-02-21T09:03:29Z</time>
      </trkpt>
      <trkpt lat="49.29833" lon="-0.29876">
        <ele>1.2</ele>
        <time>2021-02-21T09:03:30Z</time>
      </trkpt>
      <trkpt lat="49.29833" lon="-0.29877">
        <ele>1.3</ele>
        <time>2021-02-21T09:03:31Z</time>
      </trkpt>
      <trkpt lat="49.29833" lon="-0.29877">
        <ele>1.3</ele>
        <time>2021-02-21T09:03:32Z</time>
      </trkpt>
      <trkpt lat="49.29832" lon="-0.29877">
        <ele>1.3</ele>
        <time>2021-02-21T09:03:34Z</time>
      </trkpt>
      <trkpt lat="49.29832" lon="-0.29877">
        <ele>1.3</ele>
        <time>2021-02-21T09:03:36Z</time>
      </trkpt>
      <trkpt lat="49.29832" lon="-0.29877">
        <ele>1.3</ele>
        <time>2021-02-21T09:03:37Z</time>
      </trkpt>
      <trkpt lat="49.29831" lon="-0.29875">
        <ele>1.3</ele>
        <time>2021-02-21T09:03:38Z</time>
      </trkpt>
      <trkpt lat="49.29826" lon="-0.29875">
        <ele>1.3</ele>
        <time>2021-02-21T09:03:40Z</time>
      </trkpt>
      <trkpt lat="49.29823" lon="-0.29876">
        <ele>1.3</ele>
        <time>2021-02-21T09:03:41Z</time>
      </trkpt>
      <trkpt lat="49.2982" lon="-0.29877">
        <ele>1.3</ele>
        <time>2021-02-21T09:03:42Z</time>
      </trkpt>
      <trkpt lat="49.29818" lon="-0.29878">
        <ele>1.3</ele>
        <time>2021-02-21T09:03:43Z</time>
      </trkpt>
      <trkpt lat="49.29813" lon="-0.2988">
        <ele>1.3</ele>
        <time>2021-02-21T09:03:45Z</time>
      </trkpt>
      <trkpt lat="49.29811" lon="-0.29881">
        <ele>1.3</ele>
        <time>2021-02-21T09:03:46Z</time>
      </trkpt>
      <trkpt lat="49.29808" lon="-0.29883">
        <ele>1.3</ele>
        <time>2021-02-21T09:03:49Z</time>
      </trkpt>
      <trkpt lat="49.29807" lon="-0.29884">
        <ele>1.3</ele>
        <time>2021-02-21T09:03:50Z</time>
      </trkpt>
      <trkpt lat="49.29805" lon="-0.29886">
        <ele>1.3</ele>
        <time>2021-02-21T09:03:51Z</time>
      </trkpt>
      <trkpt lat="49.29803" lon="-0.29888">
        <ele>1.4</ele>
        <time>2021-02-21T09:03:53Z</time>
      </trkpt>
      <trkpt lat="49.29801" lon="-0.2989">
        <ele>1.4</ele>
        <time>2021-02-21T09:03:54Z</time>
      </trkpt>
      <trkpt lat="49.298" lon="-0.29892">
        <ele>1.4</ele>
        <time>2021-02-21T09:03:56Z</time>
      </trkpt>
      <trkpt lat="49.29798" lon="-0.29894">
        <ele>1.5</ele>
        <time>2021-02-21T09:03:57Z</time>
      </trkpt>
      <trkpt lat="49.29797" lon="-0.29896">
        <ele>1.5</ele>
        <time>2021-02-21T09:03:58Z</time>
      </trkpt>
      <trkpt lat="49.29795" lon="-0.29898">
        <ele>1.5</ele>
        <time>2021-02-21T09:03:59Z</time>
      </trkpt>
      <trkpt lat="49.29792" lon="-0.29901">
        <ele>1.7</ele>
        <time>2021-02-21T09:04:01Z</time>
      </trkpt>
      <trkpt lat="49.29789" lon="-0.29903">
        <ele>1.7</ele>
        <time>2021-02-21T09:04:02Z</time>
      </trkpt>
      <trkpt lat="49.29788" lon="-0.29904">
        <ele>1.8</ele>
        <time>2021-02-21T09:04:03Z</time>
      </trkpt>
      <trkpt lat="49.29785" lon="-0.29907">
        <ele>1.8</ele>
        <time>2021-02-21T09:04:04Z</time>
      </trkpt>
      <trkpt lat="49.29784" lon="-0.29907">
        <ele>1.9</ele>
        <time>2021-02-21T09:04:05Z</time>
      </trkpt>
      <trkpt lat="49.2978" lon="-0.29911">
        <ele>2</ele>
        <time>2021-02-21T09:04:07Z</time>
      </trkpt>
      <trkpt lat="49.29779" lon="-0.29912">
        <ele>2</ele>
        <time>2021-02-21T09:04:08Z</time>
      </trkpt>
      <trkpt lat="49.29778" lon="-0.29913">
        <ele>2.2</ele>
        <time>2021-02-21T09:04:09Z</time>
      </trkpt>
      <trkpt lat="49.29776" lon="-0.29914">
        <ele>2.2</ele>
        <time>2021-02-21T09:04:12Z</time>
      </trkpt>
      <trkpt lat="49.29775" lon="-0.29916">
        <ele>2.2</ele>
        <time>2021-02-21T09:04:13Z</time>
      </trkpt>
      <trkpt lat="49.29772" lon="-0.29917">
        <ele>2.4</ele>
        <time>2021-02-21T09:04:14Z</time>
      </trkpt>
      <trkpt lat="49.29771" lon="-0.29919">
        <ele>2.4</ele>
        <time>2021-02-21T09:04:16Z</time>
      </trkpt>
      <trkpt lat="49.29769" lon="-0.2992">
        <ele>2.4</ele>
        <time>2021-02-21T09:04:17Z</time>
      </trkpt>
      <trkpt lat="49.29767" lon="-0.29921">
        <ele>2.6</ele>
        <time>2021-02-21T09:04:18Z</time>
      </trkpt>
      <trkpt lat="49.29766" lon="-0.29921">
        <ele>2.6</ele>
        <time>2021-02-21T09:04:19Z</time>
      </trkpt>
      <trkpt lat="49.29764" lon="-0.29922">
        <ele>2.6</ele>
        <time>2021-02-21T09:04:20Z</time>
      </trkpt>
      <trkpt lat="49.29763" lon="-0.29923">
        <ele>2.6</ele>
        <time>2021-02-21T09:04:21Z</time>
      </trkpt>
      <trkpt lat="49.29761" lon="-0.29924">
        <ele>2.7</ele>
        <time>2021-02-21T09:04:22Z</time>
      </trkpt>
      <trkpt lat="49.2976" lon="-0.29925">
        <ele>2.7</ele>
        <time>2021-02-21T09:04:23Z</time>
      </trkpt>
      <trkpt lat="49.29758" lon="-0.29926">
        <ele>2.8</ele>
        <time>2021-02-21T09:04:24Z</time>
      </trkpt>
      <trkpt lat="49.29757" lon="-0.29927">
        <ele>2.8</ele>
        <time>2021-02-21T09:04:25Z</time>
      </trkpt>
      <trkpt lat="49.29756" lon="-0.29928">
        <ele>2.9</ele>
        <time>2021-02-21T09:04:26Z</time>
      </trkpt>
      <trkpt lat="49.29754" lon="-0.29929">
        <ele>3</ele>
        <time>2021-02-21T09:04:28Z</time>
      </trkpt>
      <trkpt lat="49.29753" lon="-0.29931">
        <ele>3.1</ele>
        <time>2021-02-21T09:04:29Z</time>
      </trkpt>
      <trkpt lat="49.29751" lon="-0.29932">
        <ele>3.3</ele>
        <time>2021-02-21T09:04:30Z</time>
      </trkpt>
      <trkpt lat="49.29749" lon="-0.29935">
        <ele>3.8</ele>
        <time>2021-02-21T09:04:31Z</time>
      </trkpt>
      <trkpt lat="49.29748" lon="-0.29936">
        <ele>3.9</ele>
        <time>2021-02-21T09:04:32Z</time>
      </trkpt>
      <trkpt lat="49.29746" lon="-0.29936">
        <ele>4.3</ele>
        <time>2021-02-21T09:04:34Z</time>
      </trkpt>
      <trkpt lat="49.29746" lon="-0.29937">
        <ele>4.4</ele>
        <time>2021-02-21T09:04:36Z</time>
      </trkpt>
      <trkpt lat="49.29745" lon="-0.29937">
        <ele>4.4</ele>
        <time>2021-02-21T09:04:37Z</time>
      </trkpt>
      <trkpt lat="49.29743" lon="-0.29937">
        <ele>4.4</ele>
        <time>2021-02-21T09:04:39Z</time>
      </trkpt>
      <trkpt lat="49.29743" lon="-0.29937">
        <ele>4.4</ele>
        <time>2021-02-21T09:04:40Z</time>
      </trkpt>
      <trkpt lat="49.29743" lon="-0.29937">
        <ele>4.4</ele>
        <time>2021-02-21T09:04:41Z</time>
      </trkpt>
      <trkpt lat="49.29744" lon="-0.29937">
        <ele>4.4</ele>
        <time>2021-02-21T09:04:42Z</time>
      </trkpt>
      <trkpt lat="49.29744" lon="-0.29938">
        <ele>4.4</ele>
        <time>2021-02-21T09:04:43Z</time>
      </trkpt>
      <trkpt lat="49.29743" lon="-0.29939">
        <ele>4.4</ele>
        <time>2021-02-21T09:04:44Z</time>
      </trkpt>
      <trkpt lat="49.29743" lon="-0.2994">
        <ele>4.4</ele>
        <time>2021-02-21T09:04:45Z</time>
      </trkpt>
      <trkpt lat="49.29741" lon="-0.29942">
        <ele>4.4</ele>
        <time>2021-02-21T09:04:47Z</time>
      </trkpt>
      <trkpt lat="49.2974" lon="-0.29944">
        <ele>4.4</ele>
        <time>2021-02-21T09:04:49Z</time>
      </trkpt>
      <trkpt lat="49.29739" lon="-0.29946">
        <ele>4.4</ele>
        <time>2021-02-21T09:04:50Z</time>
      </trkpt>
      <trkpt lat="49.29738" lon="-0.29947">
        <ele>4.4</ele>
        <time>2021-02-21T09:04:51Z</time>
      </trkpt>
      <trkpt lat="49.29737" lon="-0.29949">
        <ele>4.4</ele>
        <time>2021-02-21T09:04:52Z</time>
      </trkpt>
      <trkpt lat="49.29735" lon="-0.29952">
        <ele>4.4</ele>
        <time>2021-02-21T09:04:54Z</time>
      </trkpt>
      <trkpt lat="49.29734" lon="-0.29953">
        <ele>4.4</ele>
        <time>2021-02-21T09:04:55Z</time>
      </trkpt>
      <trkpt lat="49.29732" lon="-0.29954">
        <ele>4.4</ele>
        <time>2021-02-21T09:04:56Z</time>
      </trkpt>
      <trkpt lat="49.2973" lon="-0.29956">
        <ele>4.4</ele>
        <time>2021-02-21T09:04:59Z</time>
      </trkpt>
      <trkpt lat="49.29727" lon="-0.29958">
        <ele>4.4</ele>
        <time>2021-02-21T09:05:01Z</time>
      </trkpt>
      <trkpt lat="49.29726" lon="-0.29959">
        <ele>4.4</ele>
        <time>2021-02-21T09:05:02Z</time>
      </trkpt>
      <trkpt lat="49.29723" lon="-0.29961">
        <ele>4.4</ele>
        <time>2021-02-21T09:05:04Z</time>
      </trkpt>
      <trkpt lat="49.29719" lon="-0.29963">
        <ele>4.4</ele>
        <time>2021-02-21T09:05:06Z</time>
      </trkpt>
      <trkpt lat="49.29718" lon="-0.29964">
        <ele>4.4</ele>
        <time>2021-02-21T09:05:07Z</time>
      </trkpt>
      <trkpt lat="49.29717" lon="-0.29965">
        <ele>4.5</ele>
        <time>2021-02-21T09:05:08Z</time>
      </trkpt>
      <trkpt lat="49.29713" lon="-0.29967">
        <ele>4.5</ele>
        <time>2021-02-21T09:05:10Z</time>
      </trkpt>
      <trkpt lat="49.29712" lon="-0.29967">
        <ele>4.5</ele>
        <time>2021-02-21T09:05:11Z</time>
      </trkpt>
      <trkpt lat="49.2971" lon="-0.29969">
        <ele>4.5</ele>
        <time>2021-02-21T09:05:13Z</time>
      </trkpt>
      <trkpt lat="49.29707" lon="-0.2997">
        <ele>4.5</ele>
        <time>2021-02-21T09:05:15Z</time>
      </trkpt>
      <trkpt lat="49.29706" lon="-0.29971">
        <ele>4.6</ele>
        <time>2021-02-21T09:05:16Z</time>
      </trkpt>
      <trkpt lat="49.29704" lon="-0.29972">
        <ele>4.6</ele>
        <time>2021-02-21T09:05:18Z</time>
      </trkpt>
      <trkpt lat="49.29699" lon="-0.29974">
        <ele>4.6</ele>
        <time>2021-02-21T09:05:20Z</time>
      </trkpt>
      <trkpt lat="49.29698" lon="-0.29975">
        <ele>4.7</ele>
        <time>2021-02-21T09:05:22Z</time>
      </trkpt>
      <trkpt lat="49.29697" lon="-0.29976">
        <ele>4.7</ele>
        <time>2021-02-21T09:05:23Z</time>
      </trkpt>
      <trkpt lat="49.29693" lon="-0.29977">
        <ele>4.7</ele>
        <time>2021-02-21T09:05:25Z</time>
      </trkpt>
      <trkpt lat="49.29692" lon="-0.29978">
        <ele>4.8</ele>
        <time>2021-02-21T09:05:26Z</time>
      </trkpt>
      <trkpt lat="49.2969" lon="-0.29979">
        <ele>4.8</ele>
        <time>2021-02-21T09:05:27Z</time>
      </trkpt>
      <trkpt lat="49.29688" lon="-0.2998">
        <ele>4.8</ele>
        <time>2021-02-21T09:05:29Z</time>
      </trkpt>
      <trkpt lat="49.29686" lon="-0.29981">
        <ele>4.8</ele>
        <time>2021-02-21T09:05:30Z</time>
      </trkpt>
      <trkpt lat="49.29684" lon="-0.29982">
        <ele>4.9</ele>
        <time>2021-02-21T09:05:31Z</time>
      </trkpt>
      <trkpt lat="49.29683" lon="-0.29983">
        <ele>4.9</ele>
        <time>2021-02-21T09:05:32Z</time>
      </trkpt>
      <trkpt lat="49.29681" lon="-0.29984">
        <ele>4.9</ele>
        <time>2021-02-21T09:05:34Z</time>
      </trkpt>
      <trkpt lat="49.29678" lon="-0.29986">
        <ele>5</ele>
        <time>2021-02-21T09:05:36Z</time>
      </trkpt>
      <trkpt lat="49.29677" lon="-0.29987">
        <ele>5</ele>
        <time>2021-02-21T09:05:37Z</time>
      </trkpt>
      <trkpt lat="49.29675" lon="-0.29989">
        <ele>5</ele>
        <time>2021-02-21T09:05:38Z</time>
      </trkpt>
      <trkpt lat="49.29674" lon="-0.2999">
        <ele>5.1</ele>
        <time>2021-02-21T09:05:39Z</time>
      </trkpt>
      <trkpt lat="49.29671" lon="-0.29992">
        <ele>5.1</ele>
        <time>2021-02-21T09:05:41Z</time>
      </trkpt>
      <trkpt lat="49.29668" lon="-0.29996">
        <ele>5.2</ele>
        <time>2021-02-21T09:05:43Z</time>
      </trkpt>
      <trkpt lat="49.29666" lon="-0.3">
        <ele>5.2</ele>
        <time>2021-02-21T09:05:45Z</time>
      </trkpt>
      <trkpt lat="49.29664" lon="-0.30002">
        <ele>5.3</ele>
        <time>2021-02-21T09:05:47Z</time>
      </trkpt>
      <trkpt lat="49.29661" lon="-0.30006">
        <ele>5.4</ele>
        <time>2021-02-21T09:05:49Z</time>
      </trkpt>
      <trkpt lat="49.29658" lon="-0.30008">
        <ele>5.4</ele>
        <time>2021-02-21T09:05:51Z</time>
      </trkpt>
      <trkpt lat="49.29656" lon="-0.30011">
        <ele>5.5</ele>
        <time>2021-02-21T09:05:53Z</time>
      </trkpt>
      <trkpt lat="49.29656" lon="-0.30011">
        <ele>5.5</ele>
        <time>2021-02-21T09:05:54Z</time>
      </trkpt>
      <trkpt lat="49.29657" lon="-0.30011">
        <ele>5.5</ele>
        <time>2021-02-21T09:05:56Z</time>
      </trkpt>
      <trkpt lat="49.29658" lon="-0.30011">
        <ele>5.5</ele>
        <time>2021-02-21T09:05:58Z</time>
      </trkpt>
      <trkpt lat="49.29658" lon="-0.30011">
        <ele>5.5</ele>
        <time>2021-02-21T09:05:59Z</time>
      </trkpt>
      <trkpt lat="49.29658" lon="-0.30011">
        <ele>5.5</ele>
        <time>2021-02-21T09:06:01Z</time>
      </trkpt>
      <trkpt lat="49.29658" lon="-0.30011">
        <ele>5.5</ele>
        <time>2021-02-21T09:06:02Z</time>
      </trkpt>
      <trkpt lat="49.29656" lon="-0.30012">
        <ele>5.5</ele>
        <time>2021-02-21T09:06:04Z</time>
      </trkpt>
      <trkpt lat="49.29655" lon="-0.30013">
        <ele>5.5</ele>
        <time>2021-02-21T09:06:05Z</time>
      </trkpt>
      <trkpt lat="49.29654" lon="-0.30013">
        <ele>5.5</ele>
        <time>2021-02-21T09:06:06Z</time>
      </trkpt>
      <trkpt lat="49.29652" lon="-0.30014">
        <ele>5.5</ele>
        <time>2021-02-21T09:06:09Z</time>
      </trkpt>
      <trkpt lat="49.29651" lon="-0.30014">
        <ele>5.5</ele>
        <time>2021-02-21T09:06:11Z</time>
      </trkpt>
      <trkpt lat="49.2965" lon="-0.30013">
        <ele>5.5</ele>
        <time>2021-02-21T09:06:12Z</time>
      </trkpt>
      <trkpt lat="49.29649" lon="-0.3001">
        <ele>5.5</ele>
        <time>2021-02-21T09:06:14Z</time>
      </trkpt>
      <trkpt lat="49.29649" lon="-0.30008">
        <ele>5.5</ele>
        <time>2021-02-21T09:06:16Z</time>
      </trkpt>
      <trkpt lat="49.2965" lon="-0.30007">
        <ele>5.5</ele>
        <time>2021-02-21T09:06:18Z</time>
      </trkpt>
      <trkpt lat="49.2965" lon="-0.30007">
        <ele>5.5</ele>
        <time>2021-02-21T09:06:19Z</time>
      </trkpt>
      <trkpt lat="49.2965" lon="-0.30008">
        <ele>5.5</ele>
        <time>2021-02-21T09:06:20Z</time>
      </trkpt>
      <trkpt lat="49.29651" lon="-0.30009">
        <ele>5.5</ele>
        <time>2021-02-21T09:06:22Z</time>
      </trkpt>
      <trkpt lat="49.2965" lon="-0.3001">
        <ele>5.5</ele>
        <time>2021-02-21T09:06:24Z</time>
      </trkpt>
      <trkpt lat="49.2965" lon="-0.3001">
        <ele>5.5</ele>
        <time>2021-02-21T09:06:25Z</time>
      </trkpt>
      <trkpt lat="49.29649" lon="-0.3001">
        <ele>5.5</ele>
        <time>2021-02-21T09:06:26Z</time>
      </trkpt>
      <trkpt lat="49.29649" lon="-0.3001">
        <ele>5.5</ele>
        <time>2021-02-21T09:06:27Z</time>
      </trkpt>
      <trkpt lat="49.29649" lon="-0.30009">
        <ele>5.5</ele>
        <time>2021-02-21T09:06:28Z</time>
      </trkpt>
      <trkpt lat="49.29647" lon="-0.30009">
        <ele>5.5</ele>
        <time>2021-02-21T09:06:31Z</time>
      </trkpt>
      <trkpt lat="49.29647" lon="-0.30009">
        <ele>5.5</ele>
        <time>2021-02-21T09:06:33Z</time>
      </trkpt>
      <trkpt lat="49.29647" lon="-0.30009">
        <ele>5.5</ele>
        <time>2021-02-21T09:06:34Z</time>
      </trkpt>
      <trkpt lat="49.29647" lon="-0.30009">
        <ele>5.5</ele>
        <time>2021-02-21T09:06:36Z</time>
      </trkpt>
      <trkpt lat="49.29647" lon="-0.30009">
        <ele>5.5</ele>
        <time>2021-02-21T09:06:38Z</time>
      </trkpt>
      <trkpt lat="49.29646" lon="-0.30008">
        <ele>5.5</ele>
        <time>2021-02-21T09:06:40Z</time>
      </trkpt>
      <trkpt lat="49.29645" lon="-0.30008">
        <ele>5.5</ele>
        <time>2021-02-21T09:06:41Z</time>
      </trkpt>
      <trkpt lat="49.29645" lon="-0.30008">
        <ele>5.5</ele>
        <time>2021-02-21T09:06:43Z</time>
      </trkpt>
      <trkpt lat="49.29644" lon="-0.30009">
        <ele>5.5</ele>
        <time>2021-02-21T09:06:45Z</time>
      </trkpt>
      <trkpt lat="49.29643" lon="-0.30009">
        <ele>5.5</ele>
        <time>2021-02-21T09:06:47Z</time>
      </trkpt>
      <trkpt lat="49.29643" lon="-0.30008">
        <ele>5.5</ele>
        <time>2021-02-21T09:06:48Z</time>
      </trkpt>
      <trkpt lat="49.29641" lon="-0.30007">
        <ele>5.5</ele>
        <time>2021-02-21T09:06:50Z</time>
      </trkpt>
      <trkpt lat="49.29641" lon="-0.30006">
        <ele>5.4</ele>
        <time>2021-02-21T09:06:51Z</time>
      </trkpt>
      <trkpt lat="49.2964" lon="-0.30004">
        <ele>5.4</ele>
        <time>2021-02-21T09:06:52Z</time>
      </trkpt>
      <trkpt lat="49.29638" lon="-0.30001">
        <ele>5.4</ele>
        <time>2021-02-21T09:06:55Z</time>
      </trkpt>
      <trkpt lat="49.29638" lon="-0.29999">
        <ele>5.4</ele>
        <time>2021-02-21T09:06:56Z</time>
      </trkpt>
      <trkpt lat="49.29637" lon="-0.29997">
        <ele>5.4</ele>
        <time>2021-02-21T09:06:57Z</time>
      </trkpt>
      <trkpt lat="49.29636" lon="-0.29993">
        <ele>5.4</ele>
        <time>2021-02-21T09:06:59Z</time>
      </trkpt>
      <trkpt lat="49.29636" lon="-0.29988">
        <ele>5.4</ele>
        <time>2021-02-21T09:07:01Z</time>
      </trkpt>
      <trkpt lat="49.29635" lon="-0.29984">
        <ele>5.4</ele>
        <time>2021-02-21T09:07:02Z</time>
      </trkpt>
      <trkpt lat="49.29634" lon="-0.29977">
        <ele>5.2</ele>
        <time>2021-02-21T09:07:04Z</time>
      </trkpt>
      <trkpt lat="49.29633" lon="-0.29972">
        <ele>5.2</ele>
        <time>2021-02-21T09:07:05Z</time>
      </trkpt>
      <trkpt lat="49.29633" lon="-0.2997">
        <ele>5.2</ele>
        <time>2021-02-21T09:07:06Z</time>
      </trkpt>
      <trkpt lat="49.29632" lon="-0.29967">
        <ele>5.2</ele>
        <time>2021-02-21T09:07:07Z</time>
      </trkpt>
      <trkpt lat="49.29631" lon="-0.29963">
        <ele>5.2</ele>
        <time>2021-02-21T09:07:09Z</time>
      </trkpt>
      <trkpt lat="49.2963" lon="-0.29959">
        <ele>5.2</ele>
        <time>2021-02-21T09:07:10Z</time>
      </trkpt>
      <trkpt lat="49.2963" lon="-0.29957">
        <ele>5.2</ele>
        <time>2021-02-21T09:07:11Z</time>
      </trkpt>
      <trkpt lat="49.29629" lon="-0.29955">
        <ele>5.2</ele>
        <time>2021-02-21T09:07:12Z</time>
      </trkpt>
      <trkpt lat="49.29628" lon="-0.29953">
        <ele>5.2</ele>
        <time>2021-02-21T09:07:14Z</time>
      </trkpt>
      <trkpt lat="49.29627" lon="-0.29948">
        <ele>5.2</ele>
        <time>2021-02-21T09:07:17Z</time>
      </trkpt>
      <trkpt lat="49.29627" lon="-0.29946">
        <ele>5.2</ele>
        <time>2021-02-21T09:07:18Z</time>
      </trkpt>
      <trkpt lat="49.29627" lon="-0.29943">
        <ele>5.2</ele>
        <time>2021-02-21T09:07:20Z</time>
      </trkpt>
      <trkpt lat="49.29627" lon="-0.29939">
        <ele>5.2</ele>
        <time>2021-02-21T09:07:22Z</time>
      </trkpt>
      <trkpt lat="49.29627" lon="-0.29937">
        <ele>5.2</ele>
        <time>2021-02-21T09:07:23Z</time>
      </trkpt>
      <trkpt lat="49.29627" lon="-0.29933">
        <ele>5.2</ele>
        <time>2021-02-21T09:07:25Z</time>
      </trkpt>
      <trkpt lat="49.29626" lon="-0.29931">
        <ele>5.2</ele>
        <time>2021-02-21T09:07:26Z</time>
      </trkpt>
      <trkpt lat="49.29626" lon="-0.29928">
        <ele>5.3</ele>
        <time>2021-02-21T09:07:27Z</time>
      </trkpt>
      <trkpt lat="49.29626" lon="-0.29923">
        <ele>5.3</ele>
        <time>2021-02-21T09:07:28Z</time>
      </trkpt>
      <trkpt lat="49.29626" lon="-0.29922">
        <ele>5.3</ele>
        <time>2021-02-21T09:07:29Z</time>
      </trkpt>
      <trkpt lat="49.29626" lon="-0.29919">
        <ele>5.3</ele>
        <time>2021-02-21T09:07:30Z</time>
      </trkpt>
      <trkpt lat="49.29624" lon="-0.29912">
        <ele>5.3</ele>
        <time>2021-02-21T09:07:32Z</time>
      </trkpt>
      <trkpt lat="49.29624" lon="-0.29909">
        <ele>5.3</ele>
        <time>2021-02-21T09:07:33Z</time>
      </trkpt>
      <trkpt lat="49.29623" lon="-0.29904">
        <ele>5.3</ele>
        <time>2021-02-21T09:07:35Z</time>
      </trkpt>
      <trkpt lat="49.29623" lon="-0.29901">
        <ele>5.3</ele>
        <time>2021-02-21T09:07:36Z</time>
      </trkpt>
      <trkpt lat="49.29623" lon="-0.29899">
        <ele>5.3</ele>
        <time>2021-02-21T09:07:37Z</time>
      </trkpt>
      <trkpt lat="49.29623" lon="-0.29896">
        <ele>5.3</ele>
        <time>2021-02-21T09:07:40Z</time>
      </trkpt>
      <trkpt lat="49.29622" lon="-0.29892">
        <ele>5.3</ele>
        <time>2021-02-21T09:07:42Z</time>
      </trkpt>
      <trkpt lat="49.29619" lon="-0.29889">
        <ele>5.3</ele>
        <time>2021-02-21T09:07:43Z</time>
      </trkpt>
      <trkpt lat="49.29618" lon="-0.29888">
        <ele>5.3</ele>
        <time>2021-02-21T09:07:44Z</time>
      </trkpt>
      <trkpt lat="49.29617" lon="-0.29886">
        <ele>5.3</ele>
        <time>2021-02-21T09:07:45Z</time>
      </trkpt>
      <trkpt lat="49.29616" lon="-0.29884">
        <ele>5.3</ele>
        <time>2021-02-21T09:07:47Z</time>
      </trkpt>
      <trkpt lat="49.29616" lon="-0.29882">
        <ele>5.4</ele>
        <time>2021-02-21T09:07:48Z</time>
      </trkpt>
      <trkpt lat="49.29614" lon="-0.29879">
        <ele>5.4</ele>
        <time>2021-02-21T09:07:50Z</time>
      </trkpt>
      <trkpt lat="49.29614" lon="-0.29877">
        <ele>5.4</ele>
        <time>2021-02-21T09:07:51Z</time>
      </trkpt>
      <trkpt lat="49.29613" lon="-0.29874">
        <ele>5.4</ele>
        <time>2021-02-21T09:07:52Z</time>
      </trkpt>
      <trkpt lat="49.29612" lon="-0.29871">
        <ele>5.4</ele>
        <time>2021-02-21T09:07:54Z</time>
      </trkpt>
      <trkpt lat="49.29611" lon="-0.29867">
        <ele>5.4</ele>
        <time>2021-02-21T09:07:55Z</time>
      </trkpt>
      <trkpt lat="49.29611" lon="-0.29865">
        <ele>5.4</ele>
        <time>2021-02-21T09:07:56Z</time>
      </trkpt>
      <trkpt lat="49.29609" lon="-0.29861">
        <ele>5.4</ele>
        <time>2021-02-21T09:07:58Z</time>
      </trkpt>
      <trkpt lat="49.29609" lon="-0.2986">
        <ele>5.4</ele>
        <time>2021-02-21T09:07:59Z</time>
      </trkpt>
      <trkpt lat="49.29607" lon="-0.29855">
        <ele>5.4</ele>
        <time>2021-02-21T09:08:00Z</time>
      </trkpt>
      <trkpt lat="49.29607" lon="-0.29854">
        <ele>5.4</ele>
        <time>2021-02-21T09:08:01Z</time>
      </trkpt>
      <trkpt lat="49.29606" lon="-0.29846">
        <ele>5.4</ele>
        <time>2021-02-21T09:08:04Z</time>
      </trkpt>
      <trkpt lat="49.29604" lon="-0.29842">
        <ele>5.4</ele>
        <time>2021-02-21T09:08:05Z</time>
      </trkpt>
      <trkpt lat="49.29603" lon="-0.29837">
        <ele>5.4</ele>
        <time>2021-02-21T09:08:07Z</time>
      </trkpt>
      <trkpt lat="49.29602" lon="-0.29832">
        <ele>5.4</ele>
        <time>2021-02-21T09:08:08Z</time>
      </trkpt>
      <trkpt lat="49.296" lon="-0.29827">
        <ele>5.4</ele>
        <time>2021-02-21T09:08:09Z</time>
      </trkpt>
      <trkpt lat="49.29599" lon="-0.29822">
        <ele>5.4</ele>
        <time>2021-02-21T09:08:11Z</time>
      </trkpt>
      <trkpt lat="49.29597" lon="-0.29818">
        <ele>5.4</ele>
        <time>2021-02-21T09:08:12Z</time>
      </trkpt>
      <trkpt lat="49.29596" lon="-0.29812">
        <ele>5.4</ele>
        <time>2021-02-21T09:08:14Z</time>
      </trkpt>
      <trkpt lat="49.29595" lon="-0.2981">
        <ele>5.4</ele>
        <time>2021-02-21T09:08:15Z</time>
      </trkpt>
      <trkpt lat="49.29595" lon="-0.29808">
        <ele>5.4</ele>
        <time>2021-02-21T09:08:16Z</time>
      </trkpt>
      <trkpt lat="49.29593" lon="-0.29803">
        <ele>5.4</ele>
        <time>2021-02-21T09:08:18Z</time>
      </trkpt>
      <trkpt lat="49.29593" lon="-0.29799">
        <ele>5.4</ele>
        <time>2021-02-21T09:08:19Z</time>
      </trkpt>
      <trkpt lat="49.29591" lon="-0.29792">
        <ele>5.4</ele>
        <time>2021-02-21T09:08:21Z</time>
      </trkpt>
      <trkpt lat="49.2959" lon="-0.29789">
        <ele>5.4</ele>
        <time>2021-02-21T09:08:22Z</time>
      </trkpt>
      <trkpt lat="49.2959" lon="-0.29787">
        <ele>5.4</ele>
        <time>2021-02-21T09:08:23Z</time>
      </trkpt>
      <trkpt lat="49.29588" lon="-0.29782">
        <ele>5.4</ele>
        <time>2021-02-21T09:08:26Z</time>
      </trkpt>
      <trkpt lat="49.29588" lon="-0.29781">
        <ele>5.4</ele>
        <time>2021-02-21T09:08:27Z</time>
      </trkpt>
      <trkpt lat="49.29587" lon="-0.29777">
        <ele>5.4</ele>
        <time>2021-02-21T09:08:28Z</time>
      </trkpt>
      <trkpt lat="49.29586" lon="-0.29775">
        <ele>5.4</ele>
        <time>2021-02-21T09:08:29Z</time>
      </trkpt>
      <trkpt lat="49.29585" lon="-0.2977">
        <ele>5.4</ele>
        <time>2021-02-21T09:08:30Z</time>
      </trkpt>
      <trkpt lat="49.29584" lon="-0.29768">
        <ele>5.4</ele>
        <time>2021-02-21T09:08:31Z</time>
      </trkpt>
      <trkpt lat="49.29583" lon="-0.29764">
        <ele>5.5</ele>
        <time>2021-02-21T09:08:33Z</time>
      </trkpt>
      <trkpt lat="49.29581" lon="-0.2976">
        <ele>5.5</ele>
        <time>2021-02-21T09:08:35Z</time>
      </trkpt>
      <trkpt lat="49.2958" lon="-0.29757">
        <ele>5.5</ele>
        <time>2021-02-21T09:08:36Z</time>
      </trkpt>
      <trkpt lat="49.29579" lon="-0.29754">
        <ele>5.5</ele>
        <time>2021-02-21T09:08:38Z</time>
      </trkpt>
      <trkpt lat="49.29579" lon="-0.29752">
        <ele>5.5</ele>
        <time>2021-02-21T09:08:39Z</time>
      </trkpt>
      <trkpt lat="49.29578" lon="-0.29751">
        <ele>5.5</ele>
        <time>2021-02-21T09:08:41Z</time>
      </trkpt>
      <trkpt lat="49.29577" lon="-0.29751">
        <ele>5.5</ele>
        <time>2021-02-21T09:08:42Z</time>
      </trkpt>
      <trkpt lat="49.29576" lon="-0.29749">
        <ele>5.5</ele>
        <time>2021-02-21T09:08:43Z</time>
      </trkpt>
      <trkpt lat="49.29576" lon="-0.29747">
        <ele>5.5</ele>
        <time>2021-02-21T09:08:44Z</time>
      </trkpt>
      <trkpt lat="49.29576" lon="-0.29744">
        <ele>5.5</ele>
        <time>2021-02-21T09:08:46Z</time>
      </trkpt>
      <trkpt lat="49.29576" lon="-0.29742">
        <ele>5.5</ele>
        <time>2021-02-21T09:08:47Z</time>
      </trkpt>
      <trkpt lat="49.29576" lon="-0.29737">
        <ele>5.5</ele>
        <time>2021-02-21T09:08:49Z</time>
      </trkpt>
      <trkpt lat="49.29575" lon="-0.29735">
        <ele>5.5</ele>
        <time>2021-02-21T09:08:51Z</time>
      </trkpt>
      <trkpt lat="49.29575" lon="-0.29733">
        <ele>5.5</ele>
        <time>2021-02-21T09:08:53Z</time>
      </trkpt>
      <trkpt lat="49.29575" lon="-0.29732">
        <ele>5.5</ele>
        <time>2021-02-21T09:08:54Z</time>
      </trkpt>
      <trkpt lat="49.29574" lon="-0.29727">
        <ele>5.5</ele>
        <time>2021-02-21T09:08:55Z</time>
      </trkpt>
      <trkpt lat="49.29573" lon="-0.29725">
        <ele>5.5</ele>
        <time>2021-02-21T09:08:56Z</time>
      </trkpt>
      <trkpt lat="49.29572" lon="-0.2972">
        <ele>5.5</ele>
        <time>2021-02-21T09:08:58Z</time>
      </trkpt>
      <trkpt lat="49.29571" lon="-0.29716">
        <ele>5.5</ele>
        <time>2021-02-21T09:08:59Z</time>
      </trkpt>
      <trkpt lat="49.2957" lon="-0.29713">
        <ele>5.5</ele>
        <time>2021-02-21T09:09:01Z</time>
      </trkpt>
      <trkpt lat="49.29569" lon="-0.29708">
        <ele>5.5</ele>
        <time>2021-02-21T09:09:03Z</time>
      </trkpt>
      <trkpt lat="49.29567" lon="-0.29705">
        <ele>5.5</ele>
        <time>2021-02-21T09:09:04Z</time>
      </trkpt>
      <trkpt lat="49.29566" lon="-0.29701">
        <ele>5.5</ele>
        <time>2021-02-21T09:09:06Z</time>
      </trkpt>
      <trkpt lat="49.29565" lon="-0.29697">
        <ele>5.5</ele>
        <time>2021-02-21T09:09:07Z</time>
      </trkpt>
      <trkpt lat="49.29565" lon="-0.29696">
        <ele>5.5</ele>
        <time>2021-02-21T09:09:08Z</time>
      </trkpt>
      <trkpt lat="49.29564" lon="-0.29693">
        <ele>5.5</ele>
        <time>2021-02-21T09:09:10Z</time>
      </trkpt>
      <trkpt lat="49.29563" lon="-0.29688">
        <ele>5.5</ele>
        <time>2021-02-21T09:09:13Z</time>
      </trkpt>
      <trkpt lat="49.29562" lon="-0.29683">
        <ele>5.5</ele>
        <time>2021-02-21T09:09:14Z</time>
      </trkpt>
      <trkpt lat="49.29561" lon="-0.29682">
        <ele>5.5</ele>
        <time>2021-02-21T09:09:15Z</time>
      </trkpt>
      <trkpt lat="49.2956" lon="-0.29678">
        <ele>5.5</ele>
        <time>2021-02-21T09:09:16Z</time>
      </trkpt>
      <trkpt lat="49.29559" lon="-0.29676">
        <ele>5.5</ele>
        <time>2021-02-21T09:09:17Z</time>
      </trkpt>
      <trkpt lat="49.29557" lon="-0.29672">
        <ele>5.5</ele>
        <time>2021-02-21T09:09:19Z</time>
      </trkpt>
      <trkpt lat="49.29557" lon="-0.2967">
        <ele>5.5</ele>
        <time>2021-02-21T09:09:20Z</time>
      </trkpt>
      <trkpt lat="49.29556" lon="-0.29668">
        <ele>5.6</ele>
        <time>2021-02-21T09:09:21Z</time>
      </trkpt>
      <trkpt lat="49.29555" lon="-0.29666">
        <ele>5.6</ele>
        <time>2021-02-21T09:09:22Z</time>
      </trkpt>
      <trkpt lat="49.29553" lon="-0.29662">
        <ele>5.6</ele>
        <time>2021-02-21T09:09:24Z</time>
      </trkpt>
      <trkpt lat="49.29552" lon="-0.29658">
        <ele>5.6</ele>
        <time>2021-02-21T09:09:25Z</time>
      </trkpt>
      <trkpt lat="49.2955" lon="-0.29653">
        <ele>5.6</ele>
        <time>2021-02-21T09:09:27Z</time>
      </trkpt>
      <trkpt lat="49.29549" lon="-0.29651">
        <ele>5.6</ele>
        <time>2021-02-21T09:09:28Z</time>
      </trkpt>
      <trkpt lat="49.29549" lon="-0.29649">
        <ele>5.6</ele>
        <time>2021-02-21T09:09:29Z</time>
      </trkpt>
      <trkpt lat="49.29547" lon="-0.29647">
        <ele>5.6</ele>
        <time>2021-02-21T09:09:30Z</time>
      </trkpt>
      <trkpt lat="49.29546" lon="-0.29644">
        <ele>5.6</ele>
        <time>2021-02-21T09:09:32Z</time>
      </trkpt>
      <trkpt lat="49.29546" lon="-0.29642">
        <ele>5.6</ele>
        <time>2021-02-21T09:09:33Z</time>
      </trkpt>
      <trkpt lat="49.29544" lon="-0.29638">
        <ele>5.6</ele>
        <time>2021-02-21T09:09:36Z</time>
      </trkpt>
      <trkpt lat="49.29543" lon="-0.29635">
        <ele>5.6</ele>
        <time>2021-02-21T09:09:37Z</time>
      </trkpt>
      <trkpt lat="49.29542" lon="-0.29631">
        <ele>5.6</ele>
        <time>2021-02-21T09:09:39Z</time>
      </trkpt>
      <trkpt lat="49.29541" lon="-0.29629">
        <ele>5.6</ele>
        <time>2021-02-21T09:09:40Z</time>
      </trkpt>
      <trkpt lat="49.2954" lon="-0.29624">
        <ele>5.6</ele>
        <time>2021-02-21T09:09:42Z</time>
      </trkpt>
      <trkpt lat="49.29538" lon="-0.2962">
        <ele>5.6</ele>
        <time>2021-02-21T09:09:44Z</time>
      </trkpt>
      <trkpt lat="49.29537" lon="-0.29615">
        <ele>5.6</ele>
        <time>2021-02-21T09:09:45Z</time>
      </trkpt>
      <trkpt lat="49.29535" lon="-0.29611">
        <ele>5.6</ele>
        <time>2021-02-21T09:09:47Z</time>
      </trkpt>
      <trkpt lat="49.29534" lon="-0.2961">
        <ele>5.6</ele>
        <time>2021-02-21T09:09:48Z</time>
      </trkpt>
      <trkpt lat="49.29533" lon="-0.29607">
        <ele>5.6</ele>
        <time>2021-02-21T09:09:49Z</time>
      </trkpt>
      <trkpt lat="49.29532" lon="-0.29603">
        <ele>5.6</ele>
        <time>2021-02-21T09:09:51Z</time>
      </trkpt>
      <trkpt lat="49.2953" lon="-0.296">
        <ele>5.6</ele>
        <time>2021-02-21T09:09:52Z</time>
      </trkpt>
      <trkpt lat="49.29529" lon="-0.29597">
        <ele>5.6</ele>
        <time>2021-02-21T09:09:54Z</time>
      </trkpt>
      <trkpt lat="49.29528" lon="-0.29594">
        <ele>5.6</ele>
        <time>2021-02-21T09:09:55Z</time>
      </trkpt>
      <trkpt lat="49.29527" lon="-0.29591">
        <ele>5.6</ele>
        <time>2021-02-21T09:09:57Z</time>
      </trkpt>
      <trkpt lat="49.29525" lon="-0.29586">
        <ele>5.6</ele>
        <time>2021-02-21T09:09:59Z</time>
      </trkpt>
      <trkpt lat="49.29525" lon="-0.29585">
        <ele>5.6</ele>
        <time>2021-02-21T09:10:00Z</time>
      </trkpt>
      <trkpt lat="49.29524" lon="-0.29582">
        <ele>5.6</ele>
        <time>2021-02-21T09:10:01Z</time>
      </trkpt>
      <trkpt lat="49.29523" lon="-0.2958">
        <ele>5.6</ele>
        <time>2021-02-21T09:10:02Z</time>
      </trkpt>
      <trkpt lat="49.29522" lon="-0.29577">
        <ele>5.6</ele>
        <time>2021-02-21T09:10:03Z</time>
      </trkpt>
      <trkpt lat="49.29521" lon="-0.29574">
        <ele>5.6</ele>
        <time>2021-02-21T09:10:05Z</time>
      </trkpt>
      <trkpt lat="49.29519" lon="-0.29567">
        <ele>5.6</ele>
        <time>2021-02-21T09:10:07Z</time>
      </trkpt>
      <trkpt lat="49.29518" lon="-0.29565">
        <ele>5.6</ele>
        <time>2021-02-21T09:10:09Z</time>
      </trkpt>
      <trkpt lat="49.29517" lon="-0.29562">
        <ele>5.6</ele>
        <time>2021-02-21T09:10:10Z</time>
      </trkpt>
      <trkpt lat="49.29516" lon="-0.2956">
        <ele>5.6</ele>
        <time>2021-02-21T09:10:11Z</time>
      </trkpt>
      <trkpt lat="49.29515" lon="-0.29555">
        <ele>5.7</ele>
        <time>2021-02-21T09:10:13Z</time>
      </trkpt>
      <trkpt lat="49.29515" lon="-0.29554">
        <ele>5.7</ele>
        <time>2021-02-21T09:10:14Z</time>
      </trkpt>
      <trkpt lat="49.29514" lon="-0.29551">
        <ele>5.7</ele>
        <time>2021-02-21T09:10:15Z</time>
      </trkpt>
      <trkpt lat="49.29513" lon="-0.29546">
        <ele>5.7</ele>
        <time>2021-02-21T09:10:17Z</time>
      </trkpt>
      <trkpt lat="49.29512" lon="-0.29541">
        <ele>5.7</ele>
        <time>2021-02-21T09:10:19Z</time>
      </trkpt>
      <trkpt lat="49.29511" lon="-0.29538">
        <ele>5.7</ele>
        <time>2021-02-21T09:10:20Z</time>
      </trkpt>
      <trkpt lat="49.29509" lon="-0.29533">
        <ele>5.7</ele>
        <time>2021-02-21T09:10:23Z</time>
      </trkpt>
      <trkpt lat="49.29509" lon="-0.29531">
        <ele>5.7</ele>
        <time>2021-02-21T09:10:24Z</time>
      </trkpt>
      <trkpt lat="49.29508" lon="-0.29527">
        <ele>5.7</ele>
        <time>2021-02-21T09:10:26Z</time>
      </trkpt>
      <trkpt lat="49.29507" lon="-0.29525">
        <ele>5.7</ele>
        <time>2021-02-21T09:10:27Z</time>
      </trkpt>
      <trkpt lat="49.29506" lon="-0.29522">
        <ele>5.7</ele>
        <time>2021-02-21T09:10:28Z</time>
      </trkpt>
      <trkpt lat="49.29505" lon="-0.29518">
        <ele>5.7</ele>
        <time>2021-02-21T09:10:30Z</time>
      </trkpt>
      <trkpt lat="49.29504" lon="-0.29514">
        <ele>5.7</ele>
        <time>2021-02-21T09:10:31Z</time>
      </trkpt>
      <trkpt lat="49.29503" lon="-0.29509">
        <ele>5.7</ele>
        <time>2021-02-21T09:10:33Z</time>
      </trkpt>
      <trkpt lat="49.29502" lon="-0.29507">
        <ele>5.7</ele>
        <time>2021-02-21T09:10:34Z</time>
      </trkpt>
      <trkpt lat="49.29501" lon="-0.29502">
        <ele>5.7</ele>
        <time>2021-02-21T09:10:36Z</time>
      </trkpt>
      <trkpt lat="49.29499" lon="-0.29497">
        <ele>5.7</ele>
        <time>2021-02-21T09:10:38Z</time>
      </trkpt>
      <trkpt lat="49.29499" lon="-0.29495">
        <ele>5.7</ele>
        <time>2021-02-21T09:10:39Z</time>
      </trkpt>
      <trkpt lat="49.29499" lon="-0.29493">
        <ele>5.7</ele>
        <time>2021-02-21T09:10:40Z</time>
      </trkpt>
      <trkpt lat="49.29498" lon="-0.29491">
        <ele>5.7</ele>
        <time>2021-02-21T09:10:41Z</time>
      </trkpt>
      <trkpt lat="49.29498" lon="-0.29488">
        <ele>5.7</ele>
        <time>2021-02-21T09:10:43Z</time>
      </trkpt>
      <trkpt lat="49.29497" lon="-0.29485">
        <ele>5.7</ele>
        <time>2021-02-21T09:10:45Z</time>
      </trkpt>
      <trkpt lat="49.29497" lon="-0.29483">
        <ele>5.7</ele>
        <time>2021-02-21T09:10:46Z</time>
      </trkpt>
      <trkpt lat="49.29496" lon="-0.29482">
        <ele>5.7</ele>
        <time>2021-02-21T09:10:48Z</time>
      </trkpt>
      <trkpt lat="49.29496" lon="-0.29481">
        <ele>5.7</ele>
        <time>2021-02-21T09:10:49Z</time>
      </trkpt>
      <trkpt lat="49.29494" lon="-0.29477">
        <ele>5.7</ele>
        <time>2021-02-21T09:10:51Z</time>
      </trkpt>
      <trkpt lat="49.29493" lon="-0.29475">
        <ele>5.7</ele>
        <time>2021-02-21T09:10:52Z</time>
      </trkpt>
      <trkpt lat="49.29492" lon="-0.2947">
        <ele>5.7</ele>
        <time>2021-02-21T09:10:54Z</time>
      </trkpt>
      <trkpt lat="49.29491" lon="-0.29467">
        <ele>5.7</ele>
        <time>2021-02-21T09:10:55Z</time>
      </trkpt>
      <trkpt lat="49.2949" lon="-0.29463">
        <ele>5.7</ele>
        <time>2021-02-21T09:10:57Z</time>
      </trkpt>
      <trkpt lat="49.29488" lon="-0.29459">
        <ele>5.7</ele>
        <time>2021-02-21T09:10:58Z</time>
      </trkpt>
      <trkpt lat="49.29487" lon="-0.29453">
        <ele>5.7</ele>
        <time>2021-02-21T09:10:59Z</time>
      </trkpt>
      <trkpt lat="49.29485" lon="-0.29448">
        <ele>5.7</ele>
        <time>2021-02-21T09:11:01Z</time>
      </trkpt>
      <trkpt lat="49.29483" lon="-0.29442">
        <ele>5.7</ele>
        <time>2021-02-21T09:11:02Z</time>
      </trkpt>
      <trkpt lat="49.2948" lon="-0.29437">
        <ele>5.8</ele>
        <time>2021-02-21T09:11:04Z</time>
      </trkpt>
      <trkpt lat="49.29478" lon="-0.29434">
        <ele>5.8</ele>
        <time>2021-02-21T09:11:05Z</time>
      </trkpt>
      <trkpt lat="49.29476" lon="-0.29433">
        <ele>5.8</ele>
        <time>2021-02-21T09:11:06Z</time>
      </trkpt>
      <trkpt lat="49.29473" lon="-0.29431">
        <ele>5.5</ele>
        <time>2021-02-21T09:11:09Z</time>
      </trkpt>
      <trkpt lat="49.29472" lon="-0.29431">
        <ele>5.4</ele>
        <time>2021-02-21T09:11:10Z</time>
      </trkpt>
      <trkpt lat="49.2947" lon="-0.29431">
        <ele>5.4</ele>
        <time>2021-02-21T09:11:11Z</time>
      </trkpt>
      <trkpt lat="49.29468" lon="-0.29431">
        <ele>5.4</ele>
        <time>2021-02-21T09:11:13Z</time>
      </trkpt>
      <trkpt lat="49.29466" lon="-0.29432">
        <ele>5.3</ele>
        <time>2021-02-21T09:11:14Z</time>
      </trkpt>
      <trkpt lat="49.29464" lon="-0.29433">
        <ele>5.3</ele>
        <time>2021-02-21T09:11:15Z</time>
      </trkpt>
      <trkpt lat="49.29461" lon="-0.29435">
        <ele>5.2</ele>
        <time>2021-02-21T09:11:17Z</time>
      </trkpt>
      <trkpt lat="49.2946" lon="-0.29436">
        <ele>5.2</ele>
        <time>2021-02-21T09:11:18Z</time>
      </trkpt>
      <trkpt lat="49.29459" lon="-0.29437">
        <ele>5.1</ele>
        <time>2021-02-21T09:11:19Z</time>
      </trkpt>
      <trkpt lat="49.29456" lon="-0.2944">
        <ele>5</ele>
        <time>2021-02-21T09:11:21Z</time>
      </trkpt>
      <trkpt lat="49.29454" lon="-0.29442">
        <ele>5</ele>
        <time>2021-02-21T09:11:22Z</time>
      </trkpt>
      <trkpt lat="49.29452" lon="-0.29445">
        <ele>4.9</ele>
        <time>2021-02-21T09:11:24Z</time>
      </trkpt>
      <trkpt lat="49.2945" lon="-0.29447">
        <ele>4.9</ele>
        <time>2021-02-21T09:11:25Z</time>
      </trkpt>
      <trkpt lat="49.29448" lon="-0.29451">
        <ele>4.8</ele>
        <time>2021-02-21T09:11:27Z</time>
      </trkpt>
      <trkpt lat="49.29447" lon="-0.29453">
        <ele>4.8</ele>
        <time>2021-02-21T09:11:28Z</time>
      </trkpt>
      <trkpt lat="49.29444" lon="-0.29458">
        <ele>4.7</ele>
        <time>2021-02-21T09:11:31Z</time>
      </trkpt>
      <trkpt lat="49.29443" lon="-0.29461">
        <ele>4.7</ele>
        <time>2021-02-21T09:11:32Z</time>
      </trkpt>
      <trkpt lat="49.29441" lon="-0.29465">
        <ele>4.6</ele>
        <time>2021-02-21T09:11:34Z</time>
      </trkpt>
      <trkpt lat="49.2944" lon="-0.29468">
        <ele>4.6</ele>
        <time>2021-02-21T09:11:35Z</time>
      </trkpt>
      <trkpt lat="49.29439" lon="-0.29473">
        <ele>4.6</ele>
        <time>2021-02-21T09:11:37Z</time>
      </trkpt>
      <trkpt lat="49.29437" lon="-0.29478">
        <ele>4.5</ele>
        <time>2021-02-21T09:11:39Z</time>
      </trkpt>
      <trkpt lat="49.29435" lon="-0.29482">
        <ele>4.5</ele>
        <time>2021-02-21T09:11:40Z</time>
      </trkpt>
      <trkpt lat="49.29433" lon="-0.29486">
        <ele>4.4</ele>
        <time>2021-02-21T09:11:41Z</time>
      </trkpt>
      <trkpt lat="49.29433" lon="-0.29487">
        <ele>4.4</ele>
        <time>2021-02-21T09:11:42Z</time>
      </trkpt>
      <trkpt lat="49.29431" lon="-0.29492">
        <ele>4.4</ele>
        <time>2021-02-21T09:11:43Z</time>
      </trkpt>
      <trkpt lat="49.2943" lon="-0.29493">
        <ele>4.4</ele>
        <time>2021-02-21T09:11:44Z</time>
      </trkpt>
      <trkpt lat="49.29428" lon="-0.29497">
        <ele>4.3</ele>
        <time>2021-02-21T09:11:46Z</time>
      </trkpt>
      <trkpt lat="49.29426" lon="-0.29501">
        <ele>4.3</ele>
        <time>2021-02-21T09:11:48Z</time>
      </trkpt>
      <trkpt lat="49.29424" lon="-0.29504">
        <ele>4.3</ele>
        <time>2021-02-21T09:11:50Z</time>
      </trkpt>
      <trkpt lat="49.29422" lon="-0.29508">
        <ele>4.2</ele>
        <time>2021-02-21T09:11:52Z</time>
      </trkpt>
      <trkpt lat="49.29422" lon="-0.2951">
        <ele>4.2</ele>
        <time>2021-02-21T09:11:54Z</time>
      </trkpt>
      <trkpt lat="49.2942" lon="-0.29514">
        <ele>4.2</ele>
        <time>2021-02-21T09:11:56Z</time>
      </trkpt>
      <trkpt lat="49.29419" lon="-0.29518">
        <ele>4.2</ele>
        <time>2021-02-21T09:11:57Z</time>
      </trkpt>
      <trkpt lat="49.29418" lon="-0.2952">
        <ele>4.2</ele>
        <time>2021-02-21T09:11:58Z</time>
      </trkpt>
      <trkpt lat="49.29416" lon="-0.29524">
        <ele>4.1</ele>
        <time>2021-02-21T09:12:00Z</time>
      </trkpt>
      <trkpt lat="49.29415" lon="-0.29525">
        <ele>4.1</ele>
        <time>2021-02-21T09:12:01Z</time>
      </trkpt>
      <trkpt lat="49.29414" lon="-0.29529">
        <ele>4.1</ele>
        <time>2021-02-21T09:12:02Z</time>
      </trkpt>
      <trkpt lat="49.29413" lon="-0.2953">
        <ele>4.1</ele>
        <time>2021-02-21T09:12:03Z</time>
      </trkpt>
      <trkpt lat="49.29411" lon="-0.29532">
        <ele>4.1</ele>
        <time>2021-02-21T09:12:05Z</time>
      </trkpt>
      <trkpt lat="49.29411" lon="-0.29533">
        <ele>4.1</ele>
        <time>2021-02-21T09:12:06Z</time>
      </trkpt>
      <trkpt lat="49.2941" lon="-0.29535">
        <ele>4.1</ele>
        <time>2021-02-21T09:12:08Z</time>
      </trkpt>
      <trkpt lat="49.29409" lon="-0.29536">
        <ele>4.1</ele>
        <time>2021-02-21T09:12:09Z</time>
      </trkpt>
      <trkpt lat="49.29408" lon="-0.29538">
        <ele>4</ele>
        <time>2021-02-21T09:12:10Z</time>
      </trkpt>
      <trkpt lat="49.29408" lon="-0.29539">
        <ele>4</ele>
        <time>2021-02-21T09:12:11Z</time>
      </trkpt>
      <trkpt lat="49.29407" lon="-0.29542">
        <ele>4</ele>
        <time>2021-02-21T09:12:13Z</time>
      </trkpt>
      <trkpt lat="49.29405" lon="-0.29545">
        <ele>4</ele>
        <time>2021-02-21T09:12:14Z</time>
      </trkpt>
      <trkpt lat="49.29404" lon="-0.29546">
        <ele>4</ele>
        <time>2021-02-21T09:12:15Z</time>
      </trkpt>
      <trkpt lat="49.29402" lon="-0.29549">
        <ele>4</ele>
        <time>2021-02-21T09:12:18Z</time>
      </trkpt>
      <trkpt lat="49.294" lon="-0.29553">
        <ele>4</ele>
        <time>2021-02-21T09:12:19Z</time>
      </trkpt>
      <trkpt lat="49.29398" lon="-0.29557">
        <ele>3.9</ele>
        <time>2021-02-21T09:12:21Z</time>
      </trkpt>
      <trkpt lat="49.29396" lon="-0.2956">
        <ele>3.9</ele>
        <time>2021-02-21T09:12:22Z</time>
      </trkpt>
      <trkpt lat="49.29394" lon="-0.29564">
        <ele>3.9</ele>
        <time>2021-02-21T09:12:23Z</time>
      </trkpt>
      <trkpt lat="49.29393" lon="-0.29565">
        <ele>3.9</ele>
        <time>2021-02-21T09:12:24Z</time>
      </trkpt>
      <trkpt lat="49.2939" lon="-0.29569">
        <ele>3.9</ele>
        <time>2021-02-21T09:12:26Z</time>
      </trkpt>
      <trkpt lat="49.29389" lon="-0.29571">
        <ele>3.9</ele>
        <time>2021-02-21T09:12:27Z</time>
      </trkpt>
      <trkpt lat="49.29386" lon="-0.29573">
        <ele>3.9</ele>
        <time>2021-02-21T09:12:29Z</time>
      </trkpt>
      <trkpt lat="49.29383" lon="-0.29578">
        <ele>3.8</ele>
        <time>2021-02-21T09:12:31Z</time>
      </trkpt>
      <trkpt lat="49.29381" lon="-0.2958">
        <ele>3.8</ele>
        <time>2021-02-21T09:12:32Z</time>
      </trkpt>
      <trkpt lat="49.2938" lon="-0.29581">
        <ele>3.8</ele>
        <time>2021-02-21T09:12:33Z</time>
      </trkpt>
      <trkpt lat="49.29377" lon="-0.29585">
        <ele>3.8</ele>
        <time>2021-02-21T09:12:34Z</time>
      </trkpt>
      <trkpt lat="49.29374" lon="-0.29588">
        <ele>3.8</ele>
        <time>2021-02-21T09:12:36Z</time>
      </trkpt>
      <trkpt lat="49.29373" lon="-0.2959">
        <ele>3.8</ele>
        <time>2021-02-21T09:12:37Z</time>
      </trkpt>
      <trkpt lat="49.2937" lon="-0.29594">
        <ele>3.8</ele>
        <time>2021-02-21T09:12:40Z</time>
      </trkpt>
      <trkpt lat="49.29369" lon="-0.29595">
        <ele>3.8</ele>
        <time>2021-02-21T09:12:41Z</time>
      </trkpt>
      <trkpt lat="49.29368" lon="-0.29597">
        <ele>3.8</ele>
        <time>2021-02-21T09:12:42Z</time>
      </trkpt>
      <trkpt lat="49.29367" lon="-0.29601">
        <ele>3.8</ele>
        <time>2021-02-21T09:12:43Z</time>
      </trkpt>
      <trkpt lat="49.29364" lon="-0.29605">
        <ele>3.8</ele>
        <time>2021-02-21T09:12:45Z</time>
      </trkpt>
      <trkpt lat="49.29364" lon="-0.29607">
        <ele>3.8</ele>
        <time>2021-02-21T09:12:46Z</time>
      </trkpt>
      <trkpt lat="49.29362" lon="-0.2961">
        <ele>3.8</ele>
        <time>2021-02-21T09:12:47Z</time>
      </trkpt>
      <trkpt lat="49.29361" lon="-0.29614">
        <ele>3.8</ele>
        <time>2021-02-21T09:12:49Z</time>
      </trkpt>
      <trkpt lat="49.29358" lon="-0.29618">
        <ele>3.8</ele>
        <time>2021-02-21T09:12:50Z</time>
      </trkpt>
      <trkpt lat="49.29357" lon="-0.29619">
        <ele>3.8</ele>
        <time>2021-02-21T09:12:51Z</time>
      </trkpt>
      <trkpt lat="49.29355" lon="-0.29621">
        <ele>3.7</ele>
        <time>2021-02-21T09:12:53Z</time>
      </trkpt>
      <trkpt lat="49.29353" lon="-0.29624">
        <ele>3.7</ele>
        <time>2021-02-21T09:12:54Z</time>
      </trkpt>
      <trkpt lat="49.29351" lon="-0.29627">
        <ele>3.7</ele>
        <time>2021-02-21T09:12:55Z</time>
      </trkpt>
      <trkpt lat="49.29348" lon="-0.2963">
        <ele>3.7</ele>
        <time>2021-02-21T09:12:57Z</time>
      </trkpt>
      <trkpt lat="49.29346" lon="-0.29633">
        <ele>3.7</ele>
        <time>2021-02-21T09:12:58Z</time>
      </trkpt>
      <trkpt lat="49.29344" lon="-0.29635">
        <ele>3.7</ele>
        <time>2021-02-21T09:13:00Z</time>
      </trkpt>
      <trkpt lat="49.29342" lon="-0.2964">
        <ele>3.7</ele>
        <time>2021-02-21T09:13:03Z</time>
      </trkpt>
      <trkpt lat="49.29341" lon="-0.29642">
        <ele>3.7</ele>
        <time>2021-02-21T09:13:04Z</time>
      </trkpt>
      <trkpt lat="49.2934" lon="-0.29645">
        <ele>3.7</ele>
        <time>2021-02-21T09:13:06Z</time>
      </trkpt>
      <trkpt lat="49.29337" lon="-0.29648">
        <ele>3.7</ele>
        <time>2021-02-21T09:13:07Z</time>
      </trkpt>
      <trkpt lat="49.29336" lon="-0.29649">
        <ele>3.7</ele>
        <time>2021-02-21T09:13:08Z</time>
      </trkpt>
      <trkpt lat="49.29334" lon="-0.29652">
        <ele>3.7</ele>
        <time>2021-02-21T09:13:09Z</time>
      </trkpt>
      <trkpt lat="49.29331" lon="-0.29654">
        <ele>3.7</ele>
        <time>2021-02-21T09:13:11Z</time>
      </trkpt>
      <trkpt lat="49.29329" lon="-0.29656">
        <ele>3.7</ele>
        <time>2021-02-21T09:13:12Z</time>
      </trkpt>
      <trkpt lat="49.29327" lon="-0.29659">
        <ele>3.7</ele>
        <time>2021-02-21T09:13:14Z</time>
      </trkpt>
      <trkpt lat="49.29326" lon="-0.2966">
        <ele>3.7</ele>
        <time>2021-02-21T09:13:15Z</time>
      </trkpt>
      <trkpt lat="49.29324" lon="-0.29662">
        <ele>3.7</ele>
        <time>2021-02-21T09:13:17Z</time>
      </trkpt>
      <trkpt lat="49.29321" lon="-0.29665">
        <ele>3.7</ele>
        <time>2021-02-21T09:13:18Z</time>
      </trkpt>
      <trkpt lat="49.2932" lon="-0.29667">
        <ele>3.7</ele>
        <time>2021-02-21T09:13:19Z</time>
      </trkpt>
      <trkpt lat="49.29317" lon="-0.29669">
        <ele>3.7</ele>
        <time>2021-02-21T09:13:21Z</time>
      </trkpt>
      <trkpt lat="49.29316" lon="-0.2967">
        <ele>3.7</ele>
        <time>2021-02-21T09:13:22Z</time>
      </trkpt>
      <trkpt lat="49.29315" lon="-0.29672">
        <ele>3.7</ele>
        <time>2021-02-21T09:13:23Z</time>
      </trkpt>
      <trkpt lat="49.29313" lon="-0.29673">
        <ele>3.7</ele>
        <time>2021-02-21T09:13:24Z</time>
      </trkpt>
      <trkpt lat="49.29311" lon="-0.29675">
        <ele>3.7</ele>
        <time>2021-02-21T09:13:27Z</time>
      </trkpt>
      <trkpt lat="49.29309" lon="-0.29677">
        <ele>3.7</ele>
        <time>2021-02-21T09:13:28Z</time>
      </trkpt>
      <trkpt lat="49.29307" lon="-0.29679">
        <ele>3.7</ele>
        <time>2021-02-21T09:13:30Z</time>
      </trkpt>
      <trkpt lat="49.29304" lon="-0.29682">
        <ele>3.7</ele>
        <time>2021-02-21T09:13:31Z</time>
      </trkpt>
      <trkpt lat="49.29303" lon="-0.29683">
        <ele>3.7</ele>
        <time>2021-02-21T09:13:32Z</time>
      </trkpt>
      <trkpt lat="49.293" lon="-0.29686">
        <ele>3.7</ele>
        <time>2021-02-21T09:13:34Z</time>
      </trkpt>
      <trkpt lat="49.29298" lon="-0.29687">
        <ele>3.7</ele>
        <time>2021-02-21T09:13:35Z</time>
      </trkpt>
      <trkpt lat="49.29297" lon="-0.29689">
        <ele>3.8</ele>
        <time>2021-02-21T09:13:36Z</time>
      </trkpt>
      <trkpt lat="49.29294" lon="-0.29692">
        <ele>3.8</ele>
        <time>2021-02-21T09:13:38Z</time>
      </trkpt>
      <trkpt lat="49.29293" lon="-0.29693">
        <ele>3.8</ele>
        <time>2021-02-21T09:13:39Z</time>
      </trkpt>
      <trkpt lat="49.29291" lon="-0.29695">
        <ele>3.8</ele>
        <time>2021-02-21T09:13:41Z</time>
      </trkpt>
      <trkpt lat="49.29289" lon="-0.29697">
        <ele>3.8</ele>
        <time>2021-02-21T09:13:42Z</time>
      </trkpt>
      <trkpt lat="49.29288" lon="-0.29698">
        <ele>3.8</ele>
        <time>2021-02-21T09:13:43Z</time>
      </trkpt>
      <trkpt lat="49.29285" lon="-0.29701">
        <ele>3.8</ele>
        <time>2021-02-21T09:13:44Z</time>
      </trkpt>
      <trkpt lat="49.29284" lon="-0.29702">
        <ele>3.8</ele>
        <time>2021-02-21T09:13:45Z</time>
      </trkpt>
      <trkpt lat="49.29281" lon="-0.29705">
        <ele>3.8</ele>
        <time>2021-02-21T09:13:47Z</time>
      </trkpt>
      <trkpt lat="49.2928" lon="-0.29706">
        <ele>3.8</ele>
        <time>2021-02-21T09:13:49Z</time>
      </trkpt>
      <trkpt lat="49.29277" lon="-0.29708">
        <ele>3.9</ele>
        <time>2021-02-21T09:13:50Z</time>
      </trkpt>
      <trkpt lat="49.29276" lon="-0.29709">
        <ele>3.9</ele>
        <time>2021-02-21T09:13:51Z</time>
      </trkpt>
      <trkpt lat="49.29275" lon="-0.29711">
        <ele>3.9</ele>
        <time>2021-02-21T09:13:52Z</time>
      </trkpt>
      <trkpt lat="49.29272" lon="-0.29713">
        <ele>3.9</ele>
        <time>2021-02-21T09:13:54Z</time>
      </trkpt>
      <trkpt lat="49.29269" lon="-0.29716">
        <ele>3.9</ele>
        <time>2021-02-21T09:13:56Z</time>
      </trkpt>
      <trkpt lat="49.29267" lon="-0.29717">
        <ele>3.9</ele>
        <time>2021-02-21T09:13:57Z</time>
      </trkpt>
      <trkpt lat="49.29266" lon="-0.29718">
        <ele>3.9</ele>
        <time>2021-02-21T09:13:58Z</time>
      </trkpt>
      <trkpt lat="49.29264" lon="-0.29721">
        <ele>3.9</ele>
        <time>2021-02-21T09:13:59Z</time>
      </trkpt>
      <trkpt lat="49.29262" lon="-0.29723">
        <ele>3.9</ele>
        <time>2021-02-21T09:14:01Z</time>
      </trkpt>
      <trkpt lat="49.29259" lon="-0.29725">
        <ele>3.9</ele>
        <time>2021-02-21T09:14:02Z</time>
      </trkpt>
      <trkpt lat="49.29257" lon="-0.29726">
        <ele>3.9</ele>
        <time>2021-02-21T09:14:04Z</time>
      </trkpt>
      <trkpt lat="49.29255" lon="-0.29727">
        <ele>3.9</ele>
        <time>2021-02-21T09:14:05Z</time>
      </trkpt>
      <trkpt lat="49.29254" lon="-0.29729">
        <ele>3.9</ele>
        <time>2021-02-21T09:14:06Z</time>
      </trkpt>
      <trkpt lat="49.29251" lon="-0.29731">
        <ele>3.9</ele>
        <time>2021-02-21T09:14:08Z</time>
      </trkpt>
      <trkpt lat="49.2925" lon="-0.29732">
        <ele>3.9</ele>
        <time>2021-02-21T09:14:09Z</time>
      </trkpt>
      <trkpt lat="49.29247" lon="-0.29734">
        <ele>3.9</ele>
        <time>2021-02-21T09:14:10Z</time>
      </trkpt>
      <trkpt lat="49.29246" lon="-0.29735">
        <ele>3.9</ele>
        <time>2021-02-21T09:14:11Z</time>
      </trkpt>
      <trkpt lat="49.29244" lon="-0.29738">
        <ele>3.9</ele>
        <time>2021-02-21T09:14:14Z</time>
      </trkpt>
      <trkpt lat="49.29243" lon="-0.29739">
        <ele>3.9</ele>
        <time>2021-02-21T09:14:15Z</time>
      </trkpt>
      <trkpt lat="49.29239" lon="-0.29743">
        <ele>3.9</ele>
        <time>2021-02-21T09:14:17Z</time>
      </trkpt>
      <trkpt lat="49.29238" lon="-0.29744">
        <ele>3.9</ele>
        <time>2021-02-21T09:14:18Z</time>
      </trkpt>
      <trkpt lat="49.29237" lon="-0.29745">
        <ele>3.9</ele>
        <time>2021-02-21T09:14:19Z</time>
      </trkpt>
      <trkpt lat="49.29235" lon="-0.29748">
        <ele>3.9</ele>
        <time>2021-02-21T09:14:21Z</time>
      </trkpt>
      <trkpt lat="49.29234" lon="-0.29749">
        <ele>3.9</ele>
        <time>2021-02-21T09:14:22Z</time>
      </trkpt>
      <trkpt lat="49.29232" lon="-0.29752">
        <ele>3.9</ele>
        <time>2021-02-21T09:14:23Z</time>
      </trkpt>
      <trkpt lat="49.29231" lon="-0.29753">
        <ele>3.9</ele>
        <time>2021-02-21T09:14:24Z</time>
      </trkpt>
      <trkpt lat="49.2923" lon="-0.29755">
        <ele>3.9</ele>
        <time>2021-02-21T09:14:25Z</time>
      </trkpt>
      <trkpt lat="49.29228" lon="-0.29757">
        <ele>3.9</ele>
        <time>2021-02-21T09:14:27Z</time>
      </trkpt>
      <trkpt lat="49.29227" lon="-0.29759">
        <ele>3.9</ele>
        <time>2021-02-21T09:14:28Z</time>
      </trkpt>
      <trkpt lat="49.29225" lon="-0.29761">
        <ele>3.9</ele>
        <time>2021-02-21T09:14:30Z</time>
      </trkpt>
      <trkpt lat="49.29224" lon="-0.29764">
        <ele>3.9</ele>
        <time>2021-02-21T09:14:31Z</time>
      </trkpt>
      <trkpt lat="49.29222" lon="-0.29766">
        <ele>3.9</ele>
        <time>2021-02-21T09:14:33Z</time>
      </trkpt>
      <trkpt lat="49.29219" lon="-0.29769">
        <ele>3.9</ele>
        <time>2021-02-21T09:14:34Z</time>
      </trkpt>
      <trkpt lat="49.29218" lon="-0.2977">
        <ele>3.9</ele>
        <time>2021-02-21T09:14:36Z</time>
      </trkpt>
      <trkpt lat="49.29216" lon="-0.29773">
        <ele>3.9</ele>
        <time>2021-02-21T09:14:38Z</time>
      </trkpt>
      <trkpt lat="49.29215" lon="-0.29775">
        <ele>3.9</ele>
        <time>2021-02-21T09:14:39Z</time>
      </trkpt>
      <trkpt lat="49.29213" lon="-0.29776">
        <ele>3.9</ele>
        <time>2021-02-21T09:14:40Z</time>
      </trkpt>
      <trkpt lat="49.29211" lon="-0.29779">
        <ele>3.9</ele>
        <time>2021-02-21T09:14:42Z</time>
      </trkpt>
      <trkpt lat="49.29209" lon="-0.29781">
        <ele>3.8</ele>
        <time>2021-02-21T09:14:43Z</time>
      </trkpt>
      <trkpt lat="49.29208" lon="-0.29782">
        <ele>3.8</ele>
        <time>2021-02-21T09:14:44Z</time>
      </trkpt>
      <trkpt lat="49.29205" lon="-0.29786">
        <ele>3.8</ele>
        <time>2021-02-21T09:14:46Z</time>
      </trkpt>
      <trkpt lat="49.29204" lon="-0.29787">
        <ele>3.8</ele>
        <time>2021-02-21T09:14:47Z</time>
      </trkpt>
      <trkpt lat="49.29202" lon="-0.29789">
        <ele>3.8</ele>
        <time>2021-02-21T09:14:49Z</time>
      </trkpt>
      <trkpt lat="49.292" lon="-0.29791">
        <ele>3.8</ele>
        <time>2021-02-21T09:14:50Z</time>
      </trkpt>
      <trkpt lat="49.29198" lon="-0.29793">
        <ele>3.7</ele>
        <time>2021-02-21T09:14:52Z</time>
      </trkpt>
      <trkpt lat="49.29195" lon="-0.29796">
        <ele>3.7</ele>
        <time>2021-02-21T09:14:53Z</time>
      </trkpt>
      <trkpt lat="49.29194" lon="-0.29797">
        <ele>3.7</ele>
        <time>2021-02-21T09:14:54Z</time>
      </trkpt>
      <trkpt lat="49.2919" lon="-0.298">
        <ele>3.7</ele>
        <time>2021-02-21T09:14:56Z</time>
      </trkpt>
      <trkpt lat="49.29189" lon="-0.29801">
        <ele>3.7</ele>
        <time>2021-02-21T09:14:57Z</time>
      </trkpt>
      <trkpt lat="49.29186" lon="-0.29805">
        <ele>3.6</ele>
        <time>2021-02-21T09:14:59Z</time>
      </trkpt>
      <trkpt lat="49.29185" lon="-0.29806">
        <ele>3.6</ele>
        <time>2021-02-21T09:15:00Z</time>
      </trkpt>
      <trkpt lat="49.29183" lon="-0.29808">
        <ele>3.6</ele>
        <time>2021-02-21T09:15:01Z</time>
      </trkpt>
      <trkpt lat="49.29181" lon="-0.2981">
        <ele>3.6</ele>
        <time>2021-02-21T09:15:03Z</time>
      </trkpt>
      <trkpt lat="49.29177" lon="-0.29814">
        <ele>3.6</ele>
        <time>2021-02-21T09:15:05Z</time>
      </trkpt>
      <trkpt lat="49.29176" lon="-0.29815">
        <ele>3.6</ele>
        <time>2021-02-21T09:15:06Z</time>
      </trkpt>
      <trkpt lat="49.29174" lon="-0.29817">
        <ele>3.6</ele>
        <time>2021-02-21T09:15:07Z</time>
      </trkpt>
      <trkpt lat="49.29172" lon="-0.29819">
        <ele>3.6</ele>
        <time>2021-02-21T09:15:09Z</time>
      </trkpt>
      <trkpt lat="49.2917" lon="-0.29822">
        <ele>3.6</ele>
        <time>2021-02-21T09:15:10Z</time>
      </trkpt>
      <trkpt lat="49.29167" lon="-0.29825">
        <ele>3.6</ele>
        <time>2021-02-21T09:15:11Z</time>
      </trkpt>
      <trkpt lat="49.29164" lon="-0.29827">
        <ele>3.6</ele>
        <time>2021-02-21T09:15:13Z</time>
      </trkpt>
      <trkpt lat="49.29162" lon="-0.29828">
        <ele>3.6</ele>
        <time>2021-02-21T09:15:14Z</time>
      </trkpt>
      <trkpt lat="49.2916" lon="-0.29831">
        <ele>3.6</ele>
        <time>2021-02-21T09:15:16Z</time>
      </trkpt>
      <trkpt lat="49.29157" lon="-0.29833">
        <ele>3.5</ele>
        <time>2021-02-21T09:15:18Z</time>
      </trkpt>
      <trkpt lat="49.29155" lon="-0.29836">
        <ele>3.5</ele>
        <time>2021-02-21T09:15:19Z</time>
      </trkpt>
      <trkpt lat="49.29152" lon="-0.2984">
        <ele>3.5</ele>
        <time>2021-02-21T09:15:22Z</time>
      </trkpt>
      <trkpt lat="49.29151" lon="-0.29841">
        <ele>3.5</ele>
        <time>2021-02-21T09:15:23Z</time>
      </trkpt>
      <trkpt lat="49.2915" lon="-0.29844">
        <ele>3.5</ele>
        <time>2021-02-21T09:15:24Z</time>
      </trkpt>
      <trkpt lat="49.29148" lon="-0.29847">
        <ele>3.5</ele>
        <time>2021-02-21T09:15:26Z</time>
      </trkpt>
      <trkpt lat="49.29147" lon="-0.2985">
        <ele>3.5</ele>
        <time>2021-02-21T09:15:27Z</time>
      </trkpt>
      <trkpt lat="49.29145" lon="-0.29853">
        <ele>3.5</ele>
        <time>2021-02-21T09:15:29Z</time>
      </trkpt>
      <trkpt lat="49.29144" lon="-0.29857">
        <ele>3.5</ele>
        <time>2021-02-21T09:15:30Z</time>
      </trkpt>
      <trkpt lat="49.29144" lon="-0.29859">
        <ele>3.5</ele>
        <time>2021-02-21T09:15:31Z</time>
      </trkpt>
      <trkpt lat="49.29142" lon="-0.29863">
        <ele>3.5</ele>
        <time>2021-02-21T09:15:33Z</time>
      </trkpt>
      <trkpt lat="49.29142" lon="-0.29865">
        <ele>3.5</ele>
        <time>2021-02-21T09:15:34Z</time>
      </trkpt>
      <trkpt lat="49.29141" lon="-0.29868">
        <ele>3.6</ele>
        <time>2021-02-21T09:15:35Z</time>
      </trkpt>
      <trkpt lat="49.29141" lon="-0.29872">
        <ele>3.6</ele>
        <time>2021-02-21T09:15:37Z</time>
      </trkpt>
      <trkpt lat="49.29141" lon="-0.29874">
        <ele>3.6</ele>
        <time>2021-02-21T09:15:38Z</time>
      </trkpt>
      <trkpt lat="49.2914" lon="-0.29877">
        <ele>3.6</ele>
        <time>2021-02-21T09:15:39Z</time>
      </trkpt>
      <trkpt lat="49.2914" lon="-0.29881">
        <ele>3.6</ele>
        <time>2021-02-21T09:15:41Z</time>
      </trkpt>
      <trkpt lat="49.2914" lon="-0.29883">
        <ele>3.6</ele>
        <time>2021-02-21T09:15:42Z</time>
      </trkpt>
      <trkpt lat="49.2914" lon="-0.29886">
        <ele>3.6</ele>
        <time>2021-02-21T09:15:43Z</time>
      </trkpt>
      <trkpt lat="49.29139" lon="-0.2989">
        <ele>3.7</ele>
        <time>2021-02-21T09:15:46Z</time>
      </trkpt>
      <trkpt lat="49.29139" lon="-0.29894">
        <ele>3.7</ele>
        <time>2021-02-21T09:15:48Z</time>
      </trkpt>
      <trkpt lat="49.29139" lon="-0.29896">
        <ele>3.7</ele>
        <time>2021-02-21T09:15:49Z</time>
      </trkpt>
      <trkpt lat="49.29139" lon="-0.29899">
        <ele>3.7</ele>
        <time>2021-02-21T09:15:50Z</time>
      </trkpt>
      <trkpt lat="49.29138" lon="-0.29903">
        <ele>3.7</ele>
        <time>2021-02-21T09:15:52Z</time>
      </trkpt>
      <trkpt lat="49.29138" lon="-0.29907">
        <ele>3.8</ele>
        <time>2021-02-21T09:15:53Z</time>
      </trkpt>
      <trkpt lat="49.29138" lon="-0.29909">
        <ele>3.8</ele>
        <time>2021-02-21T09:15:55Z</time>
      </trkpt>
      <trkpt lat="49.29138" lon="-0.29912">
        <ele>3.8</ele>
        <time>2021-02-21T09:15:56Z</time>
      </trkpt>
      <trkpt lat="49.29138" lon="-0.29914">
        <ele>3.8</ele>
        <time>2021-02-21T09:15:57Z</time>
      </trkpt>
      <trkpt lat="49.29138" lon="-0.29917">
        <ele>3.8</ele>
        <time>2021-02-21T09:15:58Z</time>
      </trkpt>
      <trkpt lat="49.29138" lon="-0.29921">
        <ele>3.8</ele>
        <time>2021-02-21T09:16:00Z</time>
      </trkpt>
      <trkpt lat="49.29138" lon="-0.29925">
        <ele>3.8</ele>
        <time>2021-02-21T09:16:01Z</time>
      </trkpt>
      <trkpt lat="49.29139" lon="-0.29927">
        <ele>3.9</ele>
        <time>2021-02-21T09:16:02Z</time>
      </trkpt>
      <trkpt lat="49.29139" lon="-0.29933">
        <ele>3.9</ele>
        <time>2021-02-21T09:16:04Z</time>
      </trkpt>
      <trkpt lat="49.29139" lon="-0.29935">
        <ele>3.9</ele>
        <time>2021-02-21T09:16:05Z</time>
      </trkpt>
      <trkpt lat="49.29139" lon="-0.29938">
        <ele>3.9</ele>
        <time>2021-02-21T09:16:06Z</time>
      </trkpt>
      <trkpt lat="49.29139" lon="-0.29941">
        <ele>3.9</ele>
        <time>2021-02-21T09:16:09Z</time>
      </trkpt>
      <trkpt lat="49.2914" lon="-0.29947">
        <ele>4</ele>
        <time>2021-02-21T09:16:10Z</time>
      </trkpt>
      <trkpt lat="49.2914" lon="-0.29949">
        <ele>4</ele>
        <time>2021-02-21T09:16:11Z</time>
      </trkpt>
      <trkpt lat="49.29141" lon="-0.29955">
        <ele>4</ele>
        <time>2021-02-21T09:16:13Z</time>
      </trkpt>
      <trkpt lat="49.29141" lon="-0.29956">
        <ele>4</ele>
        <time>2021-02-21T09:16:14Z</time>
      </trkpt>
      <trkpt lat="49.29141" lon="-0.29962">
        <ele>4</ele>
        <time>2021-02-21T09:16:16Z</time>
      </trkpt>
      <trkpt lat="49.29141" lon="-0.29963">
        <ele>4</ele>
        <time>2021-02-21T09:16:17Z</time>
      </trkpt>
      <trkpt lat="49.29141" lon="-0.29967">
        <ele>4.1</ele>
        <time>2021-02-21T09:16:18Z</time>
      </trkpt>
      <trkpt lat="49.29142" lon="-0.29972">
        <ele>4.1</ele>
        <time>2021-02-21T09:16:20Z</time>
      </trkpt>
      <trkpt lat="49.29142" lon="-0.29978">
        <ele>4.1</ele>
        <time>2021-02-21T09:16:22Z</time>
      </trkpt>
      <trkpt lat="49.29142" lon="-0.2998">
        <ele>4.1</ele>
        <time>2021-02-21T09:16:23Z</time>
      </trkpt>
      <trkpt lat="49.29142" lon="-0.29985">
        <ele>4.1</ele>
        <time>2021-02-21T09:16:24Z</time>
      </trkpt>
      <trkpt lat="49.29143" lon="-0.29989">
        <ele>4.1</ele>
        <time>2021-02-21T09:16:26Z</time>
      </trkpt>
      <trkpt lat="49.29143" lon="-0.29992">
        <ele>4.1</ele>
        <time>2021-02-21T09:16:27Z</time>
      </trkpt>
      <trkpt lat="49.29143" lon="-0.29997">
        <ele>4.1</ele>
        <time>2021-02-21T09:16:29Z</time>
      </trkpt>
      <trkpt lat="49.29143" lon="-0.30001">
        <ele>4.1</ele>
        <time>2021-02-21T09:16:31Z</time>
      </trkpt>
      <trkpt lat="49.29144" lon="-0.30003">
        <ele>4.1</ele>
        <time>2021-02-21T09:16:32Z</time>
      </trkpt>
      <trkpt lat="49.29144" lon="-0.30008">
        <ele>4.1</ele>
        <time>2021-02-21T09:16:34Z</time>
      </trkpt>
      <trkpt lat="49.29144" lon="-0.3001">
        <ele>4.1</ele>
        <time>2021-02-21T09:16:35Z</time>
      </trkpt>
      <trkpt lat="49.29144" lon="-0.30015">
        <ele>4.1</ele>
        <time>2021-02-21T09:16:37Z</time>
      </trkpt>
      <trkpt lat="49.29144" lon="-0.30018">
        <ele>4.1</ele>
        <time>2021-02-21T09:16:38Z</time>
      </trkpt>
      <trkpt lat="49.29144" lon="-0.30023">
        <ele>4.2</ele>
        <time>2021-02-21T09:16:40Z</time>
      </trkpt>
      <trkpt lat="49.29144" lon="-0.30027">
        <ele>4.2</ele>
        <time>2021-02-21T09:16:41Z</time>
      </trkpt>
      <trkpt lat="49.29145" lon="-0.30031">
        <ele>4.2</ele>
        <time>2021-02-21T09:16:43Z</time>
      </trkpt>
      <trkpt lat="49.29145" lon="-0.30037">
        <ele>4.2</ele>
        <time>2021-02-21T09:16:44Z</time>
      </trkpt>
      <trkpt lat="49.29145" lon="-0.30039">
        <ele>4.2</ele>
        <time>2021-02-21T09:16:45Z</time>
      </trkpt>
      <trkpt lat="49.29146" lon="-0.30045">
        <ele>4.2</ele>
        <time>2021-02-21T09:16:47Z</time>
      </trkpt>
      <trkpt lat="49.29145" lon="-0.30047">
        <ele>4.2</ele>
        <time>2021-02-21T09:16:48Z</time>
      </trkpt>
      <trkpt lat="49.29145" lon="-0.30051">
        <ele>4.2</ele>
        <time>2021-02-21T09:16:50Z</time>
      </trkpt>
      <trkpt lat="49.29145" lon="-0.30055">
        <ele>4.2</ele>
        <time>2021-02-21T09:16:51Z</time>
      </trkpt>
      <trkpt lat="49.29145" lon="-0.30059">
        <ele>4.2</ele>
        <time>2021-02-21T09:16:54Z</time>
      </trkpt>
      <trkpt lat="49.29145" lon="-0.30062">
        <ele>4.2</ele>
        <time>2021-02-21T09:16:55Z</time>
      </trkpt>
      <trkpt lat="49.29145" lon="-0.30066">
        <ele>4.3</ele>
        <time>2021-02-21T09:16:57Z</time>
      </trkpt>
      <trkpt lat="49.29145" lon="-0.30072">
        <ele>4.3</ele>
        <time>2021-02-21T09:16:58Z</time>
      </trkpt>
      <trkpt lat="49.29145" lon="-0.30074">
        <ele>4.3</ele>
        <time>2021-02-21T09:16:59Z</time>
      </trkpt>
      <trkpt lat="49.29144" lon="-0.30081">
        <ele>4.3</ele>
        <time>2021-02-21T09:17:01Z</time>
      </trkpt>
      <trkpt lat="49.29144" lon="-0.30083">
        <ele>4.3</ele>
        <time>2021-02-21T09:17:03Z</time>
      </trkpt>
      <trkpt lat="49.29144" lon="-0.30086">
        <ele>4.3</ele>
        <time>2021-02-21T09:17:04Z</time>
      </trkpt>
      <trkpt lat="49.29144" lon="-0.3009">
        <ele>4.4</ele>
        <time>2021-02-21T09:17:05Z</time>
      </trkpt>
      <trkpt lat="49.29144" lon="-0.30092">
        <ele>4.4</ele>
        <time>2021-02-21T09:17:06Z</time>
      </trkpt>
      <trkpt lat="49.29144" lon="-0.30096">
        <ele>4.4</ele>
        <time>2021-02-21T09:17:08Z</time>
      </trkpt>
      <trkpt lat="49.29144" lon="-0.30098">
        <ele>4.4</ele>
        <time>2021-02-21T09:17:09Z</time>
      </trkpt>
      <trkpt lat="49.29143" lon="-0.30103">
        <ele>4.4</ele>
        <time>2021-02-21T09:17:11Z</time>
      </trkpt>
      <trkpt lat="49.29143" lon="-0.30104">
        <ele>4.4</ele>
        <time>2021-02-21T09:17:12Z</time>
      </trkpt>
      <trkpt lat="49.29142" lon="-0.30108">
        <ele>4.5</ele>
        <time>2021-02-21T09:17:13Z</time>
      </trkpt>
      <trkpt lat="49.29141" lon="-0.30113">
        <ele>4.5</ele>
        <time>2021-02-21T09:17:15Z</time>
      </trkpt>
      <trkpt lat="49.29141" lon="-0.30115">
        <ele>4.5</ele>
        <time>2021-02-21T09:17:17Z</time>
      </trkpt>
      <trkpt lat="49.2914" lon="-0.3012">
        <ele>4.5</ele>
        <time>2021-02-21T09:17:19Z</time>
      </trkpt>
      <trkpt lat="49.29139" lon="-0.30123">
        <ele>4.5</ele>
        <time>2021-02-21T09:17:20Z</time>
      </trkpt>
      <trkpt lat="49.29138" lon="-0.30126">
        <ele>4.5</ele>
        <time>2021-02-21T09:17:22Z</time>
      </trkpt>
      <trkpt lat="49.29138" lon="-0.30128">
        <ele>4.5</ele>
        <time>2021-02-21T09:17:23Z</time>
      </trkpt>
      <trkpt lat="49.29137" lon="-0.30131">
        <ele>4.5</ele>
        <time>2021-02-21T09:17:24Z</time>
      </trkpt>
      <trkpt lat="49.29137" lon="-0.30134">
        <ele>4.5</ele>
        <time>2021-02-21T09:17:25Z</time>
      </trkpt>
      <trkpt lat="49.29135" lon="-0.30137">
        <ele>4.5</ele>
        <time>2021-02-21T09:17:27Z</time>
      </trkpt>
      <trkpt lat="49.29134" lon="-0.3014">
        <ele>4.5</ele>
        <time>2021-02-21T09:17:28Z</time>
      </trkpt>
      <trkpt lat="49.29133" lon="-0.30143">
        <ele>4.5</ele>
        <time>2021-02-21T09:17:30Z</time>
      </trkpt>
      <trkpt lat="49.29131" lon="-0.30148">
        <ele>4.5</ele>
        <time>2021-02-21T09:17:32Z</time>
      </trkpt>
      <trkpt lat="49.2913" lon="-0.3015">
        <ele>4.5</ele>
        <time>2021-02-21T09:17:33Z</time>
      </trkpt>
      <trkpt lat="49.29128" lon="-0.30154">
        <ele>4.4</ele>
        <time>2021-02-21T09:17:35Z</time>
      </trkpt>
      <trkpt lat="49.29125" lon="-0.30159">
        <ele>4.4</ele>
        <time>2021-02-21T09:17:37Z</time>
      </trkpt>
      <trkpt lat="49.29124" lon="-0.30161">
        <ele>4.4</ele>
        <time>2021-02-21T09:17:38Z</time>
      </trkpt>
      <trkpt lat="49.29122" lon="-0.30164">
        <ele>4.4</ele>
        <time>2021-02-21T09:17:41Z</time>
      </trkpt>
      <trkpt lat="49.29121" lon="-0.30166">
        <ele>4.4</ele>
        <time>2021-02-21T09:17:42Z</time>
      </trkpt>
      <trkpt lat="49.29118" lon="-0.30169">
        <ele>4.4</ele>
        <time>2021-02-21T09:17:44Z</time>
      </trkpt>
      <trkpt lat="49.29115" lon="-0.30171">
        <ele>4.4</ele>
        <time>2021-02-21T09:17:45Z</time>
      </trkpt>
      <trkpt lat="49.29112" lon="-0.30174">
        <ele>4.4</ele>
        <time>2021-02-21T09:17:47Z</time>
      </trkpt>
      <trkpt lat="49.2911" lon="-0.30175">
        <ele>4.4</ele>
        <time>2021-02-21T09:17:48Z</time>
      </trkpt>
      <trkpt lat="49.29109" lon="-0.30176">
        <ele>4.4</ele>
        <time>2021-02-21T09:17:49Z</time>
      </trkpt>
      <trkpt lat="49.29106" lon="-0.30178">
        <ele>4.4</ele>
        <time>2021-02-21T09:17:50Z</time>
      </trkpt>
      <trkpt lat="49.29104" lon="-0.30178">
        <ele>4.4</ele>
        <time>2021-02-21T09:17:51Z</time>
      </trkpt>
      <trkpt lat="49.291" lon="-0.30179">
        <ele>4.4</ele>
        <time>2021-02-21T09:17:53Z</time>
      </trkpt>
      <trkpt lat="49.29099" lon="-0.3018">
        <ele>4.4</ele>
        <time>2021-02-21T09:17:54Z</time>
      </trkpt>
      <trkpt lat="49.29096" lon="-0.30181">
        <ele>4.4</ele>
        <time>2021-02-21T09:17:55Z</time>
      </trkpt>
      <trkpt lat="49.29095" lon="-0.30182">
        <ele>4.4</ele>
        <time>2021-02-21T09:17:56Z</time>
      </trkpt>
      <trkpt lat="49.29093" lon="-0.30184">
        <ele>4.4</ele>
        <time>2021-02-21T09:17:58Z</time>
      </trkpt>
      <trkpt lat="49.2909" lon="-0.30186">
        <ele>4.5</ele>
        <time>2021-02-21T09:18:00Z</time>
      </trkpt>
      <trkpt lat="49.29087" lon="-0.30189">
        <ele>4.5</ele>
        <time>2021-02-21T09:18:01Z</time>
      </trkpt>
      <trkpt lat="49.29086" lon="-0.3019">
        <ele>4.5</ele>
        <time>2021-02-21T09:18:03Z</time>
      </trkpt>
      <trkpt lat="49.29083" lon="-0.30193">
        <ele>4.5</ele>
        <time>2021-02-21T09:18:05Z</time>
      </trkpt>
      <trkpt lat="49.29082" lon="-0.30193">
        <ele>4.6</ele>
        <time>2021-02-21T09:18:06Z</time>
      </trkpt>
      <trkpt lat="49.2908" lon="-0.30195">
        <ele>4.6</ele>
        <time>2021-02-21T09:18:07Z</time>
      </trkpt>
      <trkpt lat="49.29079" lon="-0.30197">
        <ele>4.6</ele>
        <time>2021-02-21T09:18:09Z</time>
      </trkpt>
      <trkpt lat="49.29077" lon="-0.30199">
        <ele>4.6</ele>
        <time>2021-02-21T09:18:10Z</time>
      </trkpt>
      <trkpt lat="49.29076" lon="-0.302">
        <ele>4.6</ele>
        <time>2021-02-21T09:18:11Z</time>
      </trkpt>
      <trkpt lat="49.29074" lon="-0.30203">
        <ele>4.7</ele>
        <time>2021-02-21T09:18:13Z</time>
      </trkpt>
      <trkpt lat="49.29073" lon="-0.30204">
        <ele>4.7</ele>
        <time>2021-02-21T09:18:14Z</time>
      </trkpt>
      <trkpt lat="49.2907" lon="-0.30206">
        <ele>4.7</ele>
        <time>2021-02-21T09:18:16Z</time>
      </trkpt>
      <trkpt lat="49.29068" lon="-0.30209">
        <ele>4.7</ele>
        <time>2021-02-21T09:18:17Z</time>
      </trkpt>
      <trkpt lat="49.29065" lon="-0.30211">
        <ele>4.8</ele>
        <time>2021-02-21T09:18:18Z</time>
      </trkpt>
      <trkpt lat="49.29062" lon="-0.30215">
        <ele>4.8</ele>
        <time>2021-02-21T09:18:19Z</time>
      </trkpt>
      <trkpt lat="49.2906" lon="-0.30216">
        <ele>4.9</ele>
        <time>2021-02-21T09:18:20Z</time>
      </trkpt>
      <trkpt lat="49.29056" lon="-0.3022">
        <ele>4.9</ele>
        <time>2021-02-21T09:18:22Z</time>
      </trkpt>
      <trkpt lat="49.29054" lon="-0.30223">
        <ele>5</ele>
        <time>2021-02-21T09:18:23Z</time>
      </trkpt>
      <trkpt lat="49.2905" lon="-0.30226">
        <ele>5</ele>
        <time>2021-02-21T09:18:26Z</time>
      </trkpt>
      <trkpt lat="49.29049" lon="-0.30227">
        <ele>5</ele>
        <time>2021-02-21T09:18:27Z</time>
      </trkpt>
      <trkpt lat="49.29048" lon="-0.30228">
        <ele>5</ele>
        <time>2021-02-21T09:18:28Z</time>
      </trkpt>
      <trkpt lat="49.29045" lon="-0.3023">
        <ele>5.1</ele>
        <time>2021-02-21T09:18:30Z</time>
      </trkpt>
      <trkpt lat="49.29045" lon="-0.30231">
        <ele>5.1</ele>
        <time>2021-02-21T09:18:31Z</time>
      </trkpt>
      <trkpt lat="49.29043" lon="-0.30233">
        <ele>5.1</ele>
        <time>2021-02-21T09:18:32Z</time>
      </trkpt>
      <trkpt lat="49.29041" lon="-0.30234">
        <ele>5.2</ele>
        <time>2021-02-21T09:18:34Z</time>
      </trkpt>
      <trkpt lat="49.29039" lon="-0.30237">
        <ele>5.2</ele>
        <time>2021-02-21T09:18:35Z</time>
      </trkpt>
      <trkpt lat="49.29038" lon="-0.30238">
        <ele>5.2</ele>
        <time>2021-02-21T09:18:36Z</time>
      </trkpt>
      <trkpt lat="49.29036" lon="-0.30241">
        <ele>5.3</ele>
        <time>2021-02-21T09:18:38Z</time>
      </trkpt>
      <trkpt lat="49.29035" lon="-0.30241">
        <ele>5.3</ele>
        <time>2021-02-21T09:18:39Z</time>
      </trkpt>
      <trkpt lat="49.29033" lon="-0.30244">
        <ele>5.4</ele>
        <time>2021-02-21T09:18:41Z</time>
      </trkpt>
      <trkpt lat="49.29031" lon="-0.30246">
        <ele>5.4</ele>
        <time>2021-02-21T09:18:43Z</time>
      </trkpt>
      <trkpt lat="49.2903" lon="-0.30248">
        <ele>5.4</ele>
        <time>2021-02-21T09:18:44Z</time>
      </trkpt>
      <trkpt lat="49.29029" lon="-0.30249">
        <ele>5.5</ele>
        <time>2021-02-21T09:18:45Z</time>
      </trkpt>
      <trkpt lat="49.29027" lon="-0.30252">
        <ele>5.5</ele>
        <time>2021-02-21T09:18:47Z</time>
      </trkpt>
      <trkpt lat="49.29025" lon="-0.30255">
        <ele>5.6</ele>
        <time>2021-02-21T09:18:48Z</time>
      </trkpt>
      <trkpt lat="49.29023" lon="-0.30257">
        <ele>5.6</ele>
        <time>2021-02-21T09:18:51Z</time>
      </trkpt>
      <trkpt lat="49.29022" lon="-0.30259">
        <ele>5.7</ele>
        <time>2021-02-21T09:18:52Z</time>
      </trkpt>
      <trkpt lat="49.2902" lon="-0.30261">
        <ele>5.7</ele>
        <time>2021-02-21T09:18:54Z</time>
      </trkpt>
      <trkpt lat="49.29018" lon="-0.30263">
        <ele>5.7</ele>
        <time>2021-02-21T09:18:55Z</time>
      </trkpt>
      <trkpt lat="49.29017" lon="-0.30266">
        <ele>5.7</ele>
        <time>2021-02-21T09:18:57Z</time>
      </trkpt>
      <trkpt lat="49.29013" lon="-0.30271">
        <ele>5.8</ele>
        <time>2021-02-21T09:18:59Z</time>
      </trkpt>
      <trkpt lat="49.29012" lon="-0.30273">
        <ele>5.8</ele>
        <time>2021-02-21T09:19:00Z</time>
      </trkpt>
      <trkpt lat="49.29011" lon="-0.30275">
        <ele>5.8</ele>
        <time>2021-02-21T09:19:01Z</time>
      </trkpt>
      <trkpt lat="49.29008" lon="-0.30279">
        <ele>5.9</ele>
        <time>2021-02-21T09:19:03Z</time>
      </trkpt>
      <trkpt lat="49.29007" lon="-0.3028">
        <ele>5.9</ele>
        <time>2021-02-21T09:19:04Z</time>
      </trkpt>
      <trkpt lat="49.29005" lon="-0.30284">
        <ele>5.9</ele>
        <time>2021-02-21T09:19:06Z</time>
      </trkpt>
      <trkpt lat="49.29005" lon="-0.30285">
        <ele>6</ele>
        <time>2021-02-21T09:19:07Z</time>
      </trkpt>
      <trkpt lat="49.29003" lon="-0.30289">
        <ele>6</ele>
        <time>2021-02-21T09:19:09Z</time>
      </trkpt>
      <trkpt lat="49.29002" lon="-0.30291">
        <ele>6</ele>
        <time>2021-02-21T09:19:10Z</time>
      </trkpt>
      <trkpt lat="49.29" lon="-0.30294">
        <ele>6.1</ele>
        <time>2021-02-21T09:19:13Z</time>
      </trkpt>
      <trkpt lat="49.28997" lon="-0.30299">
        <ele>6.2</ele>
        <time>2021-02-21T09:19:15Z</time>
      </trkpt>
      <trkpt lat="49.28996" lon="-0.30301">
        <ele>6.2</ele>
        <time>2021-02-21T09:19:16Z</time>
      </trkpt>
      <trkpt lat="49.28995" lon="-0.30303">
        <ele>6.3</ele>
        <time>2021-02-21T09:19:17Z</time>
      </trkpt>
      <trkpt lat="49.28993" lon="-0.30308">
        <ele>6.3</ele>
        <time>2021-02-21T09:19:19Z</time>
      </trkpt>
      <trkpt lat="49.28992" lon="-0.3031">
        <ele>6.4</ele>
        <time>2021-02-21T09:19:20Z</time>
      </trkpt>
      <trkpt lat="49.28991" lon="-0.30312">
        <ele>6.4</ele>
        <time>2021-02-21T09:19:21Z</time>
      </trkpt>
      <trkpt lat="49.28989" lon="-0.30316">
        <ele>6.4</ele>
        <time>2021-02-21T09:19:23Z</time>
      </trkpt>
      <trkpt lat="49.28987" lon="-0.3032">
        <ele>6.5</ele>
        <time>2021-02-21T09:19:24Z</time>
      </trkpt>
      <trkpt lat="49.28987" lon="-0.30321">
        <ele>6.5</ele>
        <time>2021-02-21T09:19:25Z</time>
      </trkpt>
      <trkpt lat="49.28985" lon="-0.30325">
        <ele>6.5</ele>
        <time>2021-02-21T09:19:27Z</time>
      </trkpt>
      <trkpt lat="49.28984" lon="-0.30326">
        <ele>6.5</ele>
        <time>2021-02-21T09:19:28Z</time>
      </trkpt>
      <trkpt lat="49.28982" lon="-0.30329">
        <ele>6.6</ele>
        <time>2021-02-21T09:19:29Z</time>
      </trkpt>
      <trkpt lat="49.28982" lon="-0.30331">
        <ele>6.6</ele>
        <time>2021-02-21T09:19:30Z</time>
      </trkpt>
      <trkpt lat="49.28979" lon="-0.30335">
        <ele>6.6</ele>
        <time>2021-02-21T09:19:32Z</time>
      </trkpt>
      <trkpt lat="49.28978" lon="-0.30337">
        <ele>6.7</ele>
        <time>2021-02-21T09:19:33Z</time>
      </trkpt>
      <trkpt lat="49.28976" lon="-0.30339">
        <ele>6.7</ele>
        <time>2021-02-21T09:19:34Z</time>
      </trkpt>
      <trkpt lat="49.28974" lon="-0.30342">
        <ele>6.7</ele>
        <time>2021-02-21T09:19:37Z</time>
      </trkpt>
      <trkpt lat="49.28973" lon="-0.30344">
        <ele>6.7</ele>
        <time>2021-02-21T09:19:38Z</time>
      </trkpt>
      <trkpt lat="49.28971" lon="-0.30347">
        <ele>6.8</ele>
        <time>2021-02-21T09:19:40Z</time>
      </trkpt>
      <trkpt lat="49.28969" lon="-0.30351">
        <ele>6.8</ele>
        <time>2021-02-21T09:19:42Z</time>
      </trkpt>
      <trkpt lat="49.28967" lon="-0.30354">
        <ele>6.8</ele>
        <time>2021-02-21T09:19:43Z</time>
      </trkpt>
      <trkpt lat="49.28964" lon="-0.30357">
        <ele>6.8</ele>
        <time>2021-02-21T09:19:45Z</time>
      </trkpt>
      <trkpt lat="49.28962" lon="-0.3036">
        <ele>6.8</ele>
        <time>2021-02-21T09:19:46Z</time>
      </trkpt>
      <trkpt lat="49.28959" lon="-0.30364">
        <ele>6.9</ele>
        <time>2021-02-21T09:19:47Z</time>
      </trkpt>
      <trkpt lat="49.28957" lon="-0.30367">
        <ele>6.9</ele>
        <time>2021-02-21T09:19:49Z</time>
      </trkpt>
      <trkpt lat="49.28955" lon="-0.3037">
        <ele>6.9</ele>
        <time>2021-02-21T09:19:50Z</time>
      </trkpt>
      <trkpt lat="49.28953" lon="-0.30373">
        <ele>6.9</ele>
        <time>2021-02-21T09:19:52Z</time>
      </trkpt>
      <trkpt lat="49.28951" lon="-0.30376">
        <ele>6.9</ele>
        <time>2021-02-21T09:19:53Z</time>
      </trkpt>
      <trkpt lat="49.28951" lon="-0.30377">
        <ele>6.9</ele>
        <time>2021-02-21T09:19:54Z</time>
      </trkpt>
      <trkpt lat="49.28947" lon="-0.30383">
        <ele>7</ele>
        <time>2021-02-21T09:19:56Z</time>
      </trkpt>
      <trkpt lat="49.28946" lon="-0.30385">
        <ele>7</ele>
        <time>2021-02-21T09:19:57Z</time>
      </trkpt>
      <trkpt lat="49.28945" lon="-0.30387">
        <ele>7</ele>
        <time>2021-02-21T09:19:59Z</time>
      </trkpt>
      <trkpt lat="49.28942" lon="-0.30391">
        <ele>7.1</ele>
        <time>2021-02-21T09:20:01Z</time>
      </trkpt>
      <trkpt lat="49.28941" lon="-0.30393">
        <ele>7.1</ele>
        <time>2021-02-21T09:20:02Z</time>
      </trkpt>
      <trkpt lat="49.28939" lon="-0.30396">
        <ele>7.1</ele>
        <time>2021-02-21T09:20:03Z</time>
      </trkpt>
      <trkpt lat="49.28938" lon="-0.30397">
        <ele>7.1</ele>
        <time>2021-02-21T09:20:04Z</time>
      </trkpt>
      <trkpt lat="49.28936" lon="-0.30401">
        <ele>7.2</ele>
        <time>2021-02-21T09:20:06Z</time>
      </trkpt>
      <trkpt lat="49.28935" lon="-0.30402">
        <ele>7.2</ele>
        <time>2021-02-21T09:20:07Z</time>
      </trkpt>
      <trkpt lat="49.28934" lon="-0.30404">
        <ele>7.2</ele>
        <time>2021-02-21T09:20:08Z</time>
      </trkpt>
      <trkpt lat="49.28932" lon="-0.30406">
        <ele>7.2</ele>
        <time>2021-02-21T09:20:10Z</time>
      </trkpt>
      <trkpt lat="49.28931" lon="-0.30409">
        <ele>7.2</ele>
        <time>2021-02-21T09:20:11Z</time>
      </trkpt>
      <trkpt lat="49.28929" lon="-0.30412">
        <ele>7.3</ele>
        <time>2021-02-21T09:20:13Z</time>
      </trkpt>
      <trkpt lat="49.28926" lon="-0.30415">
        <ele>7.3</ele>
        <time>2021-02-21T09:20:14Z</time>
      </trkpt>
      <trkpt lat="49.28925" lon="-0.30417">
        <ele>7.3</ele>
        <time>2021-02-21T09:20:15Z</time>
      </trkpt>
      <trkpt lat="49.28923" lon="-0.30421">
        <ele>7.4</ele>
        <time>2021-02-21T09:20:17Z</time>
      </trkpt>
      <trkpt lat="49.28922" lon="-0.30423">
        <ele>7.4</ele>
        <time>2021-02-21T09:20:18Z</time>
      </trkpt>
      <trkpt lat="49.2892" lon="-0.30425">
        <ele>7.4</ele>
        <time>2021-02-21T09:20:19Z</time>
      </trkpt>
      <trkpt lat="49.28918" lon="-0.30427">
        <ele>7.5</ele>
        <time>2021-02-21T09:20:22Z</time>
      </trkpt>
      <trkpt lat="49.28915" lon="-0.30432">
        <ele>7.5</ele>
        <time>2021-02-21T09:20:24Z</time>
      </trkpt>
      <trkpt lat="49.28915" lon="-0.30433">
        <ele>7.6</ele>
        <time>2021-02-21T09:20:25Z</time>
      </trkpt>
      <trkpt lat="49.28914" lon="-0.30435">
        <ele>7.6</ele>
        <time>2021-02-21T09:20:26Z</time>
      </trkpt>
      <trkpt lat="49.28912" lon="-0.30439">
        <ele>7.6</ele>
        <time>2021-02-21T09:20:28Z</time>
      </trkpt>
      <trkpt lat="49.28911" lon="-0.3044">
        <ele>7.7</ele>
        <time>2021-02-21T09:20:29Z</time>
      </trkpt>
      <trkpt lat="49.2891" lon="-0.30443">
        <ele>7.7</ele>
        <time>2021-02-21T09:20:30Z</time>
      </trkpt>
      <trkpt lat="49.28908" lon="-0.30447">
        <ele>7.8</ele>
        <time>2021-02-21T09:20:32Z</time>
      </trkpt>
      <trkpt lat="49.28907" lon="-0.30449">
        <ele>7.8</ele>
        <time>2021-02-21T09:20:33Z</time>
      </trkpt>
      <trkpt lat="49.28905" lon="-0.30453">
        <ele>7.8</ele>
        <time>2021-02-21T09:20:35Z</time>
      </trkpt>
      <trkpt lat="49.28903" lon="-0.30457">
        <ele>7.9</ele>
        <time>2021-02-21T09:20:36Z</time>
      </trkpt>
      <trkpt lat="49.28903" lon="-0.30458">
        <ele>7.9</ele>
        <time>2021-02-21T09:20:37Z</time>
      </trkpt>
      <trkpt lat="49.289" lon="-0.30462">
        <ele>7.9</ele>
        <time>2021-02-21T09:20:39Z</time>
      </trkpt>
      <trkpt lat="49.289" lon="-0.30464">
        <ele>7.9</ele>
        <time>2021-02-21T09:20:40Z</time>
      </trkpt>
      <trkpt lat="49.28898" lon="-0.30468">
        <ele>8</ele>
        <time>2021-02-21T09:20:41Z</time>
      </trkpt>
      <trkpt lat="49.28897" lon="-0.30469">
        <ele>8</ele>
        <time>2021-02-21T09:20:42Z</time>
      </trkpt>
      <trkpt lat="49.28896" lon="-0.30471">
        <ele>8</ele>
        <time>2021-02-21T09:20:43Z</time>
      </trkpt>
      <trkpt lat="49.28894" lon="-0.30475">
        <ele>8</ele>
        <time>2021-02-21T09:20:46Z</time>
      </trkpt>
      <trkpt lat="49.28893" lon="-0.30477">
        <ele>8</ele>
        <time>2021-02-21T09:20:47Z</time>
      </trkpt>
      <trkpt lat="49.28892" lon="-0.30481">
        <ele>8</ele>
        <time>2021-02-21T09:20:49Z</time>
      </trkpt>
      <trkpt lat="49.28891" lon="-0.30483">
        <ele>8.1</ele>
        <time>2021-02-21T09:20:50Z</time>
      </trkpt>
      <trkpt lat="49.28889" lon="-0.30485">
        <ele>8.1</ele>
        <time>2021-02-21T09:20:52Z</time>
      </trkpt>
      <trkpt lat="49.28887" lon="-0.3049">
        <ele>8.1</ele>
        <time>2021-02-21T09:20:53Z</time>
      </trkpt>
      <trkpt lat="49.28886" lon="-0.30491">
        <ele>8.1</ele>
        <time>2021-02-21T09:20:54Z</time>
      </trkpt>
      <trkpt lat="49.28884" lon="-0.30495">
        <ele>8.1</ele>
        <time>2021-02-21T09:20:55Z</time>
      </trkpt>
      <trkpt lat="49.28884" lon="-0.30496">
        <ele>8.1</ele>
        <time>2021-02-21T09:20:56Z</time>
      </trkpt>
      <trkpt lat="49.28882" lon="-0.30501">
        <ele>8.1</ele>
        <time>2021-02-21T09:20:58Z</time>
      </trkpt>
      <trkpt lat="49.28881" lon="-0.30502">
        <ele>8.1</ele>
        <time>2021-02-21T09:20:59Z</time>
      </trkpt>
      <trkpt lat="49.28879" lon="-0.30506">
        <ele>8.1</ele>
        <time>2021-02-21T09:21:01Z</time>
      </trkpt>
      <trkpt lat="49.28878" lon="-0.30508">
        <ele>8.1</ele>
        <time>2021-02-21T09:21:02Z</time>
      </trkpt>
      <trkpt lat="49.28876" lon="-0.30512">
        <ele>8.1</ele>
        <time>2021-02-21T09:21:04Z</time>
      </trkpt>
      <trkpt lat="49.28875" lon="-0.30514">
        <ele>8.1</ele>
        <time>2021-02-21T09:21:05Z</time>
      </trkpt>
      <trkpt lat="49.28874" lon="-0.30516">
        <ele>8.1</ele>
        <time>2021-02-21T09:21:06Z</time>
      </trkpt>
      <trkpt lat="49.28872" lon="-0.30519">
        <ele>8.2</ele>
        <time>2021-02-21T09:21:08Z</time>
      </trkpt>
      <trkpt lat="49.2887" lon="-0.30524">
        <ele>8.2</ele>
        <time>2021-02-21T09:21:10Z</time>
      </trkpt>
      <trkpt lat="49.28869" lon="-0.30525">
        <ele>8.2</ele>
        <time>2021-02-21T09:21:11Z</time>
      </trkpt>
      <trkpt lat="49.28869" lon="-0.30527">
        <ele>8.2</ele>
        <time>2021-02-21T09:21:13Z</time>
      </trkpt>
      <trkpt lat="49.28869" lon="-0.3053">
        <ele>8.2</ele>
        <time>2021-02-21T09:21:14Z</time>
      </trkpt>
      <trkpt lat="49.2887" lon="-0.30534">
        <ele>8.2</ele>
        <time>2021-02-21T09:21:16Z</time>
      </trkpt>
      <trkpt lat="49.28871" lon="-0.30539">
        <ele>8.1</ele>
        <time>2021-02-21T09:21:18Z</time>
      </trkpt>
      <trkpt lat="49.28872" lon="-0.30543">
        <ele>8.1</ele>
        <time>2021-02-21T09:21:20Z</time>
      </trkpt>
      <trkpt lat="49.28873" lon="-0.30548">
        <ele>8.1</ele>
        <time>2021-02-21T09:21:22Z</time>
      </trkpt>
      <trkpt lat="49.28874" lon="-0.30552">
        <ele>8.1</ele>
        <time>2021-02-21T09:21:24Z</time>
      </trkpt>
      <trkpt lat="49.28876" lon="-0.30555">
        <ele>8</ele>
        <time>2021-02-21T09:21:25Z</time>
      </trkpt>
      <trkpt lat="49.28877" lon="-0.30558">
        <ele>8</ele>
        <time>2021-02-21T09:21:27Z</time>
      </trkpt>
      <trkpt lat="49.28881" lon="-0.30562">
        <ele>8</ele>
        <time>2021-02-21T09:21:29Z</time>
      </trkpt>
      <trkpt lat="49.28882" lon="-0.30563">
        <ele>8</ele>
        <time>2021-02-21T09:21:31Z</time>
      </trkpt>
      <trkpt lat="49.28883" lon="-0.30564">
        <ele>8</ele>
        <time>2021-02-21T09:21:32Z</time>
      </trkpt>
      <trkpt lat="49.28886" lon="-0.30568">
        <ele>7.9</ele>
        <time>2021-02-21T09:21:34Z</time>
      </trkpt>
      <trkpt lat="49.2889" lon="-0.30571">
        <ele>7.9</ele>
        <time>2021-02-21T09:21:36Z</time>
      </trkpt>
      <trkpt lat="49.28893" lon="-0.30575">
        <ele>7.8</ele>
        <time>2021-02-21T09:21:37Z</time>
      </trkpt>
      <trkpt lat="49.28895" lon="-0.30578">
        <ele>7.8</ele>
        <time>2021-02-21T09:21:38Z</time>
      </trkpt>
      <trkpt lat="49.28899" lon="-0.30583">
        <ele>7.8</ele>
        <time>2021-02-21T09:21:40Z</time>
      </trkpt>
      <trkpt lat="49.28902" lon="-0.30587">
        <ele>7.8</ele>
        <time>2021-02-21T09:21:42Z</time>
      </trkpt>
      <trkpt lat="49.28903" lon="-0.30589">
        <ele>7.8</ele>
        <time>2021-02-21T09:21:43Z</time>
      </trkpt>
      <trkpt lat="49.28907" lon="-0.30593">
        <ele>7.8</ele>
        <time>2021-02-21T09:21:45Z</time>
      </trkpt>
      <trkpt lat="49.28909" lon="-0.30597">
        <ele>7.8</ele>
        <time>2021-02-21T09:21:46Z</time>
      </trkpt>
      <trkpt lat="49.2891" lon="-0.30598">
        <ele>7.8</ele>
        <time>2021-02-21T09:21:47Z</time>
      </trkpt>
      <trkpt lat="49.28912" lon="-0.30602">
        <ele>7.7</ele>
        <time>2021-02-21T09:21:49Z</time>
      </trkpt>
      <trkpt lat="49.28913" lon="-0.30603">
        <ele>7.7</ele>
        <time>2021-02-21T09:21:50Z</time>
      </trkpt>
      <trkpt lat="49.28915" lon="-0.30606">
        <ele>7.7</ele>
        <time>2021-02-21T09:21:52Z</time>
      </trkpt>
      <trkpt lat="49.28916" lon="-0.3061">
        <ele>7.7</ele>
        <time>2021-02-21T09:21:54Z</time>
      </trkpt>
      <trkpt lat="49.28917" lon="-0.30613">
        <ele>7.7</ele>
        <time>2021-02-21T09:21:56Z</time>
      </trkpt>
      <trkpt lat="49.28918" lon="-0.30617">
        <ele>7.6</ele>
        <time>2021-02-21T09:21:58Z</time>
      </trkpt>
      <trkpt lat="49.2892" lon="-0.30621">
        <ele>7.6</ele>
        <time>2021-02-21T09:21:59Z</time>
      </trkpt>
      <trkpt lat="49.2892" lon="-0.30622">
        <ele>7.6</ele>
        <time>2021-02-21T09:22:00Z</time>
      </trkpt>
      <trkpt lat="49.28921" lon="-0.30624">
        <ele>7.6</ele>
        <time>2021-02-21T09:22:01Z</time>
      </trkpt>
      <trkpt lat="49.28922" lon="-0.30627">
        <ele>7.6</ele>
        <time>2021-02-21T09:22:03Z</time>
      </trkpt>
      <trkpt lat="49.28923" lon="-0.30628">
        <ele>7.6</ele>
        <time>2021-02-21T09:22:04Z</time>
      </trkpt>
      <trkpt lat="49.28924" lon="-0.30632">
        <ele>7.6</ele>
        <time>2021-02-21T09:22:06Z</time>
      </trkpt>
      <trkpt lat="49.28925" lon="-0.30633">
        <ele>7.6</ele>
        <time>2021-02-21T09:22:07Z</time>
      </trkpt>
      <trkpt lat="49.28926" lon="-0.30635">
        <ele>7.5</ele>
        <time>2021-02-21T09:22:08Z</time>
      </trkpt>
      <trkpt lat="49.28927" lon="-0.30637">
        <ele>7.5</ele>
        <time>2021-02-21T09:22:09Z</time>
      </trkpt>
      <trkpt lat="49.28927" lon="-0.30639">
        <ele>7.5</ele>
        <time>2021-02-21T09:22:10Z</time>
      </trkpt>
      <trkpt lat="49.28929" lon="-0.30642">
        <ele>7.5</ele>
        <time>2021-02-21T09:22:11Z</time>
      </trkpt>
      <trkpt lat="49.28931" lon="-0.30645">
        <ele>7.5</ele>
        <time>2021-02-21T09:22:13Z</time>
      </trkpt>
      <trkpt lat="49.28932" lon="-0.30648">
        <ele>7.5</ele>
        <time>2021-02-21T09:22:14Z</time>
      </trkpt>
      <trkpt lat="49.28933" lon="-0.30651">
        <ele>7.4</ele>
        <time>2021-02-21T09:22:17Z</time>
      </trkpt>
      <trkpt lat="49.28935" lon="-0.30657">
        <ele>7.4</ele>
        <time>2021-02-21T09:22:19Z</time>
      </trkpt>
      <trkpt lat="49.28936" lon="-0.30659">
        <ele>7.3</ele>
        <time>2021-02-21T09:22:21Z</time>
      </trkpt>
      <trkpt lat="49.28936" lon="-0.30661">
        <ele>7.3</ele>
        <time>2021-02-21T09:22:22Z</time>
      </trkpt>
      <trkpt lat="49.28938" lon="-0.30665">
        <ele>7.3</ele>
        <time>2021-02-21T09:22:24Z</time>
      </trkpt>
      <trkpt lat="49.28939" lon="-0.30667">
        <ele>7.3</ele>
        <time>2021-02-21T09:22:25Z</time>
      </trkpt>
      <trkpt lat="49.2894" lon="-0.30671">
        <ele>7.2</ele>
        <time>2021-02-21T09:22:27Z</time>
      </trkpt>
      <trkpt lat="49.28942" lon="-0.30676">
        <ele>7.2</ele>
        <time>2021-02-21T09:22:29Z</time>
      </trkpt>
      <trkpt lat="49.28943" lon="-0.30678">
        <ele>7.2</ele>
        <time>2021-02-21T09:22:30Z</time>
      </trkpt>
      <trkpt lat="49.28944" lon="-0.30681">
        <ele>7.1</ele>
        <time>2021-02-21T09:22:31Z</time>
      </trkpt>
      <trkpt lat="49.28945" lon="-0.30685">
        <ele>7.1</ele>
        <time>2021-02-21T09:22:33Z</time>
      </trkpt>
      <trkpt lat="49.28947" lon="-0.30689">
        <ele>7.1</ele>
        <time>2021-02-21T09:22:35Z</time>
      </trkpt>
      <trkpt lat="49.28947" lon="-0.30691">
        <ele>7.1</ele>
        <time>2021-02-21T09:22:36Z</time>
      </trkpt>
      <trkpt lat="49.28948" lon="-0.30693">
        <ele>7.1</ele>
        <time>2021-02-21T09:22:37Z</time>
      </trkpt>
      <trkpt lat="49.28949" lon="-0.30696">
        <ele>7</ele>
        <time>2021-02-21T09:22:38Z</time>
      </trkpt>
      <trkpt lat="49.2895" lon="-0.30699">
        <ele>7</ele>
        <time>2021-02-21T09:22:41Z</time>
      </trkpt>
      <trkpt lat="49.28952" lon="-0.30703">
        <ele>7</ele>
        <time>2021-02-21T09:22:42Z</time>
      </trkpt>
      <trkpt lat="49.28953" lon="-0.30704">
        <ele>7</ele>
        <time>2021-02-21T09:22:43Z</time>
      </trkpt>
      <trkpt lat="49.28954" lon="-0.30707">
        <ele>7</ele>
        <time>2021-02-21T09:22:45Z</time>
      </trkpt>
      <trkpt lat="49.28955" lon="-0.30709">
        <ele>7</ele>
        <time>2021-02-21T09:22:46Z</time>
      </trkpt>
      <trkpt lat="49.28956" lon="-0.30712">
        <ele>6.9</ele>
        <time>2021-02-21T09:22:47Z</time>
      </trkpt>
      <trkpt lat="49.28957" lon="-0.30714">
        <ele>6.9</ele>
        <time>2021-02-21T09:22:48Z</time>
      </trkpt>
      <trkpt lat="49.28958" lon="-0.30716">
        <ele>6.9</ele>
        <time>2021-02-21T09:22:50Z</time>
      </trkpt>
      <trkpt lat="49.28959" lon="-0.30718">
        <ele>6.9</ele>
        <time>2021-02-21T09:22:51Z</time>
      </trkpt>
      <trkpt lat="49.2896" lon="-0.3072">
        <ele>6.8</ele>
        <time>2021-02-21T09:22:52Z</time>
      </trkpt>
      <trkpt lat="49.28961" lon="-0.30722">
        <ele>6.8</ele>
        <time>2021-02-21T09:22:53Z</time>
      </trkpt>
      <trkpt lat="49.28963" lon="-0.30726">
        <ele>6.8</ele>
        <time>2021-02-21T09:22:55Z</time>
      </trkpt>
      <trkpt lat="49.28965" lon="-0.30729">
        <ele>6.7</ele>
        <time>2021-02-21T09:22:57Z</time>
      </trkpt>
      <trkpt lat="49.28966" lon="-0.30731">
        <ele>6.7</ele>
        <time>2021-02-21T09:22:58Z</time>
      </trkpt>
      <trkpt lat="49.28968" lon="-0.30735">
        <ele>6.6</ele>
        <time>2021-02-21T09:23:00Z</time>
      </trkpt>
      <trkpt lat="49.28969" lon="-0.30737">
        <ele>6.6</ele>
        <time>2021-02-21T09:23:01Z</time>
      </trkpt>
      <trkpt lat="49.2897" lon="-0.30739">
        <ele>6.6</ele>
        <time>2021-02-21T09:23:03Z</time>
      </trkpt>
      <trkpt lat="49.28971" lon="-0.30741">
        <ele>6.6</ele>
        <time>2021-02-21T09:23:04Z</time>
      </trkpt>
      <trkpt lat="49.28972" lon="-0.30743">
        <ele>6.5</ele>
        <time>2021-02-21T09:23:05Z</time>
      </trkpt>
      <trkpt lat="49.28973" lon="-0.30746">
        <ele>6.5</ele>
        <time>2021-02-21T09:23:07Z</time>
      </trkpt>
      <trkpt lat="49.28974" lon="-0.30748">
        <ele>6.5</ele>
        <time>2021-02-21T09:23:08Z</time>
      </trkpt>
      <trkpt lat="49.28975" lon="-0.30751">
        <ele>6.4</ele>
        <time>2021-02-21T09:23:09Z</time>
      </trkpt>
      <trkpt lat="49.28976" lon="-0.30753">
        <ele>6.4</ele>
        <time>2021-02-21T09:23:10Z</time>
      </trkpt>
      <trkpt lat="49.28978" lon="-0.30755">
        <ele>6.3</ele>
        <time>2021-02-21T09:23:12Z</time>
      </trkpt>
      <trkpt lat="49.2898" lon="-0.30756">
        <ele>6.3</ele>
        <time>2021-02-21T09:23:14Z</time>
      </trkpt>
      <trkpt lat="49.28982" lon="-0.30757">
        <ele>6.3</ele>
        <time>2021-02-21T09:23:15Z</time>
      </trkpt>
      <trkpt lat="49.28982" lon="-0.30758">
        <ele>6.2</ele>
        <time>2021-02-21T09:23:16Z</time>
      </trkpt>
      <trkpt lat="49.28983" lon="-0.30758">
        <ele>6.2</ele>
        <time>2021-02-21T09:23:17Z</time>
      </trkpt>
      <trkpt lat="49.28985" lon="-0.30761">
        <ele>6.2</ele>
        <time>2021-02-21T09:23:19Z</time>
      </trkpt>
      <trkpt lat="49.28986" lon="-0.30764">
        <ele>6.1</ele>
        <time>2021-02-21T09:23:21Z</time>
      </trkpt>
      <trkpt lat="49.28987" lon="-0.30766">
        <ele>6.1</ele>
        <time>2021-02-21T09:23:22Z</time>
      </trkpt>
      <trkpt lat="49.28987" lon="-0.30768">
        <ele>6.1</ele>
        <time>2021-02-21T09:23:23Z</time>
      </trkpt>
      <trkpt lat="49.28988" lon="-0.3077">
        <ele>6.1</ele>
        <time>2021-02-21T09:23:24Z</time>
      </trkpt>
      <trkpt lat="49.28989" lon="-0.30773">
        <ele>6</ele>
        <time>2021-02-21T09:23:27Z</time>
      </trkpt>
      <trkpt lat="49.2899" lon="-0.30775">
        <ele>6</ele>
        <time>2021-02-21T09:23:28Z</time>
      </trkpt>
      <trkpt lat="49.28991" lon="-0.30777">
        <ele>6</ele>
        <time>2021-02-21T09:23:29Z</time>
      </trkpt>
      <trkpt lat="49.28991" lon="-0.3078">
        <ele>6</ele>
        <time>2021-02-21T09:23:30Z</time>
      </trkpt>
      <trkpt lat="49.28993" lon="-0.30784">
        <ele>5.9</ele>
        <time>2021-02-21T09:23:32Z</time>
      </trkpt>
      <trkpt lat="49.28994" lon="-0.30786">
        <ele>5.9</ele>
        <time>2021-02-21T09:23:33Z</time>
      </trkpt>
      <trkpt lat="49.28997" lon="-0.30792">
        <ele>5.9</ele>
        <time>2021-02-21T09:23:35Z</time>
      </trkpt>
      <trkpt lat="49.29" lon="-0.30796">
        <ele>5.8</ele>
        <time>2021-02-21T09:23:36Z</time>
      </trkpt>
      <trkpt lat="49.29003" lon="-0.30801">
        <ele>5.8</ele>
        <time>2021-02-21T09:23:38Z</time>
      </trkpt>
      <trkpt lat="49.29005" lon="-0.30805">
        <ele>5.7</ele>
        <time>2021-02-21T09:23:39Z</time>
      </trkpt>
      <trkpt lat="49.29007" lon="-0.30808">
        <ele>5.7</ele>
        <time>2021-02-21T09:23:40Z</time>
      </trkpt>
      <trkpt lat="49.2901" lon="-0.30813">
        <ele>5.7</ele>
        <time>2021-02-21T09:23:41Z</time>
      </trkpt>
      <trkpt lat="49.29011" lon="-0.30815">
        <ele>5.7</ele>
        <time>2021-02-21T09:23:42Z</time>
      </trkpt>
      <trkpt lat="49.29013" lon="-0.3082">
        <ele>5.6</ele>
        <time>2021-02-21T09:23:44Z</time>
      </trkpt>
      <trkpt lat="49.29015" lon="-0.30823">
        <ele>5.6</ele>
        <time>2021-02-21T09:23:45Z</time>
      </trkpt>
      <trkpt lat="49.29017" lon="-0.30828">
        <ele>5.6</ele>
        <time>2021-02-21T09:23:47Z</time>
      </trkpt>
      <trkpt lat="49.29018" lon="-0.30832">
        <ele>5.6</ele>
        <time>2021-02-21T09:23:48Z</time>
      </trkpt>
      <trkpt lat="49.2902" lon="-0.30836">
        <ele>5.6</ele>
        <time>2021-02-21T09:23:51Z</time>
      </trkpt>
      <trkpt lat="49.29022" lon="-0.3084">
        <ele>5.6</ele>
        <time>2021-02-21T09:23:52Z</time>
      </trkpt>
      <trkpt lat="49.29023" lon="-0.30842">
        <ele>5.6</ele>
        <time>2021-02-21T09:23:53Z</time>
      </trkpt>
      <trkpt lat="49.29025" lon="-0.30847">
        <ele>5.6</ele>
        <time>2021-02-21T09:23:55Z</time>
      </trkpt>
      <trkpt lat="49.29026" lon="-0.30848">
        <ele>5.6</ele>
        <time>2021-02-21T09:23:56Z</time>
      </trkpt>
      <trkpt lat="49.29027" lon="-0.30851">
        <ele>5.6</ele>
        <time>2021-02-21T09:23:57Z</time>
      </trkpt>
      <trkpt lat="49.29029" lon="-0.30855">
        <ele>5.6</ele>
        <time>2021-02-21T09:23:59Z</time>
      </trkpt>
      <trkpt lat="49.29031" lon="-0.30859">
        <ele>5.6</ele>
        <time>2021-02-21T09:24:00Z</time>
      </trkpt>
      <trkpt lat="49.29031" lon="-0.3086">
        <ele>5.6</ele>
        <time>2021-02-21T09:24:01Z</time>
      </trkpt>
      <trkpt lat="49.29033" lon="-0.30864">
        <ele>5.6</ele>
        <time>2021-02-21T09:24:03Z</time>
      </trkpt>
      <trkpt lat="49.29034" lon="-0.30865">
        <ele>5.6</ele>
        <time>2021-02-21T09:24:04Z</time>
      </trkpt>
      <trkpt lat="49.29035" lon="-0.30867">
        <ele>5.6</ele>
        <time>2021-02-21T09:24:05Z</time>
      </trkpt>
      <trkpt lat="49.29036" lon="-0.3087">
        <ele>5.6</ele>
        <time>2021-02-21T09:24:07Z</time>
      </trkpt>
      <trkpt lat="49.29038" lon="-0.30874">
        <ele>5.6</ele>
        <time>2021-02-21T09:24:08Z</time>
      </trkpt>
      <trkpt lat="49.29039" lon="-0.30876">
        <ele>5.6</ele>
        <time>2021-02-21T09:24:10Z</time>
      </trkpt>
      <trkpt lat="49.2904" lon="-0.30877">
        <ele>5.6</ele>
        <time>2021-02-21T09:24:11Z</time>
      </trkpt>
      <trkpt lat="49.29041" lon="-0.3088">
        <ele>5.5</ele>
        <time>2021-02-21T09:24:13Z</time>
      </trkpt>
      <trkpt lat="49.29042" lon="-0.30882">
        <ele>5.5</ele>
        <time>2021-02-21T09:24:14Z</time>
      </trkpt>
      <trkpt lat="49.29043" lon="-0.30884">
        <ele>5.5</ele>
        <time>2021-02-21T09:24:16Z</time>
      </trkpt>
      <trkpt lat="49.29044" lon="-0.30887">
        <ele>5.5</ele>
        <time>2021-02-21T09:24:17Z</time>
      </trkpt>
      <trkpt lat="49.29045" lon="-0.3089">
        <ele>5.5</ele>
        <time>2021-02-21T09:24:19Z</time>
      </trkpt>
      <trkpt lat="49.29046" lon="-0.30892">
        <ele>5.5</ele>
        <time>2021-02-21T09:24:20Z</time>
      </trkpt>
      <trkpt lat="49.29047" lon="-0.30895">
        <ele>5.5</ele>
        <time>2021-02-21T09:24:21Z</time>
      </trkpt>
      <trkpt lat="49.29049" lon="-0.30899">
        <ele>5.6</ele>
        <time>2021-02-21T09:24:23Z</time>
      </trkpt>
      <trkpt lat="49.29049" lon="-0.30901">
        <ele>5.6</ele>
        <time>2021-02-21T09:24:24Z</time>
      </trkpt>
      <trkpt lat="49.2905" lon="-0.30904">
        <ele>5.6</ele>
        <time>2021-02-21T09:24:25Z</time>
      </trkpt>
      <trkpt lat="49.29051" lon="-0.30909">
        <ele>5.6</ele>
        <time>2021-02-21T09:24:27Z</time>
      </trkpt>
      <trkpt lat="49.29052" lon="-0.30913">
        <ele>5.6</ele>
        <time>2021-02-21T09:24:28Z</time>
      </trkpt>
      <trkpt lat="49.29054" lon="-0.30918">
        <ele>5.6</ele>
        <time>2021-02-21T09:24:30Z</time>
      </trkpt>
      <trkpt lat="49.29054" lon="-0.30924">
        <ele>5.7</ele>
        <time>2021-02-21T09:24:31Z</time>
      </trkpt>
      <trkpt lat="49.29055" lon="-0.3093">
        <ele>5.7</ele>
        <time>2021-02-21T09:24:33Z</time>
      </trkpt>
      <trkpt lat="49.29055" lon="-0.30932">
        <ele>5.7</ele>
        <time>2021-02-21T09:24:34Z</time>
      </trkpt>
      <trkpt lat="49.29054" lon="-0.30934">
        <ele>5.7</ele>
        <time>2021-02-21T09:24:36Z</time>
      </trkpt>
      <trkpt lat="49.29054" lon="-0.30941">
        <ele>5.8</ele>
        <time>2021-02-21T09:24:38Z</time>
      </trkpt>
      <trkpt lat="49.29053" lon="-0.30944">
        <ele>5.8</ele>
        <time>2021-02-21T09:24:40Z</time>
      </trkpt>
      <trkpt lat="49.29052" lon="-0.30947">
        <ele>5.8</ele>
        <time>2021-02-21T09:24:41Z</time>
      </trkpt>
      <trkpt lat="49.29052" lon="-0.3095">
        <ele>5.8</ele>
        <time>2021-02-21T09:24:42Z</time>
      </trkpt>
      <trkpt lat="49.2905" lon="-0.30956">
        <ele>5.8</ele>
        <time>2021-02-21T09:24:44Z</time>
      </trkpt>
      <trkpt lat="49.2905" lon="-0.30958">
        <ele>5.8</ele>
        <time>2021-02-21T09:24:45Z</time>
      </trkpt>
      <trkpt lat="49.29048" lon="-0.30963">
        <ele>5.8</ele>
        <time>2021-02-21T09:24:47Z</time>
      </trkpt>
      <trkpt lat="49.29048" lon="-0.30965">
        <ele>5.8</ele>
        <time>2021-02-21T09:24:48Z</time>
      </trkpt>
      <trkpt lat="49.29047" lon="-0.3097">
        <ele>5.8</ele>
        <time>2021-02-21T09:24:50Z</time>
      </trkpt>
      <trkpt lat="49.29046" lon="-0.30972">
        <ele>5.8</ele>
        <time>2021-02-21T09:24:51Z</time>
      </trkpt>
      <trkpt lat="49.29045" lon="-0.30978">
        <ele>5.8</ele>
        <time>2021-02-21T09:24:53Z</time>
      </trkpt>
      <trkpt lat="49.29044" lon="-0.30981">
        <ele>5.8</ele>
        <time>2021-02-21T09:24:54Z</time>
      </trkpt>
      <trkpt lat="49.29044" lon="-0.30983">
        <ele>5.8</ele>
        <time>2021-02-21T09:24:55Z</time>
      </trkpt>
      <trkpt lat="49.29043" lon="-0.30987">
        <ele>5.8</ele>
        <time>2021-02-21T09:24:57Z</time>
      </trkpt>
      <trkpt lat="49.29043" lon="-0.3099">
        <ele>5.8</ele>
        <time>2021-02-21T09:24:59Z</time>
      </trkpt>
      <trkpt lat="49.29044" lon="-0.30992">
        <ele>5.8</ele>
        <time>2021-02-21T09:25:00Z</time>
      </trkpt>
      <trkpt lat="49.29045" lon="-0.30997">
        <ele>5.8</ele>
        <time>2021-02-21T09:25:02Z</time>
      </trkpt>
      <trkpt lat="49.29044" lon="-0.31001">
        <ele>5.8</ele>
        <time>2021-02-21T09:25:03Z</time>
      </trkpt>
      <trkpt lat="49.29043" lon="-0.31007">
        <ele>5.8</ele>
        <time>2021-02-21T09:25:05Z</time>
      </trkpt>
      <trkpt lat="49.29043" lon="-0.31008">
        <ele>5.8</ele>
        <time>2021-02-21T09:25:06Z</time>
      </trkpt>
      <trkpt lat="49.29041" lon="-0.31012">
        <ele>5.8</ele>
        <time>2021-02-21T09:25:08Z</time>
      </trkpt>
      <trkpt lat="49.2904" lon="-0.31015">
        <ele>5.8</ele>
        <time>2021-02-21T09:25:09Z</time>
      </trkpt>
      <trkpt lat="49.29039" lon="-0.31018">
        <ele>5.8</ele>
        <time>2021-02-21T09:25:11Z</time>
      </trkpt>
      <trkpt lat="49.29038" lon="-0.31022">
        <ele>5.8</ele>
        <time>2021-02-21T09:25:12Z</time>
      </trkpt>
      <trkpt lat="49.29037" lon="-0.31023">
        <ele>5.8</ele>
        <time>2021-02-21T09:25:13Z</time>
      </trkpt>
      <trkpt lat="49.29036" lon="-0.31027">
        <ele>5.8</ele>
        <time>2021-02-21T09:25:14Z</time>
      </trkpt>
      <trkpt lat="49.29035" lon="-0.31029">
        <ele>5.8</ele>
        <time>2021-02-21T09:25:15Z</time>
      </trkpt>
      <trkpt lat="49.29034" lon="-0.31035">
        <ele>5.8</ele>
        <time>2021-02-21T09:25:17Z</time>
      </trkpt>
      <trkpt lat="49.29033" lon="-0.31036">
        <ele>5.8</ele>
        <time>2021-02-21T09:25:18Z</time>
      </trkpt>
      <trkpt lat="49.29032" lon="-0.3104">
        <ele>5.8</ele>
        <time>2021-02-21T09:25:19Z</time>
      </trkpt>
      <trkpt lat="49.29031" lon="-0.31043">
        <ele>5.8</ele>
        <time>2021-02-21T09:25:22Z</time>
      </trkpt>
      <trkpt lat="49.29031" lon="-0.31046">
        <ele>5.8</ele>
        <time>2021-02-21T09:25:23Z</time>
      </trkpt>
      <trkpt lat="49.29029" lon="-0.3105">
        <ele>5.8</ele>
        <time>2021-02-21T09:25:25Z</time>
      </trkpt>
      <trkpt lat="49.29028" lon="-0.31056">
        <ele>5.8</ele>
        <time>2021-02-21T09:25:27Z</time>
      </trkpt>
      <trkpt lat="49.29027" lon="-0.31059">
        <ele>5.8</ele>
        <time>2021-02-21T09:25:28Z</time>
      </trkpt>
      <trkpt lat="49.29026" lon="-0.31061">
        <ele>5.8</ele>
        <time>2021-02-21T09:25:29Z</time>
      </trkpt>
      <trkpt lat="49.29025" lon="-0.31066">
        <ele>5.8</ele>
        <time>2021-02-21T09:25:31Z</time>
      </trkpt>
      <trkpt lat="49.29025" lon="-0.31068">
        <ele>5.8</ele>
        <time>2021-02-21T09:25:32Z</time>
      </trkpt>
      <trkpt lat="49.29024" lon="-0.31074">
        <ele>5.9</ele>
        <time>2021-02-21T09:25:34Z</time>
      </trkpt>
      <trkpt lat="49.29024" lon="-0.31075">
        <ele>5.9</ele>
        <time>2021-02-21T09:25:35Z</time>
      </trkpt>
      <trkpt lat="49.29024" lon="-0.31078">
        <ele>5.9</ele>
        <time>2021-02-21T09:25:36Z</time>
      </trkpt>
      <trkpt lat="49.29023" lon="-0.31082">
        <ele>5.9</ele>
        <time>2021-02-21T09:25:38Z</time>
      </trkpt>
      <trkpt lat="49.29023" lon="-0.31086">
        <ele>6</ele>
        <time>2021-02-21T09:25:40Z</time>
      </trkpt>
      <trkpt lat="49.29022" lon="-0.31089">
        <ele>6</ele>
        <time>2021-02-21T09:25:41Z</time>
      </trkpt>
      <trkpt lat="49.29021" lon="-0.31093">
        <ele>6</ele>
        <time>2021-02-21T09:25:43Z</time>
      </trkpt>
      <trkpt lat="49.29021" lon="-0.31098">
        <ele>6</ele>
        <time>2021-02-21T09:25:45Z</time>
      </trkpt>
      <trkpt lat="49.29021" lon="-0.31099">
        <ele>6.1</ele>
        <time>2021-02-21T09:25:46Z</time>
      </trkpt>
      <trkpt lat="49.2902" lon="-0.31104">
        <ele>6.1</ele>
        <time>2021-02-21T09:25:48Z</time>
      </trkpt>
      <trkpt lat="49.2902" lon="-0.31106">
        <ele>6.1</ele>
        <time>2021-02-21T09:25:49Z</time>
      </trkpt>
      <trkpt lat="49.2902" lon="-0.31109">
        <ele>6.1</ele>
        <time>2021-02-21T09:25:51Z</time>
      </trkpt>
      <trkpt lat="49.29019" lon="-0.31111">
        <ele>6.1</ele>
        <time>2021-02-21T09:25:52Z</time>
      </trkpt>
      <trkpt lat="49.2902" lon="-0.31115">
        <ele>6.2</ele>
        <time>2021-02-21T09:25:54Z</time>
      </trkpt>
      <trkpt lat="49.2902" lon="-0.31117">
        <ele>6.2</ele>
        <time>2021-02-21T09:25:55Z</time>
      </trkpt>
      <trkpt lat="49.2902" lon="-0.31119">
        <ele>6.3</ele>
        <time>2021-02-21T09:25:56Z</time>
      </trkpt>
      <trkpt lat="49.29021" lon="-0.31122">
        <ele>6.3</ele>
        <time>2021-02-21T09:25:57Z</time>
      </trkpt>
      <trkpt lat="49.29022" lon="-0.31126">
        <ele>6.3</ele>
        <time>2021-02-21T09:25:59Z</time>
      </trkpt>
      <trkpt lat="49.29023" lon="-0.31131">
        <ele>6.3</ele>
        <time>2021-02-21T09:26:01Z</time>
      </trkpt>
      <trkpt lat="49.29023" lon="-0.31134">
        <ele>6.3</ele>
        <time>2021-02-21T09:26:02Z</time>
      </trkpt>
      <trkpt lat="49.29024" lon="-0.31136">
        <ele>6.3</ele>
        <time>2021-02-21T09:26:03Z</time>
      </trkpt>
      <trkpt lat="49.29025" lon="-0.3114">
        <ele>6.3</ele>
        <time>2021-02-21T09:26:04Z</time>
      </trkpt>
      <trkpt lat="49.29026" lon="-0.31141">
        <ele>6.3</ele>
        <time>2021-02-21T09:26:05Z</time>
      </trkpt>
      <trkpt lat="49.29027" lon="-0.31144">
        <ele>6.3</ele>
        <time>2021-02-21T09:26:06Z</time>
      </trkpt>
      <trkpt lat="49.29029" lon="-0.3115">
        <ele>6.4</ele>
        <time>2021-02-21T09:26:09Z</time>
      </trkpt>
      <trkpt lat="49.2903" lon="-0.31154">
        <ele>6.4</ele>
        <time>2021-02-21T09:26:10Z</time>
      </trkpt>
      <trkpt lat="49.29031" lon="-0.31159">
        <ele>6.4</ele>
        <time>2021-02-21T09:26:12Z</time>
      </trkpt>
      <trkpt lat="49.29032" lon="-0.31161">
        <ele>6.4</ele>
        <time>2021-02-21T09:26:13Z</time>
      </trkpt>
      <trkpt lat="49.29034" lon="-0.31166">
        <ele>6.5</ele>
        <time>2021-02-21T09:26:15Z</time>
      </trkpt>
      <trkpt lat="49.29035" lon="-0.31171">
        <ele>6.5</ele>
        <time>2021-02-21T09:26:17Z</time>
      </trkpt>
      <trkpt lat="49.29036" lon="-0.31174">
        <ele>6.6</ele>
        <time>2021-02-21T09:26:19Z</time>
      </trkpt>
      <trkpt lat="49.29037" lon="-0.31177">
        <ele>6.6</ele>
        <time>2021-02-21T09:26:20Z</time>
      </trkpt>
      <trkpt lat="49.29039" lon="-0.31181">
        <ele>6.6</ele>
        <time>2021-02-21T09:26:22Z</time>
      </trkpt>
      <trkpt lat="49.2904" lon="-0.31185">
        <ele>6.7</ele>
        <time>2021-02-21T09:26:24Z</time>
      </trkpt>
      <trkpt lat="49.29041" lon="-0.31187">
        <ele>6.7</ele>
        <time>2021-02-21T09:26:25Z</time>
      </trkpt>
      <trkpt lat="49.29042" lon="-0.31191">
        <ele>6.8</ele>
        <time>2021-02-21T09:26:27Z</time>
      </trkpt>
      <trkpt lat="49.29043" lon="-0.31193">
        <ele>6.8</ele>
        <time>2021-02-21T09:26:28Z</time>
      </trkpt>
      <trkpt lat="49.29044" lon="-0.31197">
        <ele>6.9</ele>
        <time>2021-02-21T09:26:31Z</time>
      </trkpt>
      <trkpt lat="49.29045" lon="-0.31199">
        <ele>6.9</ele>
        <time>2021-02-21T09:26:32Z</time>
      </trkpt>
      <trkpt lat="49.29046" lon="-0.31202">
        <ele>6.9</ele>
        <time>2021-02-21T09:26:33Z</time>
      </trkpt>
      <trkpt lat="49.29047" lon="-0.31204">
        <ele>7</ele>
        <time>2021-02-21T09:26:34Z</time>
      </trkpt>
      <trkpt lat="49.29048" lon="-0.31208">
        <ele>7</ele>
        <time>2021-02-21T09:26:36Z</time>
      </trkpt>
      <trkpt lat="49.29049" lon="-0.31212">
        <ele>7.1</ele>
        <time>2021-02-21T09:26:38Z</time>
      </trkpt>
      <trkpt lat="49.29049" lon="-0.31215">
        <ele>7.1</ele>
        <time>2021-02-21T09:26:39Z</time>
      </trkpt>
      <trkpt lat="49.2905" lon="-0.31218">
        <ele>7.2</ele>
        <time>2021-02-21T09:26:41Z</time>
      </trkpt>
      <trkpt lat="49.2905" lon="-0.3122">
        <ele>7.2</ele>
        <time>2021-02-21T09:26:42Z</time>
      </trkpt>
      <trkpt lat="49.29051" lon="-0.31224">
        <ele>7.2</ele>
        <time>2021-02-21T09:26:44Z</time>
      </trkpt>
      <trkpt lat="49.29052" lon="-0.31227">
        <ele>7.3</ele>
        <time>2021-02-21T09:26:45Z</time>
      </trkpt>
      <trkpt lat="49.29053" lon="-0.3123">
        <ele>7.3</ele>
        <time>2021-02-21T09:26:47Z</time>
      </trkpt>
      <trkpt lat="49.29055" lon="-0.31234">
        <ele>7.4</ele>
        <time>2021-02-21T09:26:49Z</time>
      </trkpt>
      <trkpt lat="49.29057" lon="-0.31237">
        <ele>7.4</ele>
        <time>2021-02-21T09:26:51Z</time>
      </trkpt>
      <trkpt lat="49.29058" lon="-0.3124">
        <ele>7.4</ele>
        <time>2021-02-21T09:26:52Z</time>
      </trkpt>
      <trkpt lat="49.2906" lon="-0.31244">
        <ele>7.4</ele>
        <time>2021-02-21T09:26:55Z</time>
      </trkpt>
      <trkpt lat="49.29061" lon="-0.31246">
        <ele>7.5</ele>
        <time>2021-02-21T09:26:56Z</time>
      </trkpt>
      <trkpt lat="49.29063" lon="-0.31251">
        <ele>7.5</ele>
        <time>2021-02-21T09:26:58Z</time>
      </trkpt>
      <trkpt lat="49.29065" lon="-0.31255">
        <ele>7.5</ele>
        <time>2021-02-21T09:27:00Z</time>
      </trkpt>
      <trkpt lat="49.29066" lon="-0.31257">
        <ele>7.6</ele>
        <time>2021-02-21T09:27:01Z</time>
      </trkpt>
      <trkpt lat="49.29068" lon="-0.31262">
        <ele>7.6</ele>
        <time>2021-02-21T09:27:03Z</time>
      </trkpt>
      <trkpt lat="49.2907" lon="-0.31266">
        <ele>7.6</ele>
        <time>2021-02-21T09:27:04Z</time>
      </trkpt>
      <trkpt lat="49.29071" lon="-0.31267">
        <ele>7.6</ele>
        <time>2021-02-21T09:27:05Z</time>
      </trkpt>
      <trkpt lat="49.29073" lon="-0.3127">
        <ele>7.7</ele>
        <time>2021-02-21T09:27:07Z</time>
      </trkpt>
      <trkpt lat="49.29073" lon="-0.31272">
        <ele>7.7</ele>
        <time>2021-02-21T09:27:08Z</time>
      </trkpt>
      <trkpt lat="49.29075" lon="-0.31274">
        <ele>7.7</ele>
        <time>2021-02-21T09:27:09Z</time>
      </trkpt>
      <trkpt lat="49.29076" lon="-0.31277">
        <ele>7.7</ele>
        <time>2021-02-21T09:27:11Z</time>
      </trkpt>
      <trkpt lat="49.29077" lon="-0.31279">
        <ele>7.7</ele>
        <time>2021-02-21T09:27:12Z</time>
      </trkpt>
      <trkpt lat="49.29079" lon="-0.31282">
        <ele>7.7</ele>
        <time>2021-02-21T09:27:14Z</time>
      </trkpt>
      <trkpt lat="49.29081" lon="-0.31285">
        <ele>7.7</ele>
        <time>2021-02-21T09:27:17Z</time>
      </trkpt>
      <trkpt lat="49.29082" lon="-0.31287">
        <ele>7.7</ele>
        <time>2021-02-21T09:27:18Z</time>
      </trkpt>
      <trkpt lat="49.29083" lon="-0.31289">
        <ele>7.8</ele>
        <time>2021-02-21T09:27:19Z</time>
      </trkpt>
      <trkpt lat="49.29086" lon="-0.31294">
        <ele>7.8</ele>
        <time>2021-02-21T09:27:21Z</time>
      </trkpt>
      <trkpt lat="49.29087" lon="-0.31296">
        <ele>7.8</ele>
        <time>2021-02-21T09:27:23Z</time>
      </trkpt>
      <trkpt lat="49.29088" lon="-0.31298">
        <ele>7.8</ele>
        <time>2021-02-21T09:27:24Z</time>
      </trkpt>
      <trkpt lat="49.29089" lon="-0.31299">
        <ele>7.8</ele>
        <time>2021-02-21T09:27:25Z</time>
      </trkpt>
      <trkpt lat="49.29091" lon="-0.31303">
        <ele>7.8</ele>
        <time>2021-02-21T09:27:27Z</time>
      </trkpt>
      <trkpt lat="49.29092" lon="-0.31305">
        <ele>7.8</ele>
        <time>2021-02-21T09:27:28Z</time>
      </trkpt>
      <trkpt lat="49.29094" lon="-0.31308">
        <ele>7.8</ele>
        <time>2021-02-21T09:27:30Z</time>
      </trkpt>
      <trkpt lat="49.29096" lon="-0.31312">
        <ele>7.8</ele>
        <time>2021-02-21T09:27:31Z</time>
      </trkpt>
      <trkpt lat="49.29097" lon="-0.31314">
        <ele>7.8</ele>
        <time>2021-02-21T09:27:32Z</time>
      </trkpt>
      <trkpt lat="49.29098" lon="-0.31316">
        <ele>7.9</ele>
        <time>2021-02-21T09:27:33Z</time>
      </trkpt>
      <trkpt lat="49.291" lon="-0.31319">
        <ele>7.9</ele>
        <time>2021-02-21T09:27:35Z</time>
      </trkpt>
      <trkpt lat="49.29103" lon="-0.31323">
        <ele>7.9</ele>
        <time>2021-02-21T09:27:37Z</time>
      </trkpt>
      <trkpt lat="49.29104" lon="-0.31324">
        <ele>7.9</ele>
        <time>2021-02-21T09:27:38Z</time>
      </trkpt>
      <trkpt lat="49.29105" lon="-0.31326">
        <ele>7.9</ele>
        <time>2021-02-21T09:27:40Z</time>
      </trkpt>
      <trkpt lat="49.29106" lon="-0.31328">
        <ele>7.9</ele>
        <time>2021-02-21T09:27:41Z</time>
      </trkpt>
      <trkpt lat="49.29109" lon="-0.31332">
        <ele>7.9</ele>
        <time>2021-02-21T09:27:43Z</time>
      </trkpt>
      <trkpt lat="49.2911" lon="-0.31334">
        <ele>7.9</ele>
        <time>2021-02-21T09:27:44Z</time>
      </trkpt>
      <trkpt lat="49.29111" lon="-0.31336">
        <ele>7.9</ele>
        <time>2021-02-21T09:27:45Z</time>
      </trkpt>
      <trkpt lat="49.29112" lon="-0.31339">
        <ele>7.9</ele>
        <time>2021-02-21T09:27:46Z</time>
      </trkpt>
      <trkpt lat="49.29115" lon="-0.31343">
        <ele>8</ele>
        <time>2021-02-21T09:27:48Z</time>
      </trkpt>
      <trkpt lat="49.29117" lon="-0.31346">
        <ele>8</ele>
        <time>2021-02-21T09:27:49Z</time>
      </trkpt>
      <trkpt lat="49.29118" lon="-0.31347">
        <ele>8</ele>
        <time>2021-02-21T09:27:50Z</time>
      </trkpt>
      <trkpt lat="49.2912" lon="-0.31351">
        <ele>8</ele>
        <time>2021-02-21T09:27:52Z</time>
      </trkpt>
      <trkpt lat="49.29123" lon="-0.31354">
        <ele>8</ele>
        <time>2021-02-21T09:27:54Z</time>
      </trkpt>
      <trkpt lat="49.29124" lon="-0.31356">
        <ele>8</ele>
        <time>2021-02-21T09:27:55Z</time>
      </trkpt>
      <trkpt lat="49.29125" lon="-0.31357">
        <ele>8</ele>
        <time>2021-02-21T09:27:56Z</time>
      </trkpt>
      <trkpt lat="49.29128" lon="-0.31362">
        <ele>8</ele>
        <time>2021-02-21T09:27:58Z</time>
      </trkpt>
      <trkpt lat="49.29129" lon="-0.31363">
        <ele>8</ele>
        <time>2021-02-21T09:27:59Z</time>
      </trkpt>
      <trkpt lat="49.2913" lon="-0.31364">
        <ele>8</ele>
        <time>2021-02-21T09:28:00Z</time>
      </trkpt>
      <trkpt lat="49.29132" lon="-0.31367">
        <ele>8</ele>
        <time>2021-02-21T09:28:03Z</time>
      </trkpt>
      <trkpt lat="49.29135" lon="-0.31367">
        <ele>8</ele>
        <time>2021-02-21T09:28:05Z</time>
      </trkpt>
      <trkpt lat="49.29137" lon="-0.31366">
        <ele>8</ele>
        <time>2021-02-21T09:28:06Z</time>
      </trkpt>
      <trkpt lat="49.29139" lon="-0.31367">
        <ele>8</ele>
        <time>2021-02-21T09:28:08Z</time>
      </trkpt>
      <trkpt lat="49.29141" lon="-0.3137">
        <ele>8</ele>
        <time>2021-02-21T09:28:09Z</time>
      </trkpt>
      <trkpt lat="49.29142" lon="-0.31372">
        <ele>8</ele>
        <time>2021-02-21T09:28:10Z</time>
      </trkpt>
      <trkpt lat="49.29144" lon="-0.31375">
        <ele>8</ele>
        <time>2021-02-21T09:28:12Z</time>
      </trkpt>
      <trkpt lat="49.29145" lon="-0.31378">
        <ele>8</ele>
        <time>2021-02-21T09:28:13Z</time>
      </trkpt>
      <trkpt lat="49.29147" lon="-0.31381">
        <ele>8</ele>
        <time>2021-02-21T09:28:15Z</time>
      </trkpt>
      <trkpt lat="49.29149" lon="-0.31385">
        <ele>8</ele>
        <time>2021-02-21T09:28:16Z</time>
      </trkpt>
      <trkpt lat="49.2915" lon="-0.31386">
        <ele>8</ele>
        <time>2021-02-21T09:28:17Z</time>
      </trkpt>
      <trkpt lat="49.29154" lon="-0.31391">
        <ele>7.9</ele>
        <time>2021-02-21T09:28:19Z</time>
      </trkpt>
      <trkpt lat="49.29155" lon="-0.31392">
        <ele>7.9</ele>
        <time>2021-02-21T09:28:20Z</time>
      </trkpt>
      <trkpt lat="49.29159" lon="-0.31396">
        <ele>7.9</ele>
        <time>2021-02-21T09:28:22Z</time>
      </trkpt>
      <trkpt lat="49.29161" lon="-0.31398">
        <ele>7.9</ele>
        <time>2021-02-21T09:28:23Z</time>
      </trkpt>
      <trkpt lat="49.29165" lon="-0.31403">
        <ele>7.9</ele>
        <time>2021-02-21T09:28:26Z</time>
      </trkpt>
      <trkpt lat="49.29168" lon="-0.31405">
        <ele>7.9</ele>
        <time>2021-02-21T09:28:27Z</time>
      </trkpt>
      <trkpt lat="49.29171" lon="-0.31408">
        <ele>7.9</ele>
        <time>2021-02-21T09:28:28Z</time>
      </trkpt>
      <trkpt lat="49.29174" lon="-0.3141">
        <ele>7.9</ele>
        <time>2021-02-21T09:28:30Z</time>
      </trkpt>
      <trkpt lat="49.29176" lon="-0.31412">
        <ele>7.9</ele>
        <time>2021-02-21T09:28:31Z</time>
      </trkpt>
      <trkpt lat="49.29179" lon="-0.31414">
        <ele>7.9</ele>
        <time>2021-02-21T09:28:32Z</time>
      </trkpt>
      <trkpt lat="49.29181" lon="-0.31415">
        <ele>7.9</ele>
        <time>2021-02-21T09:28:33Z</time>
      </trkpt>
      <trkpt lat="49.29183" lon="-0.31417">
        <ele>7.9</ele>
        <time>2021-02-21T09:28:35Z</time>
      </trkpt>
      <trkpt lat="49.29185" lon="-0.31419">
        <ele>7.9</ele>
        <time>2021-02-21T09:28:36Z</time>
      </trkpt>
      <trkpt lat="49.29187" lon="-0.31422">
        <ele>7.9</ele>
        <time>2021-02-21T09:28:38Z</time>
      </trkpt>
      <trkpt lat="49.29189" lon="-0.31425">
        <ele>7.9</ele>
        <time>2021-02-21T09:28:39Z</time>
      </trkpt>
      <trkpt lat="49.29191" lon="-0.31426">
        <ele>7.9</ele>
        <time>2021-02-21T09:28:40Z</time>
      </trkpt>
      <trkpt lat="49.29194" lon="-0.31429">
        <ele>7.9</ele>
        <time>2021-02-21T09:28:42Z</time>
      </trkpt>
      <trkpt lat="49.29195" lon="-0.3143">
        <ele>7.9</ele>
        <time>2021-02-21T09:28:43Z</time>
      </trkpt>
      <trkpt lat="49.29198" lon="-0.31432">
        <ele>7.9</ele>
        <time>2021-02-21T09:28:44Z</time>
      </trkpt>
      <trkpt lat="49.29201" lon="-0.31435">
        <ele>7.9</ele>
        <time>2021-02-21T09:28:46Z</time>
      </trkpt>
      <trkpt lat="49.29201" lon="-0.31436">
        <ele>7.9</ele>
        <time>2021-02-21T09:28:47Z</time>
      </trkpt>
      <trkpt lat="49.29204" lon="-0.31438">
        <ele>7.9</ele>
        <time>2021-02-21T09:28:50Z</time>
      </trkpt>
      <trkpt lat="49.29207" lon="-0.31441">
        <ele>8</ele>
        <time>2021-02-21T09:28:52Z</time>
      </trkpt>
      <trkpt lat="49.29211" lon="-0.31444">
        <ele>8</ele>
        <time>2021-02-21T09:28:53Z</time>
      </trkpt>
      <trkpt lat="49.29212" lon="-0.31444">
        <ele>8</ele>
        <time>2021-02-21T09:28:54Z</time>
      </trkpt>
      <trkpt lat="49.29215" lon="-0.31446">
        <ele>8</ele>
        <time>2021-02-21T09:28:56Z</time>
      </trkpt>
      <trkpt lat="49.29216" lon="-0.31447">
        <ele>8</ele>
        <time>2021-02-21T09:28:57Z</time>
      </trkpt>
      <trkpt lat="49.29218" lon="-0.31449">
        <ele>8</ele>
        <time>2021-02-21T09:28:58Z</time>
      </trkpt>
      <trkpt lat="49.2922" lon="-0.3145">
        <ele>8</ele>
        <time>2021-02-21T09:29:00Z</time>
      </trkpt>
      <trkpt lat="49.29223" lon="-0.31451">
        <ele>8</ele>
        <time>2021-02-21T09:29:01Z</time>
      </trkpt>
      <trkpt lat="49.29225" lon="-0.31452">
        <ele>8</ele>
        <time>2021-02-21T09:29:03Z</time>
      </trkpt>
      <trkpt lat="49.29227" lon="-0.31453">
        <ele>8</ele>
        <time>2021-02-21T09:29:05Z</time>
      </trkpt>
      <trkpt lat="49.29228" lon="-0.31453">
        <ele>8</ele>
        <time>2021-02-21T09:29:06Z</time>
      </trkpt>
      <trkpt lat="49.2923" lon="-0.31455">
        <ele>8</ele>
        <time>2021-02-21T09:29:08Z</time>
      </trkpt>
      <trkpt lat="49.29231" lon="-0.31456">
        <ele>8</ele>
        <time>2021-02-21T09:29:09Z</time>
      </trkpt>
      <trkpt lat="49.29233" lon="-0.31456">
        <ele>8</ele>
        <time>2021-02-21T09:29:11Z</time>
      </trkpt>
      <trkpt lat="49.29234" lon="-0.31457">
        <ele>8</ele>
        <time>2021-02-21T09:29:13Z</time>
      </trkpt>
      <trkpt lat="49.29235" lon="-0.31458">
        <ele>8</ele>
        <time>2021-02-21T09:29:14Z</time>
      </trkpt>
      <trkpt lat="49.29237" lon="-0.31458">
        <ele>8</ele>
        <time>2021-02-21T09:29:16Z</time>
      </trkpt>
      <trkpt lat="49.29239" lon="-0.31458">
        <ele>8</ele>
        <time>2021-02-21T09:29:17Z</time>
      </trkpt>
      <trkpt lat="49.2924" lon="-0.31458">
        <ele>8</ele>
        <time>2021-02-21T09:29:18Z</time>
      </trkpt>
      <trkpt lat="49.29243" lon="-0.31459">
        <ele>8.1</ele>
        <time>2021-02-21T09:29:19Z</time>
      </trkpt>
      <trkpt lat="49.29245" lon="-0.3146">
        <ele>8.1</ele>
        <time>2021-02-21T09:29:21Z</time>
      </trkpt>
      <trkpt lat="49.29248" lon="-0.31462">
        <ele>8.1</ele>
        <time>2021-02-21T09:29:22Z</time>
      </trkpt>
      <trkpt lat="49.29249" lon="-0.31462">
        <ele>8.1</ele>
        <time>2021-02-21T09:29:23Z</time>
      </trkpt>
      <trkpt lat="49.29252" lon="-0.31462">
        <ele>8.1</ele>
        <time>2021-02-21T09:29:24Z</time>
      </trkpt>
      <trkpt lat="49.29252" lon="-0.31463">
        <ele>8.1</ele>
        <time>2021-02-21T09:29:25Z</time>
      </trkpt>
      <trkpt lat="49.29255" lon="-0.31463">
        <ele>8.1</ele>
        <time>2021-02-21T09:29:27Z</time>
      </trkpt>
      <trkpt lat="49.29258" lon="-0.31465">
        <ele>8.1</ele>
        <time>2021-02-21T09:29:29Z</time>
      </trkpt>
      <trkpt lat="49.29262" lon="-0.31466">
        <ele>8.1</ele>
        <time>2021-02-21T09:29:30Z</time>
      </trkpt>
      <trkpt lat="49.29264" lon="-0.31467">
        <ele>8.1</ele>
        <time>2021-02-21T09:29:31Z</time>
      </trkpt>
      <trkpt lat="49.29268" lon="-0.31469">
        <ele>8.2</ele>
        <time>2021-02-21T09:29:33Z</time>
      </trkpt>
      <trkpt lat="49.2927" lon="-0.3147">
        <ele>8.2</ele>
        <time>2021-02-21T09:29:34Z</time>
      </trkpt>
      <trkpt lat="49.29271" lon="-0.31471">
        <ele>8.2</ele>
        <time>2021-02-21T09:29:36Z</time>
      </trkpt>
      <trkpt lat="49.29273" lon="-0.31472">
        <ele>8.2</ele>
        <time>2021-02-21T09:29:37Z</time>
      </trkpt>
      <trkpt lat="49.29277" lon="-0.31474">
        <ele>8.2</ele>
        <time>2021-02-21T09:29:39Z</time>
      </trkpt>
      <trkpt lat="49.29279" lon="-0.31475">
        <ele>8.2</ele>
        <time>2021-02-21T09:29:40Z</time>
      </trkpt>
      <trkpt lat="49.29282" lon="-0.31477">
        <ele>8.3</ele>
        <time>2021-02-21T09:29:42Z</time>
      </trkpt>
      <trkpt lat="49.29284" lon="-0.31478">
        <ele>8.3</ele>
        <time>2021-02-21T09:29:43Z</time>
      </trkpt>
      <trkpt lat="49.29287" lon="-0.31479">
        <ele>8.3</ele>
        <time>2021-02-21T09:29:45Z</time>
      </trkpt>
      <trkpt lat="49.2929" lon="-0.31481">
        <ele>8.3</ele>
        <time>2021-02-21T09:29:46Z</time>
      </trkpt>
      <trkpt lat="49.29291" lon="-0.31482">
        <ele>8.3</ele>
        <time>2021-02-21T09:29:47Z</time>
      </trkpt>
      <trkpt lat="49.29294" lon="-0.31483">
        <ele>8.3</ele>
        <time>2021-02-21T09:29:49Z</time>
      </trkpt>
      <trkpt lat="49.29295" lon="-0.31484">
        <ele>8.3</ele>
        <time>2021-02-21T09:29:50Z</time>
      </trkpt>
      <trkpt lat="49.29298" lon="-0.31484">
        <ele>8.3</ele>
        <time>2021-02-21T09:29:51Z</time>
      </trkpt>
      <trkpt lat="49.293" lon="-0.31485">
        <ele>8.3</ele>
        <time>2021-02-21T09:29:53Z</time>
      </trkpt>
      <trkpt lat="49.29304" lon="-0.31487">
        <ele>8.4</ele>
        <time>2021-02-21T09:29:55Z</time>
      </trkpt>
      <trkpt lat="49.29307" lon="-0.31488">
        <ele>8.4</ele>
        <time>2021-02-21T09:29:56Z</time>
      </trkpt>
      <trkpt lat="49.29308" lon="-0.31488">
        <ele>8.4</ele>
        <time>2021-02-21T09:29:57Z</time>
      </trkpt>
      <trkpt lat="49.29311" lon="-0.3149">
        <ele>8.4</ele>
        <time>2021-02-21T09:30:00Z</time>
      </trkpt>
      <trkpt lat="49.29312" lon="-0.3149">
        <ele>8.4</ele>
        <time>2021-02-21T09:30:01Z</time>
      </trkpt>
      <trkpt lat="49.29315" lon="-0.31491">
        <ele>8.4</ele>
        <time>2021-02-21T09:30:02Z</time>
      </trkpt>
      <trkpt lat="49.29315" lon="-0.31492">
        <ele>8.4</ele>
        <time>2021-02-21T09:30:03Z</time>
      </trkpt>
      <trkpt lat="49.29319" lon="-0.31494">
        <ele>8.5</ele>
        <time>2021-02-21T09:30:04Z</time>
      </trkpt>
      <trkpt lat="49.2932" lon="-0.31495">
        <ele>8.5</ele>
        <time>2021-02-21T09:30:05Z</time>
      </trkpt>
      <trkpt lat="49.29324" lon="-0.31498">
        <ele>8.5</ele>
        <time>2021-02-21T09:30:07Z</time>
      </trkpt>
      <trkpt lat="49.29325" lon="-0.31499">
        <ele>8.6</ele>
        <time>2021-02-21T09:30:08Z</time>
      </trkpt>
      <trkpt lat="49.29326" lon="-0.31499">
        <ele>8.6</ele>
        <time>2021-02-21T09:30:09Z</time>
      </trkpt>
      <trkpt lat="49.29328" lon="-0.31501">
        <ele>8.6</ele>
        <time>2021-02-21T09:30:10Z</time>
      </trkpt>
      <trkpt lat="49.2933" lon="-0.31503">
        <ele>8.6</ele>
        <time>2021-02-21T09:30:12Z</time>
      </trkpt>
      <trkpt lat="49.29333" lon="-0.31505">
        <ele>8.6</ele>
        <time>2021-02-21T09:30:13Z</time>
      </trkpt>
      <trkpt lat="49.29334" lon="-0.31505">
        <ele>8.7</ele>
        <time>2021-02-21T09:30:14Z</time>
      </trkpt>
      <trkpt lat="49.29338" lon="-0.31508">
        <ele>8.7</ele>
        <time>2021-02-21T09:30:16Z</time>
      </trkpt>
      <trkpt lat="49.29339" lon="-0.31509">
        <ele>8.7</ele>
        <time>2021-02-21T09:30:17Z</time>
      </trkpt>
      <trkpt lat="49.29343" lon="-0.31512">
        <ele>8.8</ele>
        <time>2021-02-21T09:30:19Z</time>
      </trkpt>
      <trkpt lat="49.29345" lon="-0.31513">
        <ele>8.8</ele>
        <time>2021-02-21T09:30:20Z</time>
      </trkpt>
      <trkpt lat="49.29346" lon="-0.31514">
        <ele>8.8</ele>
        <time>2021-02-21T09:30:22Z</time>
      </trkpt>
      <trkpt lat="49.29348" lon="-0.31516">
        <ele>8.8</ele>
        <time>2021-02-21T09:30:23Z</time>
      </trkpt>
      <trkpt lat="49.2935" lon="-0.31517">
        <ele>8.8</ele>
        <time>2021-02-21T09:30:25Z</time>
      </trkpt>
      <trkpt lat="49.29353" lon="-0.31519">
        <ele>8.9</ele>
        <time>2021-02-21T09:30:26Z</time>
      </trkpt>
      <trkpt lat="49.29354" lon="-0.31519">
        <ele>8.9</ele>
        <time>2021-02-21T09:30:27Z</time>
      </trkpt>
      <trkpt lat="49.29356" lon="-0.31521">
        <ele>8.9</ele>
        <time>2021-02-21T09:30:28Z</time>
      </trkpt>
      <trkpt lat="49.29359" lon="-0.31523">
        <ele>8.9</ele>
        <time>2021-02-21T09:30:30Z</time>
      </trkpt>
      <trkpt lat="49.2936" lon="-0.31524">
        <ele>9</ele>
        <time>2021-02-21T09:30:31Z</time>
      </trkpt>
      <trkpt lat="49.29363" lon="-0.31525">
        <ele>9</ele>
        <time>2021-02-21T09:30:33Z</time>
      </trkpt>
      <trkpt lat="49.29365" lon="-0.31526">
        <ele>9</ele>
        <time>2021-02-21T09:30:34Z</time>
      </trkpt>
      <trkpt lat="49.29367" lon="-0.31527">
        <ele>9</ele>
        <time>2021-02-21T09:30:36Z</time>
      </trkpt>
      <trkpt lat="49.2937" lon="-0.31528">
        <ele>9</ele>
        <time>2021-02-21T09:30:37Z</time>
      </trkpt>
      <trkpt lat="49.29371" lon="-0.31528">
        <ele>9</ele>
        <time>2021-02-21T09:30:38Z</time>
      </trkpt>
      <trkpt lat="49.29374" lon="-0.31529">
        <ele>9.1</ele>
        <time>2021-02-21T09:30:40Z</time>
      </trkpt>
      <trkpt lat="49.29375" lon="-0.3153">
        <ele>9.1</ele>
        <time>2021-02-21T09:30:41Z</time>
      </trkpt>
      <trkpt lat="49.29377" lon="-0.3153">
        <ele>9.1</ele>
        <time>2021-02-21T09:30:42Z</time>
      </trkpt>
      <trkpt lat="49.2938" lon="-0.31531">
        <ele>9.1</ele>
        <time>2021-02-21T09:30:45Z</time>
      </trkpt>
      <trkpt lat="49.29385" lon="-0.31533">
        <ele>9.1</ele>
        <time>2021-02-21T09:30:47Z</time>
      </trkpt>
      <trkpt lat="49.29387" lon="-0.31534">
        <ele>9.2</ele>
        <time>2021-02-21T09:30:49Z</time>
      </trkpt>
      <trkpt lat="49.29389" lon="-0.31535">
        <ele>9.2</ele>
        <time>2021-02-21T09:30:50Z</time>
      </trkpt>
      <trkpt lat="49.29391" lon="-0.31536">
        <ele>9.2</ele>
        <time>2021-02-21T09:30:51Z</time>
      </trkpt>
      <trkpt lat="49.29394" lon="-0.31538">
        <ele>9.2</ele>
        <time>2021-02-21T09:30:53Z</time>
      </trkpt>
      <trkpt lat="49.29395" lon="-0.31539">
        <ele>9.2</ele>
        <time>2021-02-21T09:30:54Z</time>
      </trkpt>
      <trkpt lat="49.29398" lon="-0.3154">
        <ele>9.2</ele>
        <time>2021-02-21T09:30:56Z</time>
      </trkpt>
      <trkpt lat="49.29401" lon="-0.31542">
        <ele>9.3</ele>
        <time>2021-02-21T09:30:57Z</time>
      </trkpt>
      <trkpt lat="49.29403" lon="-0.31543">
        <ele>9.3</ele>
        <time>2021-02-21T09:30:59Z</time>
      </trkpt>
      <trkpt lat="49.29405" lon="-0.31544">
        <ele>9.3</ele>
        <time>2021-02-21T09:31:00Z</time>
      </trkpt>
      <trkpt lat="49.29407" lon="-0.31545">
        <ele>9.3</ele>
        <time>2021-02-21T09:31:02Z</time>
      </trkpt>
      <trkpt lat="49.2941" lon="-0.31546">
        <ele>9.4</ele>
        <time>2021-02-21T09:31:03Z</time>
      </trkpt>
      <trkpt lat="49.29412" lon="-0.31547">
        <ele>9.4</ele>
        <time>2021-02-21T09:31:04Z</time>
      </trkpt>
      <trkpt lat="49.29415" lon="-0.31548">
        <ele>9.4</ele>
        <time>2021-02-21T09:31:06Z</time>
      </trkpt>
      <trkpt lat="49.29416" lon="-0.31548">
        <ele>9.5</ele>
        <time>2021-02-21T09:31:08Z</time>
      </trkpt>
      <trkpt lat="49.29419" lon="-0.31548">
        <ele>9.5</ele>
        <time>2021-02-21T09:31:10Z</time>
      </trkpt>
      <trkpt lat="49.2942" lon="-0.31549">
        <ele>9.5</ele>
        <time>2021-02-21T09:31:11Z</time>
      </trkpt>
      <trkpt lat="49.29423" lon="-0.31549">
        <ele>9.6</ele>
        <time>2021-02-21T09:31:13Z</time>
      </trkpt>
      <trkpt lat="49.29424" lon="-0.31549">
        <ele>9.6</ele>
        <time>2021-02-21T09:31:14Z</time>
      </trkpt>
      <trkpt lat="49.29427" lon="-0.31549">
        <ele>9.6</ele>
        <time>2021-02-21T09:31:16Z</time>
      </trkpt>
      <trkpt lat="49.2943" lon="-0.3155">
        <ele>9.7</ele>
        <time>2021-02-21T09:31:17Z</time>
      </trkpt>
      <trkpt lat="49.29431" lon="-0.3155">
        <ele>9.7</ele>
        <time>2021-02-21T09:31:18Z</time>
      </trkpt>
      <trkpt lat="49.29434" lon="-0.3155">
        <ele>9.7</ele>
        <time>2021-02-21T09:31:20Z</time>
      </trkpt>
      <trkpt lat="49.29437" lon="-0.3155">
        <ele>9.8</ele>
        <time>2021-02-21T09:31:21Z</time>
      </trkpt>
      <trkpt lat="49.2944" lon="-0.31551">
        <ele>9.8</ele>
        <time>2021-02-21T09:31:23Z</time>
      </trkpt>
      <trkpt lat="49.29441" lon="-0.31551">
        <ele>9.8</ele>
        <time>2021-02-21T09:31:24Z</time>
      </trkpt>
      <trkpt lat="49.29445" lon="-0.31552">
        <ele>9.9</ele>
        <time>2021-02-21T09:31:26Z</time>
      </trkpt>
      <trkpt lat="49.29446" lon="-0.31552">
        <ele>9.9</ele>
        <time>2021-02-21T09:31:27Z</time>
      </trkpt>
      <trkpt lat="49.2945" lon="-0.31552">
        <ele>9.9</ele>
        <time>2021-02-21T09:31:28Z</time>
      </trkpt>
      <trkpt lat="49.29451" lon="-0.31553">
        <ele>10</ele>
        <time>2021-02-21T09:31:29Z</time>
      </trkpt>
      <trkpt lat="49.29454" lon="-0.31553">
        <ele>10</ele>
        <time>2021-02-21T09:31:32Z</time>
      </trkpt>
      <trkpt lat="49.29455" lon="-0.31553">
        <ele>10</ele>
        <time>2021-02-21T09:31:33Z</time>
      </trkpt>
      <trkpt lat="49.29458" lon="-0.31553">
        <ele>10</ele>
        <time>2021-02-21T09:31:34Z</time>
      </trkpt>
      <trkpt lat="49.2946" lon="-0.31553">
        <ele>10.1</ele>
        <time>2021-02-21T09:31:36Z</time>
      </trkpt>
      <trkpt lat="49.29462" lon="-0.31553">
        <ele>10.1</ele>
        <time>2021-02-21T09:31:37Z</time>
      </trkpt>
      <trkpt lat="49.29465" lon="-0.31553">
        <ele>10.1</ele>
        <time>2021-02-21T09:31:39Z</time>
      </trkpt>
      <trkpt lat="49.29468" lon="-0.31553">
        <ele>10.2</ele>
        <time>2021-02-21T09:31:40Z</time>
      </trkpt>
      <trkpt lat="49.2947" lon="-0.31553">
        <ele>10.2</ele>
        <time>2021-02-21T09:31:41Z</time>
      </trkpt>
      <trkpt lat="49.29475" lon="-0.31552">
        <ele>10.2</ele>
        <time>2021-02-21T09:31:43Z</time>
      </trkpt>
      <trkpt lat="49.29476" lon="-0.31552">
        <ele>10.2</ele>
        <time>2021-02-21T09:31:45Z</time>
      </trkpt>
      <trkpt lat="49.29478" lon="-0.31552">
        <ele>10.3</ele>
        <time>2021-02-21T09:31:46Z</time>
      </trkpt>
      <trkpt lat="49.29481" lon="-0.31552">
        <ele>10.3</ele>
        <time>2021-02-21T09:31:47Z</time>
      </trkpt>
      <trkpt lat="49.29484" lon="-0.31552">
        <ele>10.3</ele>
        <time>2021-02-21T09:31:49Z</time>
      </trkpt>
      <trkpt lat="49.29485" lon="-0.31552">
        <ele>10.3</ele>
        <time>2021-02-21T09:31:50Z</time>
      </trkpt>
      <trkpt lat="49.29488" lon="-0.31552">
        <ele>10.3</ele>
        <time>2021-02-21T09:31:52Z</time>
      </trkpt>
      <trkpt lat="49.29489" lon="-0.31552">
        <ele>10.3</ele>
        <time>2021-02-21T09:31:54Z</time>
      </trkpt>
      <trkpt lat="49.29492" lon="-0.31552">
        <ele>10.4</ele>
        <time>2021-02-21T09:31:55Z</time>
      </trkpt>
      <trkpt lat="49.29495" lon="-0.31552">
        <ele>10.4</ele>
        <time>2021-02-21T09:31:57Z</time>
      </trkpt>
      <trkpt lat="49.29497" lon="-0.31552">
        <ele>10.4</ele>
        <time>2021-02-21T09:31:58Z</time>
      </trkpt>
      <trkpt lat="49.295" lon="-0.31553">
        <ele>10.4</ele>
        <time>2021-02-21T09:32:00Z</time>
      </trkpt>
      <trkpt lat="49.29502" lon="-0.31553">
        <ele>10.4</ele>
        <time>2021-02-21T09:32:01Z</time>
      </trkpt>
      <trkpt lat="49.29504" lon="-0.31553">
        <ele>10.4</ele>
        <time>2021-02-21T09:32:03Z</time>
      </trkpt>
      <trkpt lat="49.29507" lon="-0.31553">
        <ele>10.4</ele>
        <time>2021-02-21T09:32:04Z</time>
      </trkpt>
      <trkpt lat="49.29508" lon="-0.31553">
        <ele>10.4</ele>
        <time>2021-02-21T09:32:05Z</time>
      </trkpt>
      <trkpt lat="49.29512" lon="-0.31555">
        <ele>10.4</ele>
        <time>2021-02-21T09:32:07Z</time>
      </trkpt>
      <trkpt lat="49.29513" lon="-0.31555">
        <ele>10.4</ele>
        <time>2021-02-21T09:32:08Z</time>
      </trkpt>
      <trkpt lat="49.29517" lon="-0.31556">
        <ele>10.4</ele>
        <time>2021-02-21T09:32:10Z</time>
      </trkpt>
      <trkpt lat="49.29518" lon="-0.31556">
        <ele>10.4</ele>
        <time>2021-02-21T09:32:11Z</time>
      </trkpt>
      <trkpt lat="49.2952" lon="-0.31556">
        <ele>10.4</ele>
        <time>2021-02-21T09:32:12Z</time>
      </trkpt>
      <trkpt lat="49.29523" lon="-0.31557">
        <ele>10.4</ele>
        <time>2021-02-21T09:32:14Z</time>
      </trkpt>
      <trkpt lat="49.29528" lon="-0.31558">
        <ele>10.5</ele>
        <time>2021-02-21T09:32:17Z</time>
      </trkpt>
      <trkpt lat="49.2953" lon="-0.31558">
        <ele>10.5</ele>
        <time>2021-02-21T09:32:18Z</time>
      </trkpt>
      <trkpt lat="49.29531" lon="-0.31559">
        <ele>10.5</ele>
        <time>2021-02-21T09:32:19Z</time>
      </trkpt>
      <trkpt lat="49.29535" lon="-0.31559">
        <ele>10.5</ele>
        <time>2021-02-21T09:32:21Z</time>
      </trkpt>
      <trkpt lat="49.29537" lon="-0.31559">
        <ele>10.5</ele>
        <time>2021-02-21T09:32:22Z</time>
      </trkpt>
      <trkpt lat="49.29541" lon="-0.31559">
        <ele>10.5</ele>
        <time>2021-02-21T09:32:24Z</time>
      </trkpt>
      <trkpt lat="49.29542" lon="-0.31559">
        <ele>10.5</ele>
        <time>2021-02-21T09:32:25Z</time>
      </trkpt>
      <trkpt lat="49.29544" lon="-0.3156">
        <ele>10.5</ele>
        <time>2021-02-21T09:32:26Z</time>
      </trkpt>
      <trkpt lat="49.29547" lon="-0.3156">
        <ele>10.5</ele>
        <time>2021-02-21T09:32:28Z</time>
      </trkpt>
      <trkpt lat="49.2955" lon="-0.31561">
        <ele>10.5</ele>
        <time>2021-02-21T09:32:30Z</time>
      </trkpt>
      <trkpt lat="49.29552" lon="-0.31561">
        <ele>10.5</ele>
        <time>2021-02-21T09:32:31Z</time>
      </trkpt>
      <trkpt lat="49.29553" lon="-0.31561">
        <ele>10.5</ele>
        <time>2021-02-21T09:32:32Z</time>
      </trkpt>
      <trkpt lat="49.29558" lon="-0.31562">
        <ele>10.6</ele>
        <time>2021-02-21T09:32:34Z</time>
      </trkpt>
      <trkpt lat="49.29559" lon="-0.31562">
        <ele>10.6</ele>
        <time>2021-02-21T09:32:35Z</time>
      </trkpt>
      <trkpt lat="49.29561" lon="-0.31563">
        <ele>10.6</ele>
        <time>2021-02-21T09:32:36Z</time>
      </trkpt>
      <trkpt lat="49.29564" lon="-0.31563">
        <ele>10.6</ele>
        <time>2021-02-21T09:32:38Z</time>
      </trkpt>
      <trkpt lat="49.29565" lon="-0.31563">
        <ele>10.6</ele>
        <time>2021-02-21T09:32:40Z</time>
      </trkpt>
      <trkpt lat="49.29568" lon="-0.31564">
        <ele>10.6</ele>
        <time>2021-02-21T09:32:41Z</time>
      </trkpt>
      <trkpt lat="49.29569" lon="-0.31564">
        <ele>10.6</ele>
        <time>2021-02-21T09:32:42Z</time>
      </trkpt>
      <trkpt lat="49.29573" lon="-0.31565">
        <ele>10.6</ele>
        <time>2021-02-21T09:32:44Z</time>
      </trkpt>
      <trkpt lat="49.29574" lon="-0.31565">
        <ele>10.6</ele>
        <time>2021-02-21T09:32:45Z</time>
      </trkpt>
      <trkpt lat="49.29576" lon="-0.31565">
        <ele>10.6</ele>
        <time>2021-02-21T09:32:46Z</time>
      </trkpt>
      <trkpt lat="49.29579" lon="-0.31566">
        <ele>10.6</ele>
        <time>2021-02-21T09:32:48Z</time>
      </trkpt>
      <trkpt lat="49.2958" lon="-0.31566">
        <ele>10.6</ele>
        <time>2021-02-21T09:32:49Z</time>
      </trkpt>
      <trkpt lat="49.29583" lon="-0.31567">
        <ele>10.6</ele>
        <time>2021-02-21T09:32:50Z</time>
      </trkpt>
      <trkpt lat="49.29584" lon="-0.31568">
        <ele>10.7</ele>
        <time>2021-02-21T09:32:51Z</time>
      </trkpt>
      <trkpt lat="49.29588" lon="-0.3157">
        <ele>10.7</ele>
        <time>2021-02-21T09:32:53Z</time>
      </trkpt>
      <trkpt lat="49.29589" lon="-0.31571">
        <ele>10.7</ele>
        <time>2021-02-21T09:32:54Z</time>
      </trkpt>
      <trkpt lat="49.29592" lon="-0.31573">
        <ele>10.7</ele>
        <time>2021-02-21T09:32:55Z</time>
      </trkpt>
      <trkpt lat="49.29595" lon="-0.31575">
        <ele>10.7</ele>
        <time>2021-02-21T09:32:57Z</time>
      </trkpt>
      <trkpt lat="49.29597" lon="-0.31577">
        <ele>10.7</ele>
        <time>2021-02-21T09:32:58Z</time>
      </trkpt>
      <trkpt lat="49.29602" lon="-0.31581">
        <ele>10.7</ele>
        <time>2021-02-21T09:33:00Z</time>
      </trkpt>
      <trkpt lat="49.29604" lon="-0.31582">
        <ele>10.8</ele>
        <time>2021-02-21T09:33:01Z</time>
      </trkpt>
      <trkpt lat="49.29605" lon="-0.31584">
        <ele>10.8</ele>
        <time>2021-02-21T09:33:02Z</time>
      </trkpt>
      <trkpt lat="49.29609" lon="-0.31587">
        <ele>10.8</ele>
        <time>2021-02-21T09:33:05Z</time>
      </trkpt>
      <trkpt lat="49.29612" lon="-0.31589">
        <ele>10.8</ele>
        <time>2021-02-21T09:33:07Z</time>
      </trkpt>
      <trkpt lat="49.29613" lon="-0.3159">
        <ele>10.8</ele>
        <time>2021-02-21T09:33:08Z</time>
      </trkpt>
      <trkpt lat="49.29616" lon="-0.31592">
        <ele>10.8</ele>
        <time>2021-02-21T09:33:09Z</time>
      </trkpt>
      <trkpt lat="49.29618" lon="-0.31594">
        <ele>10.8</ele>
        <time>2021-02-21T09:33:11Z</time>
      </trkpt>
      <trkpt lat="49.29621" lon="-0.31596">
        <ele>10.8</ele>
        <time>2021-02-21T09:33:13Z</time>
      </trkpt>
      <trkpt lat="49.29624" lon="-0.31598">
        <ele>10.8</ele>
        <time>2021-02-21T09:33:14Z</time>
      </trkpt>
      <trkpt lat="49.29626" lon="-0.316">
        <ele>10.8</ele>
        <time>2021-02-21T09:33:16Z</time>
      </trkpt>
      <trkpt lat="49.29629" lon="-0.31601">
        <ele>10.8</ele>
        <time>2021-02-21T09:33:17Z</time>
      </trkpt>
      <trkpt lat="49.29629" lon="-0.31602">
        <ele>10.9</ele>
        <time>2021-02-21T09:33:18Z</time>
      </trkpt>
      <trkpt lat="49.29632" lon="-0.31604">
        <ele>10.9</ele>
        <time>2021-02-21T09:33:19Z</time>
      </trkpt>
      <trkpt lat="49.29635" lon="-0.31607">
        <ele>10.9</ele>
        <time>2021-02-21T09:33:21Z</time>
      </trkpt>
      <trkpt lat="49.29636" lon="-0.31607">
        <ele>10.9</ele>
        <time>2021-02-21T09:33:22Z</time>
      </trkpt>
      <trkpt lat="49.29639" lon="-0.3161">
        <ele>10.9</ele>
        <time>2021-02-21T09:33:24Z</time>
      </trkpt>
      <trkpt lat="49.29641" lon="-0.31611">
        <ele>10.9</ele>
        <time>2021-02-21T09:33:25Z</time>
      </trkpt>
      <trkpt lat="49.29643" lon="-0.31613">
        <ele>10.9</ele>
        <time>2021-02-21T09:33:28Z</time>
      </trkpt>
      <trkpt lat="49.29645" lon="-0.31614">
        <ele>10.9</ele>
        <time>2021-02-21T09:33:30Z</time>
      </trkpt>
    </trkseg>
  </trk>
</gpx>